<?xml version="1.0" encoding="UTF-8" standalone="no" ?>
<gpx xmlns="http://www.topografix.com/GPX/1/1" xmlns:xsi="http://www.w3.org/2001/XMLSchema-instance" xsi:schemaLocation="http://www.topografix.com/GPX/1/1 http://www.topografix.com/GPX/1/1/gpx.xsd" version="1.1" creator="VisuGPX - https://www.visugpx.com">
  <metadata>
    <name>SityTrail - 20260521-hautot sur seine version courte</name>
    <desc><![CDATA[Boucle A-R au départ du Bac de Sahurs]]></desc>
  </metadata>
  <trk>
    <name><![CDATA[SityTrail - 20260521-hautot sur seine version courte]]></name>
    <desc><![CDATA[Boucle A-R au départ du Bac de Sahurs]]></desc>
    <trkseg>
      <trkpt lat="49.35739" lon="0.98169">
        <ele>3</ele>
        <time>2026-05-21T11:56:57.589Z</time>
      </trkpt>
      <trkpt lat="49.35739" lon="0.98169">
        <ele>3</ele>
        <time>2026-05-21T11:58:31.588Z</time>
      </trkpt>
      <trkpt lat="49.35739" lon="0.98169">
        <ele>3</ele>
        <time>2026-05-21T11:58:39.588Z</time>
      </trkpt>
      <trkpt lat="49.35739" lon="0.9817">
        <ele>3</ele>
        <time>2026-05-21T11:59:03.587Z</time>
      </trkpt>
      <trkpt lat="49.35736" lon="0.98177">
        <ele>3</ele>
        <time>2026-05-21T11:59:08.588Z</time>
      </trkpt>
      <trkpt lat="49.35733" lon="0.98182">
        <ele>2</ele>
        <time>2026-05-21T11:59:12.588Z</time>
      </trkpt>
      <trkpt lat="49.35731" lon="0.98189">
        <ele>2</ele>
        <time>2026-05-21T11:59:17.588Z</time>
      </trkpt>
      <trkpt lat="49.3573" lon="0.98196">
        <ele>2</ele>
        <time>2026-05-21T11:59:22.339Z</time>
      </trkpt>
      <trkpt lat="49.35734" lon="0.982">
        <ele>2</ele>
        <time>2026-05-21T11:59:26.398Z</time>
      </trkpt>
      <trkpt lat="49.35738" lon="0.982">
        <ele>2</ele>
        <time>2026-05-21T11:59:30.937Z</time>
      </trkpt>
      <trkpt lat="49.35742" lon="0.98195">
        <ele>2</ele>
        <time>2026-05-21T11:59:35.478Z</time>
      </trkpt>
      <trkpt lat="49.35745" lon="0.98192">
        <ele>2</ele>
        <time>2026-05-21T11:59:39.518Z</time>
      </trkpt>
      <trkpt lat="49.35748" lon="0.98187">
        <ele>2</ele>
        <time>2026-05-21T11:59:43.521Z</time>
      </trkpt>
      <trkpt lat="49.35751" lon="0.98182">
        <ele>2</ele>
        <time>2026-05-21T11:59:47.588Z</time>
      </trkpt>
      <trkpt lat="49.35754" lon="0.98176">
        <ele>3</ele>
        <time>2026-05-21T11:59:52.258Z</time>
      </trkpt>
      <trkpt lat="49.35757" lon="0.98171">
        <ele>3</ele>
        <time>2026-05-21T11:59:56.263Z</time>
      </trkpt>
      <trkpt lat="49.3576" lon="0.98165">
        <ele>3</ele>
        <time>2026-05-21T12:00:00.724Z</time>
      </trkpt>
      <trkpt lat="49.35763" lon="0.9816">
        <ele>3</ele>
        <time>2026-05-21T12:00:04.799Z</time>
      </trkpt>
      <trkpt lat="49.35766" lon="0.98157">
        <ele>4</ele>
        <time>2026-05-21T12:00:09.277Z</time>
      </trkpt>
      <trkpt lat="49.35771" lon="0.98151">
        <ele>3</ele>
        <time>2026-05-21T12:00:13.588Z</time>
      </trkpt>
      <trkpt lat="49.35773" lon="0.98147">
        <ele>3</ele>
        <time>2026-05-21T12:00:18.121Z</time>
      </trkpt>
      <trkpt lat="49.35777" lon="0.9814">
        <ele>3</ele>
        <time>2026-05-21T12:00:22.601Z</time>
      </trkpt>
      <trkpt lat="49.35781" lon="0.98136">
        <ele>3</ele>
        <time>2026-05-21T12:00:26.588Z</time>
      </trkpt>
      <trkpt lat="49.35784" lon="0.98131">
        <ele>3</ele>
        <time>2026-05-21T12:00:30.757Z</time>
      </trkpt>
      <trkpt lat="49.35788" lon="0.98126">
        <ele>3</ele>
        <time>2026-05-21T12:00:35.298Z</time>
      </trkpt>
      <trkpt lat="49.35791" lon="0.98121">
        <ele>3</ele>
        <time>2026-05-21T12:00:39.319Z</time>
      </trkpt>
      <trkpt lat="49.35793" lon="0.98116">
        <ele>4</ele>
        <time>2026-05-21T12:00:43.325Z</time>
      </trkpt>
      <trkpt lat="49.35797" lon="0.9811">
        <ele>4</ele>
        <time>2026-05-21T12:00:47.881Z</time>
      </trkpt>
      <trkpt lat="49.358" lon="0.98106">
        <ele>4</ele>
        <time>2026-05-21T12:00:52.342Z</time>
      </trkpt>
      <trkpt lat="49.35804" lon="0.98101">
        <ele>4</ele>
        <time>2026-05-21T12:00:56.865Z</time>
      </trkpt>
      <trkpt lat="49.35808" lon="0.98095">
        <ele>3</ele>
        <time>2026-05-21T12:01:01.423Z</time>
      </trkpt>
      <trkpt lat="49.35812" lon="0.9809">
        <ele>3</ele>
        <time>2026-05-21T12:01:05.980Z</time>
      </trkpt>
      <trkpt lat="49.35815" lon="0.98085">
        <ele>3</ele>
        <time>2026-05-21T12:01:10.501Z</time>
      </trkpt>
      <trkpt lat="49.35819" lon="0.9808">
        <ele>3</ele>
        <time>2026-05-21T12:01:14.588Z</time>
      </trkpt>
      <trkpt lat="49.35822" lon="0.98076">
        <ele>4</ele>
        <time>2026-05-21T12:01:18.977Z</time>
      </trkpt>
      <trkpt lat="49.35825" lon="0.98071">
        <ele>4</ele>
        <time>2026-05-21T12:01:23.024Z</time>
      </trkpt>
      <trkpt lat="49.35829" lon="0.98066">
        <ele>4</ele>
        <time>2026-05-21T12:01:27.588Z</time>
      </trkpt>
      <trkpt lat="49.35832" lon="0.98061">
        <ele>4</ele>
        <time>2026-05-21T12:01:32.183Z</time>
      </trkpt>
      <trkpt lat="49.35836" lon="0.98056">
        <ele>4</ele>
        <time>2026-05-21T12:01:36.724Z</time>
      </trkpt>
      <trkpt lat="49.3584" lon="0.98052">
        <ele>4</ele>
        <time>2026-05-21T12:01:40.762Z</time>
      </trkpt>
      <trkpt lat="49.35844" lon="0.98049">
        <ele>4</ele>
        <time>2026-05-21T12:01:45.338Z</time>
      </trkpt>
      <trkpt lat="49.35848" lon="0.98044">
        <ele>4</ele>
        <time>2026-05-21T12:01:49.904Z</time>
      </trkpt>
      <trkpt lat="49.35851" lon="0.9804">
        <ele>4</ele>
        <time>2026-05-21T12:01:53.899Z</time>
      </trkpt>
      <trkpt lat="49.35856" lon="0.98037">
        <ele>4</ele>
        <time>2026-05-21T12:01:58.500Z</time>
      </trkpt>
      <trkpt lat="49.3586" lon="0.98033">
        <ele>4</ele>
        <time>2026-05-21T12:02:02.539Z</time>
      </trkpt>
      <trkpt lat="49.35863" lon="0.9803">
        <ele>4</ele>
        <time>2026-05-21T12:02:06.561Z</time>
      </trkpt>
      <trkpt lat="49.35868" lon="0.98027">
        <ele>4</ele>
        <time>2026-05-21T12:02:11.119Z</time>
      </trkpt>
      <trkpt lat="49.35872" lon="0.98023">
        <ele>4</ele>
        <time>2026-05-21T12:02:15.588Z</time>
      </trkpt>
      <trkpt lat="49.35876" lon="0.98021">
        <ele>4</ele>
        <time>2026-05-21T12:02:19.588Z</time>
      </trkpt>
      <trkpt lat="49.35881" lon="0.98017">
        <ele>4</ele>
        <time>2026-05-21T12:02:24.063Z</time>
      </trkpt>
      <trkpt lat="49.35886" lon="0.98014">
        <ele>4</ele>
        <time>2026-05-21T12:02:28.602Z</time>
      </trkpt>
      <trkpt lat="49.35891" lon="0.9801">
        <ele>4</ele>
        <time>2026-05-21T12:02:33.097Z</time>
      </trkpt>
      <trkpt lat="49.35895" lon="0.98008">
        <ele>4</ele>
        <time>2026-05-21T12:02:37.217Z</time>
      </trkpt>
      <trkpt lat="49.35899" lon="0.98005">
        <ele>4</ele>
        <time>2026-05-21T12:02:41.588Z</time>
      </trkpt>
      <trkpt lat="49.35904" lon="0.98001">
        <ele>3</ele>
        <time>2026-05-21T12:02:46.297Z</time>
      </trkpt>
      <trkpt lat="49.35908" lon="0.97999">
        <ele>3</ele>
        <time>2026-05-21T12:02:50.379Z</time>
      </trkpt>
      <trkpt lat="49.35912" lon="0.97995">
        <ele>3</ele>
        <time>2026-05-21T12:02:54.920Z</time>
      </trkpt>
      <trkpt lat="49.35916" lon="0.97992">
        <ele>3</ele>
        <time>2026-05-21T12:02:58.959Z</time>
      </trkpt>
      <trkpt lat="49.3592" lon="0.97989">
        <ele>3</ele>
        <time>2026-05-21T12:03:02.979Z</time>
      </trkpt>
      <trkpt lat="49.35924" lon="0.97985">
        <ele>4</ele>
        <time>2026-05-21T12:03:06.985Z</time>
      </trkpt>
      <trkpt lat="49.35929" lon="0.97981">
        <ele>4</ele>
        <time>2026-05-21T12:03:11.524Z</time>
      </trkpt>
      <trkpt lat="49.35933" lon="0.97978">
        <ele>2</ele>
        <time>2026-05-21T12:03:16.037Z</time>
      </trkpt>
      <trkpt lat="49.35938" lon="0.97975">
        <ele>2</ele>
        <time>2026-05-21T12:03:20.588Z</time>
      </trkpt>
      <trkpt lat="49.35943" lon="0.97972">
        <ele>2</ele>
        <time>2026-05-21T12:03:25.178Z</time>
      </trkpt>
      <trkpt lat="49.35947" lon="0.97969">
        <ele>2</ele>
        <time>2026-05-21T12:03:29.718Z</time>
      </trkpt>
      <trkpt lat="49.35952" lon="0.97966">
        <ele>2</ele>
        <time>2026-05-21T12:03:34.223Z</time>
      </trkpt>
      <trkpt lat="49.35956" lon="0.97962">
        <ele>2</ele>
        <time>2026-05-21T12:03:38.780Z</time>
      </trkpt>
      <trkpt lat="49.35961" lon="0.97959">
        <ele>3</ele>
        <time>2026-05-21T12:03:43.363Z</time>
      </trkpt>
      <trkpt lat="49.35965" lon="0.97955">
        <ele>4</ele>
        <time>2026-05-21T12:03:47.878Z</time>
      </trkpt>
      <trkpt lat="49.3597" lon="0.97952">
        <ele>4</ele>
        <time>2026-05-21T12:03:52.366Z</time>
      </trkpt>
      <trkpt lat="49.35975" lon="0.97948">
        <ele>4</ele>
        <time>2026-05-21T12:03:56.859Z</time>
      </trkpt>
      <trkpt lat="49.3598" lon="0.97944">
        <ele>4</ele>
        <time>2026-05-21T12:04:01.320Z</time>
      </trkpt>
      <trkpt lat="49.35984" lon="0.97941">
        <ele>4</ele>
        <time>2026-05-21T12:04:05.781Z</time>
      </trkpt>
      <trkpt lat="49.35989" lon="0.97939">
        <ele>4</ele>
        <time>2026-05-21T12:04:10.303Z</time>
      </trkpt>
      <trkpt lat="49.35994" lon="0.97937">
        <ele>4</ele>
        <time>2026-05-21T12:04:14.825Z</time>
      </trkpt>
      <trkpt lat="49.35999" lon="0.97934">
        <ele>4</ele>
        <time>2026-05-21T12:04:19.364Z</time>
      </trkpt>
      <trkpt lat="49.36003" lon="0.97928">
        <ele>5</ele>
        <time>2026-05-21T12:04:23.842Z</time>
      </trkpt>
      <trkpt lat="49.36007" lon="0.97922">
        <ele>5</ele>
        <time>2026-05-21T12:04:28.303Z</time>
      </trkpt>
      <trkpt lat="49.36008" lon="0.97915">
        <ele>5</ele>
        <time>2026-05-21T12:04:32.921Z</time>
      </trkpt>
      <trkpt lat="49.36006" lon="0.97908">
        <ele>5</ele>
        <time>2026-05-21T12:04:37.416Z</time>
      </trkpt>
      <trkpt lat="49.36005" lon="0.97902">
        <ele>5</ele>
        <time>2026-05-21T12:04:41.905Z</time>
      </trkpt>
      <trkpt lat="49.36003" lon="0.97896">
        <ele>5</ele>
        <time>2026-05-21T12:04:46.119Z</time>
      </trkpt>
      <trkpt lat="49.36003" lon="0.9789">
        <ele>5</ele>
        <time>2026-05-21T12:04:50.342Z</time>
      </trkpt>
      <trkpt lat="49.36001" lon="0.97885">
        <ele>5</ele>
        <time>2026-05-21T12:04:54.443Z</time>
      </trkpt>
      <trkpt lat="49.35999" lon="0.9788">
        <ele>5</ele>
        <time>2026-05-21T12:04:58.500Z</time>
      </trkpt>
      <trkpt lat="49.35996" lon="0.97875">
        <ele>5</ele>
        <time>2026-05-21T12:05:02.600Z</time>
      </trkpt>
      <trkpt lat="49.35993" lon="0.97871">
        <ele>6</ele>
        <time>2026-05-21T12:05:07.262Z</time>
      </trkpt>
      <trkpt lat="49.3599" lon="0.97867">
        <ele>6</ele>
        <time>2026-05-21T12:05:11.384Z</time>
      </trkpt>
      <trkpt lat="49.35987" lon="0.97864">
        <ele>6</ele>
        <time>2026-05-21T12:05:15.937Z</time>
      </trkpt>
      <trkpt lat="49.35982" lon="0.97859">
        <ele>5</ele>
        <time>2026-05-21T12:05:20.003Z</time>
      </trkpt>
      <trkpt lat="49.35979" lon="0.97855">
        <ele>5</ele>
        <time>2026-05-21T12:05:24.543Z</time>
      </trkpt>
      <trkpt lat="49.35975" lon="0.97851">
        <ele>5</ele>
        <time>2026-05-21T12:05:28.564Z</time>
      </trkpt>
      <trkpt lat="49.35972" lon="0.97846">
        <ele>6</ele>
        <time>2026-05-21T12:05:32.587Z</time>
      </trkpt>
      <trkpt lat="49.35969" lon="0.9784">
        <ele>6</ele>
        <time>2026-05-21T12:05:37.239Z</time>
      </trkpt>
      <trkpt lat="49.35966" lon="0.97835">
        <ele>6</ele>
        <time>2026-05-21T12:05:41.261Z</time>
      </trkpt>
      <trkpt lat="49.35962" lon="0.9783">
        <ele>6</ele>
        <time>2026-05-21T12:05:45.844Z</time>
      </trkpt>
      <trkpt lat="49.35958" lon="0.97826">
        <ele>4</ele>
        <time>2026-05-21T12:05:49.962Z</time>
      </trkpt>
      <trkpt lat="49.35956" lon="0.9782">
        <ele>4</ele>
        <time>2026-05-21T12:05:54.063Z</time>
      </trkpt>
      <trkpt lat="49.35953" lon="0.97814">
        <ele>4</ele>
        <time>2026-05-21T12:05:58.164Z</time>
      </trkpt>
      <trkpt lat="49.3595" lon="0.97808">
        <ele>4</ele>
        <time>2026-05-21T12:06:02.767Z</time>
      </trkpt>
      <trkpt lat="49.35946" lon="0.97803">
        <ele>4</ele>
        <time>2026-05-21T12:06:07.270Z</time>
      </trkpt>
      <trkpt lat="49.35943" lon="0.97797">
        <ele>4</ele>
        <time>2026-05-21T12:06:11.381Z</time>
      </trkpt>
      <trkpt lat="49.3594" lon="0.97792">
        <ele>4</ele>
        <time>2026-05-21T12:06:15.418Z</time>
      </trkpt>
      <trkpt lat="49.35937" lon="0.97786">
        <ele>5</ele>
        <time>2026-05-21T12:06:19.500Z</time>
      </trkpt>
      <trkpt lat="49.35934" lon="0.97781">
        <ele>5</ele>
        <time>2026-05-21T12:06:23.522Z</time>
      </trkpt>
      <trkpt lat="49.35932" lon="0.97774">
        <ele>5</ele>
        <time>2026-05-21T12:06:27.561Z</time>
      </trkpt>
      <trkpt lat="49.3593" lon="0.97767">
        <ele>4</ele>
        <time>2026-05-21T12:06:32.145Z</time>
      </trkpt>
      <trkpt lat="49.35928" lon="0.9776">
        <ele>6</ele>
        <time>2026-05-21T12:06:36.700Z</time>
      </trkpt>
      <trkpt lat="49.35925" lon="0.97754">
        <ele>6</ele>
        <time>2026-05-21T12:06:40.739Z</time>
      </trkpt>
      <trkpt lat="49.35923" lon="0.97748">
        <ele>6</ele>
        <time>2026-05-21T12:06:44.823Z</time>
      </trkpt>
      <trkpt lat="49.35921" lon="0.97743">
        <ele>6</ele>
        <time>2026-05-21T12:08:08.121Z</time>
      </trkpt>
      <trkpt lat="49.35919" lon="0.97735">
        <ele>9</ele>
        <time>2026-05-21T12:08:12.221Z</time>
      </trkpt>
      <trkpt lat="49.35916" lon="0.97729">
        <ele>9</ele>
        <time>2026-05-21T12:08:16.462Z</time>
      </trkpt>
      <trkpt lat="49.35913" lon="0.97723">
        <ele>9</ele>
        <time>2026-05-21T12:08:20.484Z</time>
      </trkpt>
      <trkpt lat="49.35911" lon="0.97716">
        <ele>9</ele>
        <time>2026-05-21T12:08:24.996Z</time>
      </trkpt>
      <trkpt lat="49.35909" lon="0.97711">
        <ele>9</ele>
        <time>2026-05-21T12:08:29.344Z</time>
      </trkpt>
      <trkpt lat="49.35906" lon="0.97706">
        <ele>11</ele>
        <time>2026-05-21T12:08:33.418Z</time>
      </trkpt>
      <trkpt lat="49.35904" lon="0.977">
        <ele>11</ele>
        <time>2026-05-21T12:08:37.781Z</time>
      </trkpt>
      <trkpt lat="49.35901" lon="0.97695">
        <ele>8</ele>
        <time>2026-05-21T12:08:41.803Z</time>
      </trkpt>
      <trkpt lat="49.35899" lon="0.9769">
        <ele>8</ele>
        <time>2026-05-21T12:08:45.823Z</time>
      </trkpt>
      <trkpt lat="49.35896" lon="0.97683">
        <ele>8</ele>
        <time>2026-05-21T12:08:50.319Z</time>
      </trkpt>
      <trkpt lat="49.35893" lon="0.97677">
        <ele>10</ele>
        <time>2026-05-21T12:08:54.998Z</time>
      </trkpt>
      <trkpt lat="49.3589" lon="0.97671">
        <ele>10</ele>
        <time>2026-05-21T12:08:59.503Z</time>
      </trkpt>
      <trkpt lat="49.35887" lon="0.97665">
        <ele>10</ele>
        <time>2026-05-21T12:09:03.937Z</time>
      </trkpt>
      <trkpt lat="49.35885" lon="0.9766">
        <ele>10</ele>
        <time>2026-05-21T12:09:07.959Z</time>
      </trkpt>
      <trkpt lat="49.35883" lon="0.97654">
        <ele>10</ele>
        <time>2026-05-21T12:09:11.963Z</time>
      </trkpt>
      <trkpt lat="49.3588" lon="0.97648">
        <ele>10</ele>
        <time>2026-05-21T12:09:16.037Z</time>
      </trkpt>
      <trkpt lat="49.35878" lon="0.97641">
        <ele>10</ele>
        <time>2026-05-21T12:09:20.479Z</time>
      </trkpt>
      <trkpt lat="49.35876" lon="0.97635">
        <ele>10</ele>
        <time>2026-05-21T12:09:24.587Z</time>
      </trkpt>
      <trkpt lat="49.35873" lon="0.97628">
        <ele>7</ele>
        <time>2026-05-21T12:09:29.197Z</time>
      </trkpt>
      <trkpt lat="49.35871" lon="0.97622">
        <ele>8</ele>
        <time>2026-05-21T12:09:33.219Z</time>
      </trkpt>
      <trkpt lat="49.35868" lon="0.97615">
        <ele>8</ele>
        <time>2026-05-21T12:09:37.758Z</time>
      </trkpt>
      <trkpt lat="49.35865" lon="0.9761">
        <ele>8</ele>
        <time>2026-05-21T12:09:41.780Z</time>
      </trkpt>
      <trkpt lat="49.35862" lon="0.97604">
        <ele>8</ele>
        <time>2026-05-21T12:09:46.301Z</time>
      </trkpt>
      <trkpt lat="49.35858" lon="0.97598">
        <ele>8</ele>
        <time>2026-05-21T12:09:50.859Z</time>
      </trkpt>
      <trkpt lat="49.35856" lon="0.97591">
        <ele>9</ele>
        <time>2026-05-21T12:09:54.880Z</time>
      </trkpt>
      <trkpt lat="49.35854" lon="0.97586">
        <ele>9</ele>
        <time>2026-05-21T12:09:58.885Z</time>
      </trkpt>
      <trkpt lat="49.35851" lon="0.97579">
        <ele>9</ele>
        <time>2026-05-21T12:10:03.485Z</time>
      </trkpt>
      <trkpt lat="49.35848" lon="0.97574">
        <ele>9</ele>
        <time>2026-05-21T12:10:08.041Z</time>
      </trkpt>
      <trkpt lat="49.35846" lon="0.97568">
        <ele>10</ele>
        <time>2026-05-21T12:10:12.142Z</time>
      </trkpt>
      <trkpt lat="49.35844" lon="0.97562">
        <ele>10</ele>
        <time>2026-05-21T12:10:16.242Z</time>
      </trkpt>
      <trkpt lat="49.35842" lon="0.97557">
        <ele>10</ele>
        <time>2026-05-21T12:10:20.297Z</time>
      </trkpt>
      <trkpt lat="49.35839" lon="0.9755">
        <ele>10</ele>
        <time>2026-05-21T12:10:24.319Z</time>
      </trkpt>
      <trkpt lat="49.35837" lon="0.97543">
        <ele>10</ele>
        <time>2026-05-21T12:10:28.358Z</time>
      </trkpt>
      <trkpt lat="49.35836" lon="0.97537">
        <ele>10</ele>
        <time>2026-05-21T12:10:32.423Z</time>
      </trkpt>
      <trkpt lat="49.35833" lon="0.9753">
        <ele>10</ele>
        <time>2026-05-21T12:10:36.998Z</time>
      </trkpt>
      <trkpt lat="49.35831" lon="0.97523">
        <ele>10</ele>
        <time>2026-05-21T12:10:41.599Z</time>
      </trkpt>
      <trkpt lat="49.35828" lon="0.97516">
        <ele>10</ele>
        <time>2026-05-21T12:10:46.059Z</time>
      </trkpt>
      <trkpt lat="49.35825" lon="0.97509">
        <ele>9</ele>
        <time>2026-05-21T12:10:50.587Z</time>
      </trkpt>
      <trkpt lat="49.35822" lon="0.97502">
        <ele>9</ele>
        <time>2026-05-21T12:10:55.138Z</time>
      </trkpt>
      <trkpt lat="49.3582" lon="0.97496">
        <ele>9</ele>
        <time>2026-05-21T12:10:59.177Z</time>
      </trkpt>
      <trkpt lat="49.35818" lon="0.97489">
        <ele>4</ele>
        <time>2026-05-21T12:11:03.717Z</time>
      </trkpt>
      <trkpt lat="49.35817" lon="0.97482">
        <ele>2</ele>
        <time>2026-05-21T12:11:07.799Z</time>
      </trkpt>
      <trkpt lat="49.35815" lon="0.97476">
        <ele>2</ele>
        <time>2026-05-21T12:11:11.882Z</time>
      </trkpt>
      <trkpt lat="49.35813" lon="0.97469">
        <ele>2</ele>
        <time>2026-05-21T12:11:16.404Z</time>
      </trkpt>
      <trkpt lat="49.35811" lon="0.97463">
        <ele>2</ele>
        <time>2026-05-21T12:11:20.417Z</time>
      </trkpt>
      <trkpt lat="49.3581" lon="0.97456">
        <ele>2</ele>
        <time>2026-05-21T12:11:24.463Z</time>
      </trkpt>
      <trkpt lat="49.35809" lon="0.9745">
        <ele>2</ele>
        <time>2026-05-21T12:11:28.520Z</time>
      </trkpt>
      <trkpt lat="49.35808" lon="0.97443">
        <ele>2</ele>
        <time>2026-05-21T12:11:32.587Z</time>
      </trkpt>
      <trkpt lat="49.35807" lon="0.97436">
        <ele>2</ele>
        <time>2026-05-21T12:11:36.782Z</time>
      </trkpt>
      <trkpt lat="49.35806" lon="0.9743">
        <ele>3</ele>
        <time>2026-05-21T12:11:40.858Z</time>
      </trkpt>
      <trkpt lat="49.35805" lon="0.97424">
        <ele>3</ele>
        <time>2026-05-21T12:11:44.921Z</time>
      </trkpt>
      <trkpt lat="49.35804" lon="0.97417">
        <ele>3</ele>
        <time>2026-05-21T12:11:49.505Z</time>
      </trkpt>
      <trkpt lat="49.35803" lon="0.97408">
        <ele>3</ele>
        <time>2026-05-21T12:11:53.586Z</time>
      </trkpt>
      <trkpt lat="49.35802" lon="0.974">
        <ele>4</ele>
        <time>2026-05-21T12:11:57.784Z</time>
      </trkpt>
      <trkpt lat="49.35802" lon="0.97393">
        <ele>4</ele>
        <time>2026-05-21T12:12:01.858Z</time>
      </trkpt>
      <trkpt lat="49.35802" lon="0.97386">
        <ele>4</ele>
        <time>2026-05-21T12:12:05.959Z</time>
      </trkpt>
      <trkpt lat="49.35801" lon="0.9738">
        <ele>4</ele>
        <time>2026-05-21T12:12:09.997Z</time>
      </trkpt>
      <trkpt lat="49.358" lon="0.97373">
        <ele>6</ele>
        <time>2026-05-21T12:12:14.080Z</time>
      </trkpt>
      <trkpt lat="49.35799" lon="0.97366">
        <ele>6</ele>
        <time>2026-05-21T12:12:18.197Z</time>
      </trkpt>
      <trkpt lat="49.35798" lon="0.9736">
        <ele>6</ele>
        <time>2026-05-21T12:12:22.237Z</time>
      </trkpt>
      <trkpt lat="49.35797" lon="0.97352">
        <ele>6</ele>
        <time>2026-05-21T12:12:26.785Z</time>
      </trkpt>
      <trkpt lat="49.35798" lon="0.97345">
        <ele>7</ele>
        <time>2026-05-21T12:12:30.937Z</time>
      </trkpt>
      <trkpt lat="49.35798" lon="0.97338">
        <ele>7</ele>
        <time>2026-05-21T12:12:35.081Z</time>
      </trkpt>
      <trkpt lat="49.35797" lon="0.97331">
        <ele>7</ele>
        <time>2026-05-21T12:12:39.217Z</time>
      </trkpt>
      <trkpt lat="49.35797" lon="0.97324">
        <ele>7</ele>
        <time>2026-05-21T12:12:43.485Z</time>
      </trkpt>
      <trkpt lat="49.35797" lon="0.97316">
        <ele>8</ele>
        <time>2026-05-21T12:12:48.085Z</time>
      </trkpt>
      <trkpt lat="49.35796" lon="0.97308">
        <ele>8</ele>
        <time>2026-05-21T12:12:52.202Z</time>
      </trkpt>
      <trkpt lat="49.35795" lon="0.97301">
        <ele>8</ele>
        <time>2026-05-21T12:12:56.278Z</time>
      </trkpt>
      <trkpt lat="49.35795" lon="0.97294">
        <ele>8</ele>
        <time>2026-05-21T12:13:36.587Z</time>
      </trkpt>
      <trkpt lat="49.35795" lon="0.97295">
        <ele>8</ele>
        <time>2026-05-21T12:13:45.586Z</time>
      </trkpt>
      <trkpt lat="49.35794" lon="0.97291">
        <ele>10</ele>
        <time>2026-05-21T12:13:50.586Z</time>
      </trkpt>
      <trkpt lat="49.35792" lon="0.97285">
        <ele>10</ele>
        <time>2026-05-21T12:13:54.586Z</time>
      </trkpt>
      <trkpt lat="49.35793" lon="0.97278">
        <ele>10</ele>
        <time>2026-05-21T12:13:59.422Z</time>
      </trkpt>
      <trkpt lat="49.35793" lon="0.97273">
        <ele>10</ele>
        <time>2026-05-21T12:14:03.504Z</time>
      </trkpt>
      <trkpt lat="49.35794" lon="0.97266">
        <ele>10</ele>
        <time>2026-05-21T12:14:07.797Z</time>
      </trkpt>
      <trkpt lat="49.35793" lon="0.97266">
        <ele>10</ele>
        <time>2026-05-21T12:14:12.302Z</time>
      </trkpt>
      <trkpt lat="49.35794" lon="0.97265">
        <ele>10</ele>
        <time>2026-05-21T12:14:16.543Z</time>
      </trkpt>
      <trkpt lat="49.35795" lon="0.97253">
        <ele>11</ele>
        <time>2026-05-21T12:14:20.783Z</time>
      </trkpt>
      <trkpt lat="49.35795" lon="0.97246">
        <ele>11</ele>
        <time>2026-05-21T12:14:25.059Z</time>
      </trkpt>
      <trkpt lat="49.35795" lon="0.97237">
        <ele>11</ele>
        <time>2026-05-21T12:14:29.423Z</time>
      </trkpt>
      <trkpt lat="49.35795" lon="0.97231">
        <ele>13</ele>
        <time>2026-05-21T12:14:33.586Z</time>
      </trkpt>
      <trkpt lat="49.35796" lon="0.97224">
        <ele>13</ele>
        <time>2026-05-21T12:14:38.062Z</time>
      </trkpt>
      <trkpt lat="49.35797" lon="0.97218">
        <ele>13</ele>
        <time>2026-05-21T12:14:42.557Z</time>
      </trkpt>
      <trkpt lat="49.35801" lon="0.97215">
        <ele>13</ele>
        <time>2026-05-21T12:14:47.299Z</time>
      </trkpt>
      <trkpt lat="49.35801" lon="0.97216">
        <ele>13</ele>
        <time>2026-05-21T12:14:52.102Z</time>
      </trkpt>
      <trkpt lat="49.35806" lon="0.97217">
        <ele>13</ele>
        <time>2026-05-21T12:14:56.483Z</time>
      </trkpt>
      <trkpt lat="49.35811" lon="0.97217">
        <ele>13</ele>
        <time>2026-05-21T12:15:00.759Z</time>
      </trkpt>
      <trkpt lat="49.35815" lon="0.9722">
        <ele>13</ele>
        <time>2026-05-21T12:15:05.078Z</time>
      </trkpt>
      <trkpt lat="49.3582" lon="0.97221">
        <ele>17</ele>
        <time>2026-05-21T12:15:09.460Z</time>
      </trkpt>
      <trkpt lat="49.35824" lon="0.97223">
        <ele>17</ele>
        <time>2026-05-21T12:15:13.902Z</time>
      </trkpt>
      <trkpt lat="49.35828" lon="0.97226">
        <ele>17</ele>
        <time>2026-05-21T12:15:18.257Z</time>
      </trkpt>
      <trkpt lat="49.35832" lon="0.97228">
        <ele>17</ele>
        <time>2026-05-21T12:16:47.587Z</time>
      </trkpt>
      <trkpt lat="49.35832" lon="0.97228">
        <ele>17</ele>
        <time>2026-05-21T12:16:52.586Z</time>
      </trkpt>
      <trkpt lat="49.35833" lon="0.97229">
        <ele>17</ele>
        <time>2026-05-21T12:16:57.586Z</time>
      </trkpt>
      <trkpt lat="49.35834" lon="0.97236">
        <ele>17</ele>
        <time>2026-05-21T12:17:01.921Z</time>
      </trkpt>
      <trkpt lat="49.35834" lon="0.97244">
        <ele>15</ele>
        <time>2026-05-21T12:17:06.443Z</time>
      </trkpt>
      <trkpt lat="49.35836" lon="0.97251">
        <ele>15</ele>
        <time>2026-05-21T12:17:10.499Z</time>
      </trkpt>
      <trkpt lat="49.35841" lon="0.97256">
        <ele>15</ele>
        <time>2026-05-21T12:17:14.538Z</time>
      </trkpt>
      <trkpt lat="49.35845" lon="0.97258">
        <ele>15</ele>
        <time>2026-05-21T12:17:18.700Z</time>
      </trkpt>
      <trkpt lat="49.3585" lon="0.97259">
        <ele>18</ele>
        <time>2026-05-21T12:17:22.817Z</time>
      </trkpt>
      <trkpt lat="49.35854" lon="0.97265">
        <ele>16</ele>
        <time>2026-05-21T12:17:27.058Z</time>
      </trkpt>
      <trkpt lat="49.35857" lon="0.97269">
        <ele>16</ele>
        <time>2026-05-21T12:17:31.098Z</time>
      </trkpt>
      <trkpt lat="49.35857" lon="0.97272">
        <ele>16</ele>
        <time>2026-05-21T12:17:35.586Z</time>
      </trkpt>
      <trkpt lat="49.35859" lon="0.97277">
        <ele>16</ele>
        <time>2026-05-21T12:17:40.184Z</time>
      </trkpt>
      <trkpt lat="49.35863" lon="0.97283">
        <ele>16</ele>
        <time>2026-05-21T12:17:44.398Z</time>
      </trkpt>
      <trkpt lat="49.35863" lon="0.97291">
        <ele>16</ele>
        <time>2026-05-21T12:17:48.586Z</time>
      </trkpt>
      <trkpt lat="49.35864" lon="0.97296">
        <ele>16</ele>
        <time>2026-05-21T12:17:52.586Z</time>
      </trkpt>
      <trkpt lat="49.35866" lon="0.973">
        <ele>16</ele>
        <time>2026-05-21T12:17:56.919Z</time>
      </trkpt>
      <trkpt lat="49.35867" lon="0.97306">
        <ele>16</ele>
        <time>2026-05-21T12:18:01.318Z</time>
      </trkpt>
      <trkpt lat="49.3587" lon="0.97312">
        <ele>16</ele>
        <time>2026-05-21T12:18:05.497Z</time>
      </trkpt>
      <trkpt lat="49.3587" lon="0.97321">
        <ele>16</ele>
        <time>2026-05-21T12:18:10.238Z</time>
      </trkpt>
      <trkpt lat="49.35872" lon="0.97327">
        <ele>16</ele>
        <time>2026-05-21T12:18:14.304Z</time>
      </trkpt>
      <trkpt lat="49.35874" lon="0.97333">
        <ele>16</ele>
        <time>2026-05-21T12:18:18.421Z</time>
      </trkpt>
      <trkpt lat="49.35876" lon="0.9734">
        <ele>19</ele>
        <time>2026-05-21T12:18:22.586Z</time>
      </trkpt>
      <trkpt lat="49.35878" lon="0.97345">
        <ele>19</ele>
        <time>2026-05-21T12:18:26.885Z</time>
      </trkpt>
      <trkpt lat="49.35881" lon="0.97349">
        <ele>20</ele>
        <time>2026-05-21T12:18:31.178Z</time>
      </trkpt>
      <trkpt lat="49.35886" lon="0.9736">
        <ele>20</ele>
        <time>2026-05-21T12:18:49.586Z</time>
      </trkpt>
      <trkpt lat="49.35887" lon="0.97362">
        <ele>20</ele>
        <time>2026-05-21T12:18:53.664Z</time>
      </trkpt>
      <trkpt lat="49.3589" lon="0.97368">
        <ele>20</ele>
        <time>2026-05-21T12:18:58.001Z</time>
      </trkpt>
      <trkpt lat="49.35892" lon="0.97374">
        <ele>20</ele>
        <time>2026-05-21T12:19:02.180Z</time>
      </trkpt>
      <trkpt lat="49.35894" lon="0.9738">
        <ele>21</ele>
        <time>2026-05-21T12:19:06.387Z</time>
      </trkpt>
      <trkpt lat="49.35896" lon="0.97386">
        <ele>21</ele>
        <time>2026-05-21T12:19:10.504Z</time>
      </trkpt>
      <trkpt lat="49.35899" lon="0.97392">
        <ele>21</ele>
        <time>2026-05-21T12:19:14.586Z</time>
      </trkpt>
      <trkpt lat="49.35901" lon="0.97398">
        <ele>21</ele>
        <time>2026-05-21T12:19:18.799Z</time>
      </trkpt>
      <trkpt lat="49.35904" lon="0.97404">
        <ele>24</ele>
        <time>2026-05-21T12:19:22.980Z</time>
      </trkpt>
      <trkpt lat="49.35906" lon="0.9741">
        <ele>24</ele>
        <time>2026-05-21T12:19:27.080Z</time>
      </trkpt>
      <trkpt lat="49.35908" lon="0.97416">
        <ele>24</ele>
        <time>2026-05-21T12:19:31.302Z</time>
      </trkpt>
      <trkpt lat="49.3591" lon="0.97422">
        <ele>24</ele>
        <time>2026-05-21T12:19:35.324Z</time>
      </trkpt>
      <trkpt lat="49.35912" lon="0.97428">
        <ele>24</ele>
        <time>2026-05-21T12:19:39.585Z</time>
      </trkpt>
      <trkpt lat="49.35914" lon="0.97433">
        <ele>23</ele>
        <time>2026-05-21T12:19:44.157Z</time>
      </trkpt>
      <trkpt lat="49.35916" lon="0.97439">
        <ele>23</ele>
        <time>2026-05-21T12:19:48.458Z</time>
      </trkpt>
      <trkpt lat="49.35918" lon="0.97445">
        <ele>23</ele>
        <time>2026-05-21T12:19:52.585Z</time>
      </trkpt>
      <trkpt lat="49.3592" lon="0.97452">
        <ele>23</ele>
        <time>2026-05-21T12:19:57.257Z</time>
      </trkpt>
      <trkpt lat="49.35922" lon="0.97458">
        <ele>23</ele>
        <time>2026-05-21T12:20:01.304Z</time>
      </trkpt>
      <trkpt lat="49.35924" lon="0.97463">
        <ele>22</ele>
        <time>2026-05-21T12:20:05.334Z</time>
      </trkpt>
      <trkpt lat="49.35925" lon="0.97471">
        <ele>22</ele>
        <time>2026-05-21T12:20:09.899Z</time>
      </trkpt>
      <trkpt lat="49.35925" lon="0.97477">
        <ele>22</ele>
        <time>2026-05-21T12:20:14.585Z</time>
      </trkpt>
      <trkpt lat="49.35925" lon="0.9748">
        <ele>22</ele>
        <time>2026-05-21T12:20:18.585Z</time>
      </trkpt>
      <trkpt lat="49.35925" lon="0.97483">
        <ele>22</ele>
        <time>2026-05-21T12:20:23.324Z</time>
      </trkpt>
      <trkpt lat="49.35927" lon="0.97489">
        <ele>20</ele>
        <time>2026-05-21T12:20:27.538Z</time>
      </trkpt>
      <trkpt lat="49.3593" lon="0.97493">
        <ele>20</ele>
        <time>2026-05-21T12:20:31.964Z</time>
      </trkpt>
      <trkpt lat="49.35933" lon="0.97494">
        <ele>23</ele>
        <time>2026-05-21T12:20:36.038Z</time>
      </trkpt>
      <trkpt lat="49.35936" lon="0.975">
        <ele>23</ele>
        <time>2026-05-21T12:20:40.077Z</time>
      </trkpt>
      <trkpt lat="49.35939" lon="0.97506">
        <ele>23</ele>
        <time>2026-05-21T12:20:44.238Z</time>
      </trkpt>
      <trkpt lat="49.35941" lon="0.97512">
        <ele>23</ele>
        <time>2026-05-21T12:20:48.585Z</time>
      </trkpt>
      <trkpt lat="49.35943" lon="0.97517">
        <ele>21</ele>
        <time>2026-05-21T12:20:52.842Z</time>
      </trkpt>
      <trkpt lat="49.35944" lon="0.97522">
        <ele>21</ele>
        <time>2026-05-21T12:20:57.057Z</time>
      </trkpt>
      <trkpt lat="49.35946" lon="0.97529">
        <ele>21</ele>
        <time>2026-05-21T12:21:01.561Z</time>
      </trkpt>
      <trkpt lat="49.35948" lon="0.97535">
        <ele>21</ele>
        <time>2026-05-21T12:21:06.100Z</time>
      </trkpt>
      <trkpt lat="49.35949" lon="0.9754">
        <ele>21</ele>
        <time>2026-05-21T12:21:10.577Z</time>
      </trkpt>
      <trkpt lat="49.35952" lon="0.97547">
        <ele>20</ele>
        <time>2026-05-21T12:21:15.081Z</time>
      </trkpt>
      <trkpt lat="49.35954" lon="0.97553">
        <ele>20</ele>
        <time>2026-05-21T12:21:19.182Z</time>
      </trkpt>
      <trkpt lat="49.35957" lon="0.97559">
        <ele>20</ele>
        <time>2026-05-21T12:21:23.537Z</time>
      </trkpt>
      <trkpt lat="49.3596" lon="0.97565">
        <ele>22</ele>
        <time>2026-05-21T12:21:27.998Z</time>
      </trkpt>
      <trkpt lat="49.35963" lon="0.97572">
        <ele>20</ele>
        <time>2026-05-21T12:21:32.439Z</time>
      </trkpt>
      <trkpt lat="49.35966" lon="0.97578">
        <ele>20</ele>
        <time>2026-05-21T12:21:36.944Z</time>
      </trkpt>
      <trkpt lat="49.35969" lon="0.97584">
        <ele>20</ele>
        <time>2026-05-21T12:21:41.377Z</time>
      </trkpt>
      <trkpt lat="49.35969" lon="0.97587">
        <ele>20</ele>
        <time>2026-05-21T12:21:45.585Z</time>
      </trkpt>
      <trkpt lat="49.3597" lon="0.97587">
        <ele>20</ele>
        <time>2026-05-21T12:21:50.237Z</time>
      </trkpt>
      <trkpt lat="49.35973" lon="0.97595">
        <ele>20</ele>
        <time>2026-05-21T12:21:54.257Z</time>
      </trkpt>
      <trkpt lat="49.35975" lon="0.97601">
        <ele>19</ele>
        <time>2026-05-21T12:21:58.279Z</time>
      </trkpt>
      <trkpt lat="49.35977" lon="0.97606">
        <ele>19</ele>
        <time>2026-05-21T12:22:02.300Z</time>
      </trkpt>
      <trkpt lat="49.35979" lon="0.97612">
        <ele>19</ele>
        <time>2026-05-21T12:22:06.585Z</time>
      </trkpt>
      <trkpt lat="49.35982" lon="0.97617">
        <ele>19</ele>
        <time>2026-05-21T12:22:11.585Z</time>
      </trkpt>
      <trkpt lat="49.35984" lon="0.9762">
        <ele>19</ele>
        <time>2026-05-21T12:22:15.585Z</time>
      </trkpt>
      <trkpt lat="49.35981" lon="0.97621">
        <ele>19</ele>
        <time>2026-05-21T12:23:14.917Z</time>
      </trkpt>
      <trkpt lat="49.35983" lon="0.9763">
        <ele>17</ele>
        <time>2026-05-21T12:23:19.520Z</time>
      </trkpt>
      <trkpt lat="49.35985" lon="0.97636">
        <ele>17</ele>
        <time>2026-05-21T12:23:23.557Z</time>
      </trkpt>
      <trkpt lat="49.35989" lon="0.9764">
        <ele>18</ele>
        <time>2026-05-21T12:23:27.585Z</time>
      </trkpt>
      <trkpt lat="49.35992" lon="0.97646">
        <ele>18</ele>
        <time>2026-05-21T12:23:32.099Z</time>
      </trkpt>
      <trkpt lat="49.35995" lon="0.97651">
        <ele>18</ele>
        <time>2026-05-21T12:23:36.358Z</time>
      </trkpt>
      <trkpt lat="49.35998" lon="0.97658">
        <ele>16</ele>
        <time>2026-05-21T12:23:40.801Z</time>
      </trkpt>
      <trkpt lat="49.36" lon="0.97665">
        <ele>16</ele>
        <time>2026-05-21T12:23:45.357Z</time>
      </trkpt>
      <trkpt lat="49.36003" lon="0.97672">
        <ele>16</ele>
        <time>2026-05-21T12:23:49.585Z</time>
      </trkpt>
      <trkpt lat="49.36005" lon="0.97678">
        <ele>16</ele>
        <time>2026-05-21T12:23:53.586Z</time>
      </trkpt>
      <trkpt lat="49.36008" lon="0.97684">
        <ele>14</ele>
        <time>2026-05-21T12:23:58.061Z</time>
      </trkpt>
      <trkpt lat="49.36011" lon="0.97689">
        <ele>14</ele>
        <time>2026-05-21T12:24:02.065Z</time>
      </trkpt>
      <trkpt lat="49.36013" lon="0.97695">
        <ele>14</ele>
        <time>2026-05-21T12:24:06.419Z</time>
      </trkpt>
      <trkpt lat="49.36016" lon="0.97701">
        <ele>18</ele>
        <time>2026-05-21T12:24:10.879Z</time>
      </trkpt>
      <trkpt lat="49.36019" lon="0.97708">
        <ele>18</ele>
        <time>2026-05-21T12:24:15.278Z</time>
      </trkpt>
      <trkpt lat="49.36022" lon="0.97715">
        <ele>15</ele>
        <time>2026-05-21T12:24:19.585Z</time>
      </trkpt>
      <trkpt lat="49.36024" lon="0.97721">
        <ele>15</ele>
        <time>2026-05-21T12:24:24.119Z</time>
      </trkpt>
      <trkpt lat="49.36026" lon="0.97728">
        <ele>15</ele>
        <time>2026-05-21T12:24:28.518Z</time>
      </trkpt>
      <trkpt lat="49.36029" lon="0.97735">
        <ele>15</ele>
        <time>2026-05-21T12:24:32.978Z</time>
      </trkpt>
      <trkpt lat="49.36031" lon="0.97742">
        <ele>13</ele>
        <time>2026-05-21T12:24:37.517Z</time>
      </trkpt>
      <trkpt lat="49.36034" lon="0.9775">
        <ele>13</ele>
        <time>2026-05-21T12:24:42.003Z</time>
      </trkpt>
      <trkpt lat="49.36037" lon="0.97757">
        <ele>13</ele>
        <time>2026-05-21T12:24:46.585Z</time>
      </trkpt>
      <trkpt lat="49.3604" lon="0.97764">
        <ele>10</ele>
        <time>2026-05-21T12:24:51.003Z</time>
      </trkpt>
      <trkpt lat="49.3604" lon="0.97771">
        <ele>10</ele>
        <time>2026-05-21T12:24:55.357Z</time>
      </trkpt>
      <trkpt lat="49.36039" lon="0.97778">
        <ele>10</ele>
        <time>2026-05-21T12:24:59.563Z</time>
      </trkpt>
      <trkpt lat="49.3604" lon="0.97785">
        <ele>10</ele>
        <time>2026-05-21T12:25:12.585Z</time>
      </trkpt>
      <trkpt lat="49.36041" lon="0.97786">
        <ele>10</ele>
        <time>2026-05-21T12:25:16.877Z</time>
      </trkpt>
      <trkpt lat="49.36045" lon="0.97789">
        <ele>13</ele>
        <time>2026-05-21T12:25:21.284Z</time>
      </trkpt>
      <trkpt lat="49.36047" lon="0.97795">
        <ele>10</ele>
        <time>2026-05-21T12:25:25.525Z</time>
      </trkpt>
      <trkpt lat="49.36046" lon="0.97802">
        <ele>10</ele>
        <time>2026-05-21T12:25:30.345Z</time>
      </trkpt>
      <trkpt lat="49.36044" lon="0.97808">
        <ele>10</ele>
        <time>2026-05-21T12:25:34.585Z</time>
      </trkpt>
      <trkpt lat="49.36045" lon="0.97815">
        <ele>10</ele>
        <time>2026-05-21T12:25:39.585Z</time>
      </trkpt>
      <trkpt lat="49.36046" lon="0.97821">
        <ele>8</ele>
        <time>2026-05-21T12:25:43.804Z</time>
      </trkpt>
      <trkpt lat="49.36046" lon="0.97828">
        <ele>8</ele>
        <time>2026-05-21T12:25:47.861Z</time>
      </trkpt>
      <trkpt lat="49.36047" lon="0.97836">
        <ele>8</ele>
        <time>2026-05-21T12:25:52.478Z</time>
      </trkpt>
      <trkpt lat="49.36048" lon="0.97842">
        <ele>8</ele>
        <time>2026-05-21T12:25:56.982Z</time>
      </trkpt>
      <trkpt lat="49.36049" lon="0.97849">
        <ele>8</ele>
        <time>2026-05-21T12:26:01.442Z</time>
      </trkpt>
      <trkpt lat="49.36049" lon="0.97856">
        <ele>8</ele>
        <time>2026-05-21T12:26:06.157Z</time>
      </trkpt>
      <trkpt lat="49.36048" lon="0.97862">
        <ele>8</ele>
        <time>2026-05-21T12:28:04.584Z</time>
      </trkpt>
      <trkpt lat="49.36048" lon="0.97864">
        <ele>8</ele>
        <time>2026-05-21T12:28:09.077Z</time>
      </trkpt>
      <trkpt lat="49.36049" lon="0.97873">
        <ele>8</ele>
        <time>2026-05-21T12:28:13.584Z</time>
      </trkpt>
      <trkpt lat="49.36049" lon="0.97879">
        <ele>7</ele>
        <time>2026-05-21T12:28:18.235Z</time>
      </trkpt>
      <trkpt lat="49.3605" lon="0.97887">
        <ele>7</ele>
        <time>2026-05-21T12:28:22.336Z</time>
      </trkpt>
      <trkpt lat="49.36053" lon="0.97902">
        <ele>7</ele>
        <time>2026-05-21T12:29:30.584Z</time>
      </trkpt>
      <trkpt lat="49.36053" lon="0.97902">
        <ele>7</ele>
        <time>2026-05-21T12:29:34.584Z</time>
      </trkpt>
      <trkpt lat="49.36052" lon="0.97906">
        <ele>6</ele>
        <time>2026-05-21T12:29:38.715Z</time>
      </trkpt>
      <trkpt lat="49.36051" lon="0.97914">
        <ele>6</ele>
        <time>2026-05-21T12:29:43.018Z</time>
      </trkpt>
      <trkpt lat="49.36053" lon="0.97921">
        <ele>6</ele>
        <time>2026-05-21T12:29:47.320Z</time>
      </trkpt>
      <trkpt lat="49.36056" lon="0.97922">
        <ele>6</ele>
        <time>2026-05-21T12:29:51.483Z</time>
      </trkpt>
      <trkpt lat="49.36061" lon="0.97923">
        <ele>6</ele>
        <time>2026-05-21T12:29:55.539Z</time>
      </trkpt>
      <trkpt lat="49.36066" lon="0.97923">
        <ele>6</ele>
        <time>2026-05-21T12:30:00.035Z</time>
      </trkpt>
      <trkpt lat="49.36071" lon="0.97922">
        <ele>8</ele>
        <time>2026-05-21T12:30:04.557Z</time>
      </trkpt>
      <trkpt lat="49.36076" lon="0.97922">
        <ele>8</ele>
        <time>2026-05-21T12:30:09.037Z</time>
      </trkpt>
      <trkpt lat="49.3608" lon="0.9792">
        <ele>8</ele>
        <time>2026-05-21T12:30:13.541Z</time>
      </trkpt>
      <trkpt lat="49.36085" lon="0.97921">
        <ele>8</ele>
        <time>2026-05-21T12:30:18.038Z</time>
      </trkpt>
      <trkpt lat="49.36091" lon="0.97923">
        <ele>8</ele>
        <time>2026-05-21T12:30:22.513Z</time>
      </trkpt>
      <trkpt lat="49.36094" lon="0.97918">
        <ele>8</ele>
        <time>2026-05-21T12:30:26.598Z</time>
      </trkpt>
      <trkpt lat="49.36099" lon="0.97918">
        <ele>10</ele>
        <time>2026-05-21T12:30:31.154Z</time>
      </trkpt>
      <trkpt lat="49.36103" lon="0.97918">
        <ele>10</ele>
        <time>2026-05-21T12:30:35.254Z</time>
      </trkpt>
      <trkpt lat="49.36108" lon="0.97917">
        <ele>10</ele>
        <time>2026-05-21T12:30:39.277Z</time>
      </trkpt>
      <trkpt lat="49.36112" lon="0.97916">
        <ele>10</ele>
        <time>2026-05-21T12:30:43.317Z</time>
      </trkpt>
      <trkpt lat="49.36116" lon="0.97917">
        <ele>10</ele>
        <time>2026-05-21T12:30:47.417Z</time>
      </trkpt>
      <trkpt lat="49.36115" lon="0.97924">
        <ele>10</ele>
        <time>2026-05-21T12:30:51.584Z</time>
      </trkpt>
      <trkpt lat="49.36117" lon="0.97927">
        <ele>10</ele>
        <time>2026-05-21T12:30:56.137Z</time>
      </trkpt>
      <trkpt lat="49.36122" lon="0.97926">
        <ele>10</ele>
        <time>2026-05-21T12:31:00.314Z</time>
      </trkpt>
      <trkpt lat="49.36126" lon="0.97923">
        <ele>9</ele>
        <time>2026-05-21T12:31:31.584Z</time>
      </trkpt>
      <trkpt lat="49.36126" lon="0.97923">
        <ele>9</ele>
        <time>2026-05-21T12:31:39.584Z</time>
      </trkpt>
      <trkpt lat="49.36127" lon="0.97923">
        <ele>9</ele>
        <time>2026-05-21T12:31:43.584Z</time>
      </trkpt>
      <trkpt lat="49.36129" lon="0.9792">
        <ele>9</ele>
        <time>2026-05-21T12:31:48.099Z</time>
      </trkpt>
      <trkpt lat="49.36134" lon="0.97914">
        <ele>9</ele>
        <time>2026-05-21T12:31:52.403Z</time>
      </trkpt>
      <trkpt lat="49.36139" lon="0.97908">
        <ele>9</ele>
        <time>2026-05-21T12:32:23.584Z</time>
      </trkpt>
      <trkpt lat="49.36139" lon="0.97909">
        <ele>9</ele>
        <time>2026-05-21T12:32:30.585Z</time>
      </trkpt>
      <trkpt lat="49.36139" lon="0.97908">
        <ele>9</ele>
        <time>2026-05-21T12:32:34.822Z</time>
      </trkpt>
      <trkpt lat="49.36143" lon="0.97904">
        <ele>9</ele>
        <time>2026-05-21T12:32:39.038Z</time>
      </trkpt>
      <trkpt lat="49.36148" lon="0.97902">
        <ele>10</ele>
        <time>2026-05-21T12:32:43.153Z</time>
      </trkpt>
      <trkpt lat="49.36153" lon="0.97901">
        <ele>10</ele>
        <time>2026-05-21T12:32:47.298Z</time>
      </trkpt>
      <trkpt lat="49.36157" lon="0.97901">
        <ele>8</ele>
        <time>2026-05-21T12:32:51.399Z</time>
      </trkpt>
      <trkpt lat="49.36161" lon="0.97898">
        <ele>8</ele>
        <time>2026-05-21T12:32:55.420Z</time>
      </trkpt>
      <trkpt lat="49.36165" lon="0.97896">
        <ele>8</ele>
        <time>2026-05-21T12:32:59.559Z</time>
      </trkpt>
      <trkpt lat="49.36168" lon="0.97892">
        <ele>8</ele>
        <time>2026-05-21T12:33:03.561Z</time>
      </trkpt>
      <trkpt lat="49.36172" lon="0.97888">
        <ele>8</ele>
        <time>2026-05-21T12:33:07.585Z</time>
      </trkpt>
      <trkpt lat="49.36177" lon="0.97885">
        <ele>8</ele>
        <time>2026-05-21T12:33:12.237Z</time>
      </trkpt>
      <trkpt lat="49.36181" lon="0.97885">
        <ele>11</ele>
        <time>2026-05-21T12:33:16.240Z</time>
      </trkpt>
      <trkpt lat="49.36186" lon="0.97884">
        <ele>11</ele>
        <time>2026-05-21T12:33:20.261Z</time>
      </trkpt>
      <trkpt lat="49.36191" lon="0.97881">
        <ele>11</ele>
        <time>2026-05-21T12:33:24.837Z</time>
      </trkpt>
      <trkpt lat="49.36195" lon="0.9788">
        <ele>11</ele>
        <time>2026-05-21T12:33:28.874Z</time>
      </trkpt>
      <trkpt lat="49.362" lon="0.97878">
        <ele>11</ele>
        <time>2026-05-21T12:33:32.977Z</time>
      </trkpt>
      <trkpt lat="49.36204" lon="0.97876">
        <ele>11</ele>
        <time>2026-05-21T12:33:37.058Z</time>
      </trkpt>
      <trkpt lat="49.36208" lon="0.97874">
        <ele>10</ele>
        <time>2026-05-21T12:33:41.194Z</time>
      </trkpt>
      <trkpt lat="49.36212" lon="0.97871">
        <ele>12</ele>
        <time>2026-05-21T12:33:45.321Z</time>
      </trkpt>
      <trkpt lat="49.36217" lon="0.97869">
        <ele>12</ele>
        <time>2026-05-21T12:33:49.474Z</time>
      </trkpt>
      <trkpt lat="49.36221" lon="0.97866">
        <ele>12</ele>
        <time>2026-05-21T12:33:53.574Z</time>
      </trkpt>
      <trkpt lat="49.36226" lon="0.97864">
        <ele>12</ele>
        <time>2026-05-21T12:33:57.584Z</time>
      </trkpt>
      <trkpt lat="49.36229" lon="0.97862">
        <ele>12</ele>
        <time>2026-05-21T12:34:01.777Z</time>
      </trkpt>
      <trkpt lat="49.36234" lon="0.97859">
        <ele>12</ele>
        <time>2026-05-21T12:34:06.017Z</time>
      </trkpt>
      <trkpt lat="49.36238" lon="0.97856">
        <ele>12</ele>
        <time>2026-05-21T12:34:10.100Z</time>
      </trkpt>
      <trkpt lat="49.36243" lon="0.97854">
        <ele>12</ele>
        <time>2026-05-21T12:34:14.297Z</time>
      </trkpt>
      <trkpt lat="49.36247" lon="0.97852">
        <ele>12</ele>
        <time>2026-05-21T12:34:18.415Z</time>
      </trkpt>
      <trkpt lat="49.36251" lon="0.97849">
        <ele>12</ele>
        <time>2026-05-21T12:34:22.514Z</time>
      </trkpt>
      <trkpt lat="49.36256" lon="0.97848">
        <ele>12</ele>
        <time>2026-05-21T12:34:26.583Z</time>
      </trkpt>
      <trkpt lat="49.36257" lon="0.97847">
        <ele>12</ele>
        <time>2026-05-21T12:34:30.900Z</time>
      </trkpt>
      <trkpt lat="49.36263" lon="0.97848">
        <ele>12</ele>
        <time>2026-05-21T12:34:35.194Z</time>
      </trkpt>
      <trkpt lat="49.36264" lon="0.97849">
        <ele>13</ele>
        <time>2026-05-21T12:34:39.717Z</time>
      </trkpt>
      <trkpt lat="49.36269" lon="0.97849">
        <ele>13</ele>
        <time>2026-05-21T12:34:43.939Z</time>
      </trkpt>
      <trkpt lat="49.36273" lon="0.97851">
        <ele>13</ele>
        <time>2026-05-21T12:34:48.040Z</time>
      </trkpt>
      <trkpt lat="49.36274" lon="0.97851">
        <ele>13</ele>
        <time>2026-05-21T12:34:52.583Z</time>
      </trkpt>
      <trkpt lat="49.36278" lon="0.97851">
        <ele>13</ele>
        <time>2026-05-21T12:34:56.583Z</time>
      </trkpt>
      <trkpt lat="49.36283" lon="0.97852">
        <ele>13</ele>
        <time>2026-05-21T12:35:00.737Z</time>
      </trkpt>
      <trkpt lat="49.36288" lon="0.97852">
        <ele>13</ele>
        <time>2026-05-21T12:35:04.740Z</time>
      </trkpt>
      <trkpt lat="49.36293" lon="0.97853">
        <ele>16</ele>
        <time>2026-05-21T12:35:08.779Z</time>
      </trkpt>
      <trkpt lat="49.36297" lon="0.97854">
        <ele>16</ele>
        <time>2026-05-21T12:35:12.898Z</time>
      </trkpt>
      <trkpt lat="49.36302" lon="0.97852">
        <ele>16</ele>
        <time>2026-05-21T12:35:17.402Z</time>
      </trkpt>
      <trkpt lat="49.36312" lon="0.97858">
        <ele>16</ele>
        <time>2026-05-21T12:36:09.583Z</time>
      </trkpt>
      <trkpt lat="49.36313" lon="0.97858">
        <ele>16</ele>
        <time>2026-05-21T12:36:14.583Z</time>
      </trkpt>
      <trkpt lat="49.36313" lon="0.97858">
        <ele>16</ele>
        <time>2026-05-21T12:36:18.584Z</time>
      </trkpt>
      <trkpt lat="49.36314" lon="0.97858">
        <ele>16</ele>
        <time>2026-05-21T12:36:24.583Z</time>
      </trkpt>
      <trkpt lat="49.36314" lon="0.97858">
        <ele>16</ele>
        <time>2026-05-21T12:36:29.583Z</time>
      </trkpt>
      <trkpt lat="49.36315" lon="0.97859">
        <ele>16</ele>
        <time>2026-05-21T12:37:00.358Z</time>
      </trkpt>
      <trkpt lat="49.36319" lon="0.97863">
        <ele>16</ele>
        <time>2026-05-21T12:37:04.583Z</time>
      </trkpt>
      <trkpt lat="49.3632" lon="0.97864">
        <ele>17</ele>
        <time>2026-05-21T12:37:11.037Z</time>
      </trkpt>
      <trkpt lat="49.36322" lon="0.97861">
        <ele>17</ele>
        <time>2026-05-21T12:37:15.275Z</time>
      </trkpt>
      <trkpt lat="49.36328" lon="0.97856">
        <ele>17</ele>
        <time>2026-05-21T12:37:19.858Z</time>
      </trkpt>
      <trkpt lat="49.36328" lon="0.97856">
        <ele>17</ele>
        <time>2026-05-21T12:37:24.516Z</time>
      </trkpt>
      <trkpt lat="49.36329" lon="0.97855">
        <ele>17</ele>
        <time>2026-05-21T12:37:29.577Z</time>
      </trkpt>
      <trkpt lat="49.36336" lon="0.97855">
        <ele>17</ele>
        <time>2026-05-21T12:37:33.751Z</time>
      </trkpt>
      <trkpt lat="49.36341" lon="0.97854">
        <ele>17</ele>
        <time>2026-05-21T12:37:38.117Z</time>
      </trkpt>
      <trkpt lat="49.36345" lon="0.97854">
        <ele>17</ele>
        <time>2026-05-21T12:37:42.217Z</time>
      </trkpt>
      <trkpt lat="49.3635" lon="0.97854">
        <ele>17</ele>
        <time>2026-05-21T12:37:46.319Z</time>
      </trkpt>
      <trkpt lat="49.36355" lon="0.97854">
        <ele>17</ele>
        <time>2026-05-21T12:37:50.482Z</time>
      </trkpt>
      <trkpt lat="49.36359" lon="0.97854">
        <ele>17</ele>
        <time>2026-05-21T12:37:54.582Z</time>
      </trkpt>
      <trkpt lat="49.36371" lon="0.97858">
        <ele>17</ele>
        <time>2026-05-21T12:38:19.583Z</time>
      </trkpt>
      <trkpt lat="49.36372" lon="0.97858">
        <ele>17</ele>
        <time>2026-05-21T12:38:25.583Z</time>
      </trkpt>
      <trkpt lat="49.36372" lon="0.97859">
        <ele>17</ele>
        <time>2026-05-21T12:38:31.583Z</time>
      </trkpt>
      <trkpt lat="49.36372" lon="0.97859">
        <ele>17</ele>
        <time>2026-05-21T12:38:36.583Z</time>
      </trkpt>
      <trkpt lat="49.36373" lon="0.97861">
        <ele>17</ele>
        <time>2026-05-21T12:38:41.305Z</time>
      </trkpt>
      <trkpt lat="49.36376" lon="0.97862">
        <ele>21</ele>
        <time>2026-05-21T12:38:49.583Z</time>
      </trkpt>
      <trkpt lat="49.36377" lon="0.97862">
        <ele>21</ele>
        <time>2026-05-21T12:38:58.583Z</time>
      </trkpt>
      <trkpt lat="49.36378" lon="0.97861">
        <ele>21</ele>
        <time>2026-05-21T12:39:02.807Z</time>
      </trkpt>
      <trkpt lat="49.36383" lon="0.97858">
        <ele>21</ele>
        <time>2026-05-21T12:39:06.945Z</time>
      </trkpt>
      <trkpt lat="49.36386" lon="0.97856">
        <ele>21</ele>
        <time>2026-05-21T12:39:11.107Z</time>
      </trkpt>
      <trkpt lat="49.36389" lon="0.97854">
        <ele>21</ele>
        <time>2026-05-21T12:39:15.148Z</time>
      </trkpt>
      <trkpt lat="49.36394" lon="0.97852">
        <ele>21</ele>
        <time>2026-05-21T12:39:19.414Z</time>
      </trkpt>
      <trkpt lat="49.36398" lon="0.9785">
        <ele>21</ele>
        <time>2026-05-21T12:39:23.507Z</time>
      </trkpt>
      <trkpt lat="49.36402" lon="0.97849">
        <ele>21</ele>
        <time>2026-05-21T12:39:27.564Z</time>
      </trkpt>
      <trkpt lat="49.36406" lon="0.97847">
        <ele>22</ele>
        <time>2026-05-21T12:39:31.583Z</time>
      </trkpt>
      <trkpt lat="49.36411" lon="0.97845">
        <ele>22</ele>
        <time>2026-05-21T12:39:36.205Z</time>
      </trkpt>
      <trkpt lat="49.36416" lon="0.97843">
        <ele>22</ele>
        <time>2026-05-21T12:39:40.262Z</time>
      </trkpt>
      <trkpt lat="49.36421" lon="0.97842">
        <ele>22</ele>
        <time>2026-05-21T12:39:44.285Z</time>
      </trkpt>
      <trkpt lat="49.36426" lon="0.97841">
        <ele>22</ele>
        <time>2026-05-21T12:39:48.887Z</time>
      </trkpt>
      <trkpt lat="49.3643" lon="0.97838">
        <ele>22</ele>
        <time>2026-05-21T12:39:53.444Z</time>
      </trkpt>
      <trkpt lat="49.36436" lon="0.97836">
        <ele>23</ele>
        <time>2026-05-21T12:39:57.984Z</time>
      </trkpt>
      <trkpt lat="49.3644" lon="0.97836">
        <ele>23</ele>
        <time>2026-05-21T12:40:02.006Z</time>
      </trkpt>
      <trkpt lat="49.36445" lon="0.97835">
        <ele>23</ele>
        <time>2026-05-21T12:40:06.046Z</time>
      </trkpt>
      <trkpt lat="49.3645" lon="0.97833">
        <ele>23</ele>
        <time>2026-05-21T12:40:10.147Z</time>
      </trkpt>
      <trkpt lat="49.36455" lon="0.97831">
        <ele>23</ele>
        <time>2026-05-21T12:40:14.161Z</time>
      </trkpt>
      <trkpt lat="49.3646" lon="0.97829">
        <ele>26</ele>
        <time>2026-05-21T12:40:18.468Z</time>
      </trkpt>
      <trkpt lat="49.36463" lon="0.97829">
        <ele>26</ele>
        <time>2026-05-21T12:40:22.582Z</time>
      </trkpt>
      <trkpt lat="49.36464" lon="0.97828">
        <ele>26</ele>
        <time>2026-05-21T12:40:26.943Z</time>
      </trkpt>
      <trkpt lat="49.3647" lon="0.97826">
        <ele>26</ele>
        <time>2026-05-21T12:40:31.229Z</time>
      </trkpt>
      <trkpt lat="49.36475" lon="0.97825">
        <ele>26</ele>
        <time>2026-05-21T12:40:35.419Z</time>
      </trkpt>
      <trkpt lat="49.36479" lon="0.97824">
        <ele>26</ele>
        <time>2026-05-21T12:40:39.582Z</time>
      </trkpt>
      <trkpt lat="49.36484" lon="0.97823">
        <ele>26</ele>
        <time>2026-05-21T12:40:44.129Z</time>
      </trkpt>
      <trkpt lat="49.36488" lon="0.97822">
        <ele>27</ele>
        <time>2026-05-21T12:40:48.529Z</time>
      </trkpt>
      <trkpt lat="49.36493" lon="0.9782">
        <ele>27</ele>
        <time>2026-05-21T12:40:52.744Z</time>
      </trkpt>
      <trkpt lat="49.36497" lon="0.97819">
        <ele>24</ele>
        <time>2026-05-21T12:40:57.030Z</time>
      </trkpt>
      <trkpt lat="49.36502" lon="0.97819">
        <ele>24</ele>
        <time>2026-05-21T12:41:01.244Z</time>
      </trkpt>
      <trkpt lat="49.36506" lon="0.97819">
        <ele>24</ele>
        <time>2026-05-21T12:41:05.503Z</time>
      </trkpt>
      <trkpt lat="49.36511" lon="0.97819">
        <ele>24</ele>
        <time>2026-05-21T12:41:09.745Z</time>
      </trkpt>
      <trkpt lat="49.36516" lon="0.97817">
        <ele>25</ele>
        <time>2026-05-21T12:41:14.004Z</time>
      </trkpt>
      <trkpt lat="49.3652" lon="0.97816">
        <ele>25</ele>
        <time>2026-05-21T12:41:18.184Z</time>
      </trkpt>
      <trkpt lat="49.36525" lon="0.97814">
        <ele>25</ele>
        <time>2026-05-21T12:41:22.365Z</time>
      </trkpt>
      <trkpt lat="49.36529" lon="0.97812">
        <ele>25</ele>
        <time>2026-05-21T12:41:26.483Z</time>
      </trkpt>
      <trkpt lat="49.36533" lon="0.97811">
        <ele>25</ele>
        <time>2026-05-21T12:41:30.589Z</time>
      </trkpt>
      <trkpt lat="49.36538" lon="0.9781">
        <ele>25</ele>
        <time>2026-05-21T12:41:34.843Z</time>
      </trkpt>
      <trkpt lat="49.36542" lon="0.97808">
        <ele>29</ele>
        <time>2026-05-21T12:41:39.023Z</time>
      </trkpt>
      <trkpt lat="49.36546" lon="0.97806">
        <ele>29</ele>
        <time>2026-05-21T12:41:43.208Z</time>
      </trkpt>
      <trkpt lat="49.36551" lon="0.97805">
        <ele>29</ele>
        <time>2026-05-21T12:41:47.419Z</time>
      </trkpt>
      <trkpt lat="49.36554" lon="0.97804">
        <ele>29</ele>
        <time>2026-05-21T12:41:51.589Z</time>
      </trkpt>
      <trkpt lat="49.36558" lon="0.97801">
        <ele>29</ele>
        <time>2026-05-21T12:41:55.852Z</time>
      </trkpt>
      <trkpt lat="49.36563" lon="0.97799">
        <ele>29</ele>
        <time>2026-05-21T12:41:59.989Z</time>
      </trkpt>
      <trkpt lat="49.36567" lon="0.97798">
        <ele>29</ele>
        <time>2026-05-21T12:42:04.546Z</time>
      </trkpt>
      <trkpt lat="49.36568" lon="0.97798">
        <ele>29</ele>
        <time>2026-05-21T12:42:08.587Z</time>
      </trkpt>
      <trkpt lat="49.36568" lon="0.97798">
        <ele>29</ele>
        <time>2026-05-21T12:42:12.586Z</time>
      </trkpt>
      <trkpt lat="49.36572" lon="0.97798">
        <ele>32</ele>
        <time>2026-05-21T12:42:16.827Z</time>
      </trkpt>
      <trkpt lat="49.36578" lon="0.97797">
        <ele>32</ele>
        <time>2026-05-21T12:42:20.993Z</time>
      </trkpt>
      <trkpt lat="49.36579" lon="0.97795">
        <ele>32</ele>
        <time>2026-05-21T12:42:25.289Z</time>
      </trkpt>
      <trkpt lat="49.36585" lon="0.97796">
        <ele>32</ele>
        <time>2026-05-21T12:42:29.809Z</time>
      </trkpt>
      <trkpt lat="49.3659" lon="0.97795">
        <ele>32</ele>
        <time>2026-05-21T12:42:33.831Z</time>
      </trkpt>
      <trkpt lat="49.36595" lon="0.97795">
        <ele>32</ele>
        <time>2026-05-21T12:42:37.888Z</time>
      </trkpt>
      <trkpt lat="49.36598" lon="0.97793">
        <ele>32</ele>
        <time>2026-05-21T12:42:41.910Z</time>
      </trkpt>
      <trkpt lat="49.36602" lon="0.97789">
        <ele>27</ele>
        <time>2026-05-21T12:42:46.468Z</time>
      </trkpt>
      <trkpt lat="49.36605" lon="0.97785">
        <ele>27</ele>
        <time>2026-05-21T12:42:50.568Z</time>
      </trkpt>
      <trkpt lat="49.36608" lon="0.9778">
        <ele>27</ele>
        <time>2026-05-21T12:42:54.580Z</time>
      </trkpt>
      <trkpt lat="49.36612" lon="0.97775">
        <ele>27</ele>
        <time>2026-05-21T12:42:58.809Z</time>
      </trkpt>
      <trkpt lat="49.36615" lon="0.9777">
        <ele>27</ele>
        <time>2026-05-21T12:43:02.885Z</time>
      </trkpt>
      <trkpt lat="49.36619" lon="0.97766">
        <ele>27</ele>
        <time>2026-05-21T12:43:07.108Z</time>
      </trkpt>
      <trkpt lat="49.36622" lon="0.97761">
        <ele>26</ele>
        <time>2026-05-21T12:43:11.261Z</time>
      </trkpt>
      <trkpt lat="49.36624" lon="0.97755">
        <ele>26</ele>
        <time>2026-05-21T12:43:15.502Z</time>
      </trkpt>
      <trkpt lat="49.36627" lon="0.97749">
        <ele>26</ele>
        <time>2026-05-21T12:43:19.587Z</time>
      </trkpt>
      <trkpt lat="49.36629" lon="0.97744">
        <ele>26</ele>
        <time>2026-05-21T12:43:23.766Z</time>
      </trkpt>
      <trkpt lat="49.36632" lon="0.97737">
        <ele>26</ele>
        <time>2026-05-21T12:43:28.108Z</time>
      </trkpt>
      <trkpt lat="49.36634" lon="0.97729">
        <ele>29</ele>
        <time>2026-05-21T12:43:32.534Z</time>
      </trkpt>
      <trkpt lat="49.36637" lon="0.97724">
        <ele>29</ele>
        <time>2026-05-21T12:43:37.073Z</time>
      </trkpt>
      <trkpt lat="49.36639" lon="0.97719">
        <ele>29</ele>
        <time>2026-05-21T12:43:41.580Z</time>
      </trkpt>
      <trkpt lat="49.36641" lon="0.97713">
        <ele>29</ele>
        <time>2026-05-21T12:43:46.109Z</time>
      </trkpt>
      <trkpt lat="49.36643" lon="0.97707">
        <ele>32</ele>
        <time>2026-05-21T12:43:50.425Z</time>
      </trkpt>
      <trkpt lat="49.36643" lon="0.97703">
        <ele>32</ele>
        <time>2026-05-21T12:43:54.829Z</time>
      </trkpt>
      <trkpt lat="49.36646" lon="0.97698">
        <ele>32</ele>
        <time>2026-05-21T12:43:59.228Z</time>
      </trkpt>
      <trkpt lat="49.36648" lon="0.97693">
        <ele>32</ele>
        <time>2026-05-21T12:44:03.584Z</time>
      </trkpt>
      <trkpt lat="49.36652" lon="0.97687">
        <ele>32</ele>
        <time>2026-05-21T12:44:08.229Z</time>
      </trkpt>
      <trkpt lat="49.36655" lon="0.97682">
        <ele>35</ele>
        <time>2026-05-21T12:44:12.808Z</time>
      </trkpt>
      <trkpt lat="49.36657" lon="0.97676">
        <ele>37</ele>
        <time>2026-05-21T12:44:17.348Z</time>
      </trkpt>
      <trkpt lat="49.36658" lon="0.97673">
        <ele>37</ele>
        <time>2026-05-21T12:44:21.563Z</time>
      </trkpt>
      <trkpt lat="49.36661" lon="0.97668">
        <ele>37</ele>
        <time>2026-05-21T12:44:26.041Z</time>
      </trkpt>
      <trkpt lat="49.36663" lon="0.97662">
        <ele>37</ele>
        <time>2026-05-21T12:44:30.584Z</time>
      </trkpt>
      <trkpt lat="49.36665" lon="0.97656">
        <ele>37</ele>
        <time>2026-05-21T12:44:35.310Z</time>
      </trkpt>
      <trkpt lat="49.36665" lon="0.97652">
        <ele>38</ele>
        <time>2026-05-21T12:44:39.578Z</time>
      </trkpt>
      <trkpt lat="49.36667" lon="0.97646">
        <ele>38</ele>
        <time>2026-05-21T12:44:44.206Z</time>
      </trkpt>
      <trkpt lat="49.36669" lon="0.9764">
        <ele>38</ele>
        <time>2026-05-21T12:44:48.727Z</time>
      </trkpt>
      <trkpt lat="49.36671" lon="0.97636">
        <ele>38</ele>
        <time>2026-05-21T12:44:53.390Z</time>
      </trkpt>
      <trkpt lat="49.36671" lon="0.97629">
        <ele>38</ele>
        <time>2026-05-21T12:44:57.578Z</time>
      </trkpt>
      <trkpt lat="49.3667" lon="0.97625">
        <ele>39</ele>
        <time>2026-05-21T12:45:02.184Z</time>
      </trkpt>
      <trkpt lat="49.36673" lon="0.9762">
        <ele>39</ele>
        <time>2026-05-21T12:45:06.579Z</time>
      </trkpt>
      <trkpt lat="49.36676" lon="0.97615">
        <ele>39</ele>
        <time>2026-05-21T12:45:11.230Z</time>
      </trkpt>
      <trkpt lat="49.36678" lon="0.9761">
        <ele>39</ele>
        <time>2026-05-21T12:45:15.426Z</time>
      </trkpt>
      <trkpt lat="49.36682" lon="0.97605">
        <ele>39</ele>
        <time>2026-05-21T12:45:20.003Z</time>
      </trkpt>
      <trkpt lat="49.36684" lon="0.97599">
        <ele>39</ele>
        <time>2026-05-21T12:45:24.506Z</time>
      </trkpt>
      <trkpt lat="49.36688" lon="0.97595">
        <ele>40</ele>
        <time>2026-05-21T12:45:29.170Z</time>
      </trkpt>
      <trkpt lat="49.36691" lon="0.97589">
        <ele>40</ele>
        <time>2026-05-21T12:45:33.587Z</time>
      </trkpt>
      <trkpt lat="49.36694" lon="0.97585">
        <ele>40</ele>
        <time>2026-05-21T12:46:14.163Z</time>
      </trkpt>
      <trkpt lat="49.36695" lon="0.97584">
        <ele>40</ele>
        <time>2026-05-21T12:46:18.577Z</time>
      </trkpt>
      <trkpt lat="49.36697" lon="0.97583">
        <ele>40</ele>
        <time>2026-05-21T12:46:22.577Z</time>
      </trkpt>
      <trkpt lat="49.367" lon="0.97579">
        <ele>40</ele>
        <time>2026-05-21T12:46:26.943Z</time>
      </trkpt>
      <trkpt lat="49.36703" lon="0.97573">
        <ele>40</ele>
        <time>2026-05-21T12:46:31.484Z</time>
      </trkpt>
      <trkpt lat="49.36706" lon="0.97567">
        <ele>42</ele>
        <time>2026-05-21T12:46:35.962Z</time>
      </trkpt>
      <trkpt lat="49.3671" lon="0.9756">
        <ele>43</ele>
        <time>2026-05-21T12:46:40.423Z</time>
      </trkpt>
      <trkpt lat="49.36713" lon="0.97553">
        <ele>43</ele>
        <time>2026-05-21T12:46:45.006Z</time>
      </trkpt>
      <trkpt lat="49.36715" lon="0.97547">
        <ele>43</ele>
        <time>2026-05-21T12:46:49.468Z</time>
      </trkpt>
      <trkpt lat="49.36725" lon="0.97537">
        <ele>44</ele>
        <time>2026-05-21T12:47:34.842Z</time>
      </trkpt>
      <trkpt lat="49.36729" lon="0.97531">
        <ele>44</ele>
        <time>2026-05-21T12:47:39.505Z</time>
      </trkpt>
      <trkpt lat="49.3673" lon="0.97525">
        <ele>44</ele>
        <time>2026-05-21T12:47:43.843Z</time>
      </trkpt>
      <trkpt lat="49.36733" lon="0.97519">
        <ele>44</ele>
        <time>2026-05-21T12:47:48.242Z</time>
      </trkpt>
      <trkpt lat="49.36734" lon="0.97514">
        <ele>46</ele>
        <time>2026-05-21T12:47:52.577Z</time>
      </trkpt>
      <trkpt lat="49.36734" lon="0.97514">
        <ele>44</ele>
        <time>2026-05-21T12:47:57.577Z</time>
      </trkpt>
      <trkpt lat="49.36734" lon="0.97513">
        <ele>46</ele>
        <time>2026-05-21T12:48:02.063Z</time>
      </trkpt>
      <trkpt lat="49.36737" lon="0.97506">
        <ele>47</ele>
        <time>2026-05-21T12:48:06.182Z</time>
      </trkpt>
      <trkpt lat="49.3674" lon="0.97498">
        <ele>47</ele>
        <time>2026-05-21T12:48:10.722Z</time>
      </trkpt>
      <trkpt lat="49.36743" lon="0.97492">
        <ele>47</ele>
        <time>2026-05-21T12:48:14.744Z</time>
      </trkpt>
      <trkpt lat="49.36746" lon="0.97486">
        <ele>47</ele>
        <time>2026-05-21T12:48:18.862Z</time>
      </trkpt>
      <trkpt lat="49.36748" lon="0.97479">
        <ele>48</ele>
        <time>2026-05-21T12:48:22.928Z</time>
      </trkpt>
      <trkpt lat="49.36752" lon="0.97473">
        <ele>48</ele>
        <time>2026-05-21T12:48:27.485Z</time>
      </trkpt>
      <trkpt lat="49.36755" lon="0.97467">
        <ele>48</ele>
        <time>2026-05-21T12:48:31.541Z</time>
      </trkpt>
      <trkpt lat="49.36758" lon="0.97462">
        <ele>48</ele>
        <time>2026-05-21T12:48:35.547Z</time>
      </trkpt>
      <trkpt lat="49.36761" lon="0.97455">
        <ele>48</ele>
        <time>2026-05-21T12:48:39.569Z</time>
      </trkpt>
      <trkpt lat="49.36763" lon="0.97449">
        <ele>48</ele>
        <time>2026-05-21T12:48:43.563Z</time>
      </trkpt>
      <trkpt lat="49.36767" lon="0.97444">
        <ele>49</ele>
        <time>2026-05-21T12:48:47.585Z</time>
      </trkpt>
      <trkpt lat="49.36771" lon="0.97438">
        <ele>49</ele>
        <time>2026-05-21T12:48:52.107Z</time>
      </trkpt>
      <trkpt lat="49.36774" lon="0.97432">
        <ele>49</ele>
        <time>2026-05-21T12:48:56.577Z</time>
      </trkpt>
      <trkpt lat="49.36778" lon="0.97426">
        <ele>49</ele>
        <time>2026-05-21T12:49:00.721Z</time>
      </trkpt>
      <trkpt lat="49.3678" lon="0.97419">
        <ele>49</ele>
        <time>2026-05-21T12:49:05.228Z</time>
      </trkpt>
      <trkpt lat="49.36784" lon="0.97413">
        <ele>49</ele>
        <time>2026-05-21T12:49:09.767Z</time>
      </trkpt>
      <trkpt lat="49.36787" lon="0.97407">
        <ele>49</ele>
        <time>2026-05-21T12:49:13.805Z</time>
      </trkpt>
      <trkpt lat="49.3679" lon="0.97402">
        <ele>50</ele>
        <time>2026-05-21T12:49:18.047Z</time>
      </trkpt>
      <trkpt lat="49.36793" lon="0.97395">
        <ele>49</ele>
        <time>2026-05-21T12:49:22.165Z</time>
      </trkpt>
      <trkpt lat="49.36796" lon="0.97389">
        <ele>49</ele>
        <time>2026-05-21T12:49:26.577Z</time>
      </trkpt>
      <trkpt lat="49.368" lon="0.97382">
        <ele>49</ele>
        <time>2026-05-21T12:49:31.087Z</time>
      </trkpt>
      <trkpt lat="49.36803" lon="0.97378">
        <ele>49</ele>
        <time>2026-05-21T12:49:35.125Z</time>
      </trkpt>
      <trkpt lat="49.36807" lon="0.97372">
        <ele>50</ele>
        <time>2026-05-21T12:49:39.164Z</time>
      </trkpt>
      <trkpt lat="49.36808" lon="0.97366">
        <ele>50</ele>
        <time>2026-05-21T12:49:43.247Z</time>
      </trkpt>
      <trkpt lat="49.36811" lon="0.97362">
        <ele>50</ele>
        <time>2026-05-21T12:49:47.462Z</time>
      </trkpt>
      <trkpt lat="49.36815" lon="0.97358">
        <ele>50</ele>
        <time>2026-05-21T12:49:51.577Z</time>
      </trkpt>
      <trkpt lat="49.36819" lon="0.9736">
        <ele>50</ele>
        <time>2026-05-21T12:52:59.577Z</time>
      </trkpt>
      <trkpt lat="49.3682" lon="0.97358">
        <ele>50</ele>
        <time>2026-05-21T12:53:03.577Z</time>
      </trkpt>
      <trkpt lat="49.36824" lon="0.97353">
        <ele>50</ele>
        <time>2026-05-21T12:53:08.577Z</time>
      </trkpt>
      <trkpt lat="49.36827" lon="0.97349">
        <ele>50</ele>
        <time>2026-05-21T12:53:12.577Z</time>
      </trkpt>
      <trkpt lat="49.36831" lon="0.97344">
        <ele>51</ele>
        <time>2026-05-21T12:53:17.577Z</time>
      </trkpt>
      <trkpt lat="49.36834" lon="0.9734">
        <ele>51</ele>
        <time>2026-05-21T12:53:21.577Z</time>
      </trkpt>
      <trkpt lat="49.36837" lon="0.97335">
        <ele>51</ele>
        <time>2026-05-21T12:53:26.577Z</time>
      </trkpt>
      <trkpt lat="49.36841" lon="0.97329">
        <ele>51</ele>
        <time>2026-05-21T12:53:31.577Z</time>
      </trkpt>
      <trkpt lat="49.36845" lon="0.97324">
        <ele>51</ele>
        <time>2026-05-21T12:53:36.204Z</time>
      </trkpt>
      <trkpt lat="49.36849" lon="0.97319">
        <ele>53</ele>
        <time>2026-05-21T12:53:40.243Z</time>
      </trkpt>
      <trkpt lat="49.36853" lon="0.97317">
        <ele>53</ele>
        <time>2026-05-21T12:53:44.577Z</time>
      </trkpt>
      <trkpt lat="49.36857" lon="0.97313">
        <ele>53</ele>
        <time>2026-05-21T12:53:49.103Z</time>
      </trkpt>
      <trkpt lat="49.3686" lon="0.97309">
        <ele>53</ele>
        <time>2026-05-21T12:53:53.441Z</time>
      </trkpt>
      <trkpt lat="49.36863" lon="0.97304">
        <ele>53</ele>
        <time>2026-05-21T12:53:57.927Z</time>
      </trkpt>
      <trkpt lat="49.36867" lon="0.973">
        <ele>53</ele>
        <time>2026-05-21T12:54:02.283Z</time>
      </trkpt>
      <trkpt lat="49.3687" lon="0.97295">
        <ele>53</ele>
        <time>2026-05-21T12:54:06.805Z</time>
      </trkpt>
      <trkpt lat="49.36875" lon="0.97291">
        <ele>53</ele>
        <time>2026-05-21T12:54:11.267Z</time>
      </trkpt>
      <trkpt lat="49.36879" lon="0.97288">
        <ele>53</ele>
        <time>2026-05-21T12:54:15.787Z</time>
      </trkpt>
      <trkpt lat="49.36883" lon="0.97285">
        <ele>53</ele>
        <time>2026-05-21T12:54:19.888Z</time>
      </trkpt>
      <trkpt lat="49.36888" lon="0.97282">
        <ele>53</ele>
        <time>2026-05-21T12:54:24.542Z</time>
      </trkpt>
      <trkpt lat="49.36892" lon="0.97279">
        <ele>53</ele>
        <time>2026-05-21T12:54:29.081Z</time>
      </trkpt>
      <trkpt lat="49.36896" lon="0.97276">
        <ele>53</ele>
        <time>2026-05-21T12:54:33.588Z</time>
      </trkpt>
      <trkpt lat="49.369" lon="0.97273">
        <ele>53</ele>
        <time>2026-05-21T12:54:37.577Z</time>
      </trkpt>
      <trkpt lat="49.36904" lon="0.97271">
        <ele>52</ele>
        <time>2026-05-21T12:54:41.823Z</time>
      </trkpt>
      <trkpt lat="49.36908" lon="0.97268">
        <ele>52</ele>
        <time>2026-05-21T12:54:46.362Z</time>
      </trkpt>
      <trkpt lat="49.36912" lon="0.97265">
        <ele>52</ele>
        <time>2026-05-21T12:54:50.903Z</time>
      </trkpt>
      <trkpt lat="49.36917" lon="0.97263">
        <ele>51</ele>
        <time>2026-05-21T12:54:55.347Z</time>
      </trkpt>
      <trkpt lat="49.36921" lon="0.9726">
        <ele>51</ele>
        <time>2026-05-21T12:54:59.744Z</time>
      </trkpt>
      <trkpt lat="49.36926" lon="0.97258">
        <ele>51</ele>
        <time>2026-05-21T12:55:04.302Z</time>
      </trkpt>
      <trkpt lat="49.36931" lon="0.97258">
        <ele>50</ele>
        <time>2026-05-21T12:55:08.577Z</time>
      </trkpt>
      <trkpt lat="49.36935" lon="0.97257">
        <ele>50</ele>
        <time>2026-05-21T12:55:13.161Z</time>
      </trkpt>
      <trkpt lat="49.3694" lon="0.97255">
        <ele>50</ele>
        <time>2026-05-21T12:55:17.166Z</time>
      </trkpt>
      <trkpt lat="49.36945" lon="0.97254">
        <ele>50</ele>
        <time>2026-05-21T12:55:21.577Z</time>
      </trkpt>
      <trkpt lat="49.36949" lon="0.97253">
        <ele>50</ele>
        <time>2026-05-21T12:55:25.928Z</time>
      </trkpt>
      <trkpt lat="49.36954" lon="0.97252">
        <ele>50</ele>
        <time>2026-05-21T12:55:30.003Z</time>
      </trkpt>
      <trkpt lat="49.36958" lon="0.97251">
        <ele>50</ele>
        <time>2026-05-21T12:55:34.247Z</time>
      </trkpt>
      <trkpt lat="49.36962" lon="0.97251">
        <ele>47</ele>
        <time>2026-05-21T12:55:38.907Z</time>
      </trkpt>
      <trkpt lat="49.36967" lon="0.9725">
        <ele>47</ele>
        <time>2026-05-21T12:55:43.402Z</time>
      </trkpt>
      <trkpt lat="49.36971" lon="0.97249">
        <ele>47</ele>
        <time>2026-05-21T12:55:47.468Z</time>
      </trkpt>
      <trkpt lat="49.36976" lon="0.97248">
        <ele>47</ele>
        <time>2026-05-21T12:55:51.507Z</time>
      </trkpt>
      <trkpt lat="49.3698" lon="0.97248">
        <ele>47</ele>
        <time>2026-05-21T12:55:56.143Z</time>
      </trkpt>
      <trkpt lat="49.36985" lon="0.97247">
        <ele>47</ele>
        <time>2026-05-21T12:56:00.577Z</time>
      </trkpt>
      <trkpt lat="49.3699" lon="0.97247">
        <ele>44</ele>
        <time>2026-05-21T12:56:04.766Z</time>
      </trkpt>
      <trkpt lat="49.36994" lon="0.97246">
        <ele>44</ele>
        <time>2026-05-21T12:56:08.901Z</time>
      </trkpt>
      <trkpt lat="49.36998" lon="0.97246">
        <ele>44</ele>
        <time>2026-05-21T12:56:13.002Z</time>
      </trkpt>
      <trkpt lat="49.37003" lon="0.97244">
        <ele>44</ele>
        <time>2026-05-21T12:56:17.542Z</time>
      </trkpt>
      <trkpt lat="49.37007" lon="0.97243">
        <ele>44</ele>
        <time>2026-05-21T12:56:21.548Z</time>
      </trkpt>
      <trkpt lat="49.37011" lon="0.97242">
        <ele>44</ele>
        <time>2026-05-21T12:56:25.567Z</time>
      </trkpt>
      <trkpt lat="49.37016" lon="0.97242">
        <ele>43</ele>
        <time>2026-05-21T12:56:29.577Z</time>
      </trkpt>
      <trkpt lat="49.37021" lon="0.97241">
        <ele>43</ele>
        <time>2026-05-21T12:56:34.164Z</time>
      </trkpt>
      <trkpt lat="49.37026" lon="0.97239">
        <ele>43</ele>
        <time>2026-05-21T12:56:38.361Z</time>
      </trkpt>
      <trkpt lat="49.3703" lon="0.97238">
        <ele>43</ele>
        <time>2026-05-21T12:56:42.462Z</time>
      </trkpt>
      <trkpt lat="49.37035" lon="0.97238">
        <ele>43</ele>
        <time>2026-05-21T12:56:46.577Z</time>
      </trkpt>
      <trkpt lat="49.3704" lon="0.97238">
        <ele>43</ele>
        <time>2026-05-21T12:56:51.207Z</time>
      </trkpt>
      <trkpt lat="49.37044" lon="0.97238">
        <ele>43</ele>
        <time>2026-05-21T12:56:55.142Z</time>
      </trkpt>
      <trkpt lat="49.37049" lon="0.97239">
        <ele>43</ele>
        <time>2026-05-21T12:56:59.347Z</time>
      </trkpt>
      <trkpt lat="49.37054" lon="0.97238">
        <ele>43</ele>
        <time>2026-05-21T12:57:03.421Z</time>
      </trkpt>
      <trkpt lat="49.37058" lon="0.97238">
        <ele>43</ele>
        <time>2026-05-21T12:57:07.548Z</time>
      </trkpt>
      <trkpt lat="49.37062" lon="0.97238">
        <ele>43</ele>
        <time>2026-05-21T12:57:11.577Z</time>
      </trkpt>
      <trkpt lat="49.37067" lon="0.97238">
        <ele>43</ele>
        <time>2026-05-21T12:57:15.864Z</time>
      </trkpt>
      <trkpt lat="49.37071" lon="0.97239">
        <ele>45</ele>
        <time>2026-05-21T12:57:20.061Z</time>
      </trkpt>
      <trkpt lat="49.37075" lon="0.97239">
        <ele>45</ele>
        <time>2026-05-21T12:57:24.119Z</time>
      </trkpt>
      <trkpt lat="49.3708" lon="0.97239">
        <ele>45</ele>
        <time>2026-05-21T12:57:28.386Z</time>
      </trkpt>
      <trkpt lat="49.37085" lon="0.97238">
        <ele>45</ele>
        <time>2026-05-21T12:57:32.582Z</time>
      </trkpt>
      <trkpt lat="49.3709" lon="0.97238">
        <ele>45</ele>
        <time>2026-05-21T12:57:36.807Z</time>
      </trkpt>
      <trkpt lat="49.37094" lon="0.97238">
        <ele>45</ele>
        <time>2026-05-21T12:57:41.064Z</time>
      </trkpt>
      <trkpt lat="49.37099" lon="0.97238">
        <ele>50</ele>
        <time>2026-05-21T12:57:45.341Z</time>
      </trkpt>
      <trkpt lat="49.37104" lon="0.97237">
        <ele>50</ele>
        <time>2026-05-21T12:57:49.577Z</time>
      </trkpt>
      <trkpt lat="49.37107" lon="0.97234">
        <ele>48</ele>
        <time>2026-05-21T12:57:54.122Z</time>
      </trkpt>
      <trkpt lat="49.37111" lon="0.97221">
        <ele>48</ele>
        <time>2026-05-21T12:58:43.577Z</time>
      </trkpt>
      <trkpt lat="49.37112" lon="0.97219">
        <ele>48</ele>
        <time>2026-05-21T12:58:48.729Z</time>
      </trkpt>
      <trkpt lat="49.37115" lon="0.97211">
        <ele>48</ele>
        <time>2026-05-21T12:58:53.023Z</time>
      </trkpt>
      <trkpt lat="49.37116" lon="0.97203">
        <ele>48</ele>
        <time>2026-05-21T12:58:57.186Z</time>
      </trkpt>
      <trkpt lat="49.37117" lon="0.97196">
        <ele>48</ele>
        <time>2026-05-21T12:59:01.577Z</time>
      </trkpt>
      <trkpt lat="49.37118" lon="0.97189">
        <ele>48</ele>
        <time>2026-05-21T12:59:06.107Z</time>
      </trkpt>
      <trkpt lat="49.37119" lon="0.97183">
        <ele>48</ele>
        <time>2026-05-21T12:59:10.382Z</time>
      </trkpt>
      <trkpt lat="49.37119" lon="0.97177">
        <ele>48</ele>
        <time>2026-05-21T12:59:14.577Z</time>
      </trkpt>
      <trkpt lat="49.37119" lon="0.9717">
        <ele>48</ele>
        <time>2026-05-21T12:59:19.163Z</time>
      </trkpt>
      <trkpt lat="49.37118" lon="0.97164">
        <ele>48</ele>
        <time>2026-05-21T12:59:23.577Z</time>
      </trkpt>
      <trkpt lat="49.37118" lon="0.97158">
        <ele>48</ele>
        <time>2026-05-21T12:59:28.023Z</time>
      </trkpt>
      <trkpt lat="49.37118" lon="0.97151">
        <ele>50</ele>
        <time>2026-05-21T12:59:32.308Z</time>
      </trkpt>
      <trkpt lat="49.37117" lon="0.97146">
        <ele>50</ele>
        <time>2026-05-21T12:59:36.383Z</time>
      </trkpt>
      <trkpt lat="49.37117" lon="0.97141">
        <ele>50</ele>
        <time>2026-05-21T12:59:40.577Z</time>
      </trkpt>
      <trkpt lat="49.37118" lon="0.97133">
        <ele>50</ele>
        <time>2026-05-21T12:59:45.067Z</time>
      </trkpt>
      <trkpt lat="49.37118" lon="0.97126">
        <ele>50</ele>
        <time>2026-05-21T12:59:49.483Z</time>
      </trkpt>
      <trkpt lat="49.37118" lon="0.97122">
        <ele>50</ele>
        <time>2026-05-21T12:59:53.583Z</time>
      </trkpt>
      <trkpt lat="49.37119" lon="0.97114">
        <ele>50</ele>
        <time>2026-05-21T12:59:57.903Z</time>
      </trkpt>
      <trkpt lat="49.37118" lon="0.9711">
        <ele>50</ele>
        <time>2026-05-21T13:00:02.364Z</time>
      </trkpt>
      <trkpt lat="49.37119" lon="0.97103">
        <ele>50</ele>
        <time>2026-05-21T13:00:06.577Z</time>
      </trkpt>
      <trkpt lat="49.3712" lon="0.97096">
        <ele>50</ele>
        <time>2026-05-21T13:00:11.023Z</time>
      </trkpt>
      <trkpt lat="49.3712" lon="0.97088">
        <ele>50</ele>
        <time>2026-05-21T13:00:15.447Z</time>
      </trkpt>
      <trkpt lat="49.37121" lon="0.97081">
        <ele>50</ele>
        <time>2026-05-21T13:00:19.767Z</time>
      </trkpt>
      <trkpt lat="49.37121" lon="0.97075">
        <ele>50</ele>
        <time>2026-05-21T13:00:24.122Z</time>
      </trkpt>
      <trkpt lat="49.37122" lon="0.97068">
        <ele>51</ele>
        <time>2026-05-21T13:00:28.248Z</time>
      </trkpt>
      <trkpt lat="49.37122" lon="0.97061">
        <ele>51</ele>
        <time>2026-05-21T13:00:32.588Z</time>
      </trkpt>
      <trkpt lat="49.37123" lon="0.97055">
        <ele>51</ele>
        <time>2026-05-21T13:00:36.942Z</time>
      </trkpt>
      <trkpt lat="49.37123" lon="0.97049">
        <ele>51</ele>
        <time>2026-05-21T13:00:41.577Z</time>
      </trkpt>
      <trkpt lat="49.37123" lon="0.97046">
        <ele>51</ele>
        <time>2026-05-21T13:00:46.577Z</time>
      </trkpt>
      <trkpt lat="49.37123" lon="0.97046">
        <ele>51</ele>
        <time>2026-05-21T13:00:53.388Z</time>
      </trkpt>
      <trkpt lat="49.37126" lon="0.97041">
        <ele>55</ele>
        <time>2026-05-21T13:00:57.822Z</time>
      </trkpt>
      <trkpt lat="49.37128" lon="0.97037">
        <ele>55</ele>
        <time>2026-05-21T13:01:02.081Z</time>
      </trkpt>
      <trkpt lat="49.37132" lon="0.97032">
        <ele>55</ele>
        <time>2026-05-21T13:01:06.577Z</time>
      </trkpt>
      <trkpt lat="49.37139" lon="0.97033">
        <ele>55</ele>
        <time>2026-05-21T13:02:02.467Z</time>
      </trkpt>
      <trkpt lat="49.3714" lon="0.97033">
        <ele>55</ele>
        <time>2026-05-21T13:02:07.577Z</time>
      </trkpt>
      <trkpt lat="49.3714" lon="0.97033">
        <ele>55</ele>
        <time>2026-05-21T13:02:11.577Z</time>
      </trkpt>
      <trkpt lat="49.37143" lon="0.9703">
        <ele>55</ele>
        <time>2026-05-21T13:02:16.085Z</time>
      </trkpt>
      <trkpt lat="49.37148" lon="0.97027">
        <ele>55</ele>
        <time>2026-05-21T13:02:20.484Z</time>
      </trkpt>
      <trkpt lat="49.37154" lon="0.97027">
        <ele>58</ele>
        <time>2026-05-21T13:02:24.883Z</time>
      </trkpt>
      <trkpt lat="49.37159" lon="0.97026">
        <ele>58</ele>
        <time>2026-05-21T13:02:29.467Z</time>
      </trkpt>
      <trkpt lat="49.37163" lon="0.97023">
        <ele>58</ele>
        <time>2026-05-21T13:02:33.945Z</time>
      </trkpt>
      <trkpt lat="49.37167" lon="0.97021">
        <ele>58</ele>
        <time>2026-05-21T13:02:38.361Z</time>
      </trkpt>
      <trkpt lat="49.37171" lon="0.9702">
        <ele>58</ele>
        <time>2026-05-21T13:02:42.462Z</time>
      </trkpt>
      <trkpt lat="49.37175" lon="0.97018">
        <ele>58</ele>
        <time>2026-05-21T13:02:47.168Z</time>
      </trkpt>
      <trkpt lat="49.3718" lon="0.97017">
        <ele>58</ele>
        <time>2026-05-21T13:02:51.577Z</time>
      </trkpt>
      <trkpt lat="49.37184" lon="0.97016">
        <ele>62</ele>
        <time>2026-05-21T13:02:55.984Z</time>
      </trkpt>
      <trkpt lat="49.37188" lon="0.97015">
        <ele>62</ele>
        <time>2026-05-21T13:03:00.049Z</time>
      </trkpt>
      <trkpt lat="49.37191" lon="0.97016">
        <ele>62</ele>
        <time>2026-05-21T13:03:04.577Z</time>
      </trkpt>
      <trkpt lat="49.37195" lon="0.97015">
        <ele>62</ele>
        <time>2026-05-21T13:03:08.904Z</time>
      </trkpt>
      <trkpt lat="49.37199" lon="0.9701">
        <ele>64</ele>
        <time>2026-05-21T13:03:13.488Z</time>
      </trkpt>
      <trkpt lat="49.37203" lon="0.97012">
        <ele>64</ele>
        <time>2026-05-21T13:03:17.577Z</time>
      </trkpt>
      <trkpt lat="49.37208" lon="0.97011">
        <ele>64</ele>
        <time>2026-05-21T13:03:21.865Z</time>
      </trkpt>
      <trkpt lat="49.37213" lon="0.97012">
        <ele>67</ele>
        <time>2026-05-21T13:03:26.088Z</time>
      </trkpt>
      <trkpt lat="49.37217" lon="0.97009">
        <ele>67</ele>
        <time>2026-05-21T13:03:30.462Z</time>
      </trkpt>
      <trkpt lat="49.37221" lon="0.97006">
        <ele>67</ele>
        <time>2026-05-21T13:03:34.577Z</time>
      </trkpt>
      <trkpt lat="49.37225" lon="0.97003">
        <ele>67</ele>
        <time>2026-05-21T13:03:39.022Z</time>
      </trkpt>
      <trkpt lat="49.3723" lon="0.97002">
        <ele>67</ele>
        <time>2026-05-21T13:03:43.107Z</time>
      </trkpt>
      <trkpt lat="49.37233" lon="0.97003">
        <ele>67</ele>
        <time>2026-05-21T13:03:47.144Z</time>
      </trkpt>
      <trkpt lat="49.37235" lon="0.97005">
        <ele>67</ele>
        <time>2026-05-21T13:03:51.577Z</time>
      </trkpt>
      <trkpt lat="49.37239" lon="0.97003">
        <ele>69</ele>
        <time>2026-05-21T13:03:55.577Z</time>
      </trkpt>
      <trkpt lat="49.37245" lon="0.97004">
        <ele>69</ele>
        <time>2026-05-21T13:04:00.061Z</time>
      </trkpt>
      <trkpt lat="49.3725" lon="0.97003">
        <ele>69</ele>
        <time>2026-05-21T13:04:04.067Z</time>
      </trkpt>
      <trkpt lat="49.37255" lon="0.97001">
        <ele>69</ele>
        <time>2026-05-21T13:04:08.543Z</time>
      </trkpt>
      <trkpt lat="49.37259" lon="0.97">
        <ele>69</ele>
        <time>2026-05-21T13:04:12.970Z</time>
      </trkpt>
      <trkpt lat="49.37264" lon="0.96997">
        <ele>69</ele>
        <time>2026-05-21T13:04:17.465Z</time>
      </trkpt>
      <trkpt lat="49.37268" lon="0.96994">
        <ele>70</ele>
        <time>2026-05-21T13:04:21.907Z</time>
      </trkpt>
      <trkpt lat="49.37272" lon="0.96991">
        <ele>70</ele>
        <time>2026-05-21T13:04:39.577Z</time>
      </trkpt>
      <trkpt lat="49.37272" lon="0.96993">
        <ele>70</ele>
        <time>2026-05-21T13:04:44.141Z</time>
      </trkpt>
      <trkpt lat="49.37268" lon="0.96993">
        <ele>70</ele>
        <time>2026-05-21T13:04:48.462Z</time>
      </trkpt>
      <trkpt lat="49.37265" lon="0.96987">
        <ele>70</ele>
        <time>2026-05-21T13:04:52.967Z</time>
      </trkpt>
      <trkpt lat="49.37264" lon="0.96978">
        <ele>71</ele>
        <time>2026-05-21T13:04:57.102Z</time>
      </trkpt>
      <trkpt lat="49.37265" lon="0.96975">
        <ele>71</ele>
        <time>2026-05-21T13:05:01.123Z</time>
      </trkpt>
      <trkpt lat="49.37265" lon="0.96969">
        <ele>71</ele>
        <time>2026-05-21T13:05:05.162Z</time>
      </trkpt>
      <trkpt lat="49.37265" lon="0.96964">
        <ele>71</ele>
        <time>2026-05-21T13:05:09.245Z</time>
      </trkpt>
      <trkpt lat="49.37267" lon="0.96953">
        <ele>71</ele>
        <time>2026-05-21T13:05:13.907Z</time>
      </trkpt>
      <trkpt lat="49.37268" lon="0.96945">
        <ele>71</ele>
        <time>2026-05-21T13:05:18.262Z</time>
      </trkpt>
      <trkpt lat="49.37269" lon="0.96937">
        <ele>71</ele>
        <time>2026-05-21T13:05:22.302Z</time>
      </trkpt>
      <trkpt lat="49.3727" lon="0.96929">
        <ele>71</ele>
        <time>2026-05-21T13:05:26.886Z</time>
      </trkpt>
      <trkpt lat="49.3727" lon="0.96923">
        <ele>71</ele>
        <time>2026-05-21T13:05:31.065Z</time>
      </trkpt>
      <trkpt lat="49.37271" lon="0.96904">
        <ele>71</ele>
        <time>2026-05-21T13:05:48.577Z</time>
      </trkpt>
      <trkpt lat="49.37272" lon="0.96899">
        <ele>70</ele>
        <time>2026-05-21T13:05:52.964Z</time>
      </trkpt>
      <trkpt lat="49.37274" lon="0.96893">
        <ele>70</ele>
        <time>2026-05-21T13:05:57.302Z</time>
      </trkpt>
      <trkpt lat="49.37276" lon="0.96888">
        <ele>70</ele>
        <time>2026-05-21T13:06:01.527Z</time>
      </trkpt>
      <trkpt lat="49.37276" lon="0.9688">
        <ele>70</ele>
        <time>2026-05-21T13:06:05.689Z</time>
      </trkpt>
      <trkpt lat="49.37276" lon="0.96878">
        <ele>70</ele>
        <time>2026-05-21T13:06:10.577Z</time>
      </trkpt>
      <trkpt lat="49.37275" lon="0.96878">
        <ele>70</ele>
        <time>2026-05-21T13:06:15.577Z</time>
      </trkpt>
      <trkpt lat="49.37275" lon="0.96873">
        <ele>70</ele>
        <time>2026-05-21T13:06:20.190Z</time>
      </trkpt>
      <trkpt lat="49.37275" lon="0.96867">
        <ele>70</ele>
        <time>2026-05-21T13:06:24.545Z</time>
      </trkpt>
      <trkpt lat="49.37276" lon="0.96862">
        <ele>70</ele>
        <time>2026-05-21T13:06:28.568Z</time>
      </trkpt>
      <trkpt lat="49.37278" lon="0.96855">
        <ele>70</ele>
        <time>2026-05-21T13:06:32.667Z</time>
      </trkpt>
      <trkpt lat="49.37279" lon="0.96849">
        <ele>70</ele>
        <time>2026-05-21T13:06:37.303Z</time>
      </trkpt>
      <trkpt lat="49.37278" lon="0.96844">
        <ele>71</ele>
        <time>2026-05-21T13:06:41.424Z</time>
      </trkpt>
      <trkpt lat="49.37277" lon="0.96837">
        <ele>71</ele>
        <time>2026-05-21T13:06:45.522Z</time>
      </trkpt>
      <trkpt lat="49.37279" lon="0.9683">
        <ele>71</ele>
        <time>2026-05-21T13:06:49.577Z</time>
      </trkpt>
      <trkpt lat="49.37279" lon="0.96823">
        <ele>71</ele>
        <time>2026-05-21T13:06:53.987Z</time>
      </trkpt>
      <trkpt lat="49.37278" lon="0.96814">
        <ele>71</ele>
        <time>2026-05-21T13:06:58.368Z</time>
      </trkpt>
      <trkpt lat="49.37278" lon="0.96807">
        <ele>71</ele>
        <time>2026-05-21T13:07:02.442Z</time>
      </trkpt>
      <trkpt lat="49.37278" lon="0.96802">
        <ele>71</ele>
        <time>2026-05-21T13:07:06.577Z</time>
      </trkpt>
      <trkpt lat="49.37279" lon="0.96794">
        <ele>71</ele>
        <time>2026-05-21T13:07:11.004Z</time>
      </trkpt>
      <trkpt lat="49.3728" lon="0.96788">
        <ele>71</ele>
        <time>2026-05-21T13:07:15.227Z</time>
      </trkpt>
      <trkpt lat="49.37281" lon="0.96782">
        <ele>71</ele>
        <time>2026-05-21T13:07:19.577Z</time>
      </trkpt>
      <trkpt lat="49.37281" lon="0.96775">
        <ele>71</ele>
        <time>2026-05-21T13:07:23.841Z</time>
      </trkpt>
      <trkpt lat="49.3728" lon="0.96767">
        <ele>71</ele>
        <time>2026-05-21T13:07:28.109Z</time>
      </trkpt>
      <trkpt lat="49.3728" lon="0.9676">
        <ele>71</ele>
        <time>2026-05-21T13:07:32.288Z</time>
      </trkpt>
      <trkpt lat="49.3728" lon="0.96753">
        <ele>71</ele>
        <time>2026-05-21T13:07:36.389Z</time>
      </trkpt>
      <trkpt lat="49.37281" lon="0.96747">
        <ele>71</ele>
        <time>2026-05-21T13:07:40.577Z</time>
      </trkpt>
      <trkpt lat="49.37282" lon="0.9674">
        <ele>71</ele>
        <time>2026-05-21T13:07:44.940Z</time>
      </trkpt>
      <trkpt lat="49.37282" lon="0.96735">
        <ele>70</ele>
        <time>2026-05-21T13:07:49.043Z</time>
      </trkpt>
      <trkpt lat="49.37282" lon="0.96728">
        <ele>70</ele>
        <time>2026-05-21T13:07:53.204Z</time>
      </trkpt>
      <trkpt lat="49.37282" lon="0.96722">
        <ele>70</ele>
        <time>2026-05-21T13:07:57.287Z</time>
      </trkpt>
      <trkpt lat="49.37282" lon="0.96715">
        <ele>70</ele>
        <time>2026-05-21T13:08:01.361Z</time>
      </trkpt>
      <trkpt lat="49.37282" lon="0.96709">
        <ele>70</ele>
        <time>2026-05-21T13:08:05.586Z</time>
      </trkpt>
      <trkpt lat="49.37283" lon="0.96702">
        <ele>69</ele>
        <time>2026-05-21T13:08:10.203Z</time>
      </trkpt>
      <trkpt lat="49.37284" lon="0.96695">
        <ele>69</ele>
        <time>2026-05-21T13:08:14.444Z</time>
      </trkpt>
      <trkpt lat="49.37284" lon="0.96689">
        <ele>69</ele>
        <time>2026-05-21T13:08:18.563Z</time>
      </trkpt>
      <trkpt lat="49.37284" lon="0.96682">
        <ele>69</ele>
        <time>2026-05-21T13:08:22.577Z</time>
      </trkpt>
      <trkpt lat="49.37285" lon="0.9668">
        <ele>68</ele>
        <time>2026-05-21T13:08:27.577Z</time>
      </trkpt>
      <trkpt lat="49.37285" lon="0.9668">
        <ele>68</ele>
        <time>2026-05-21T13:08:31.927Z</time>
      </trkpt>
      <trkpt lat="49.37287" lon="0.96676">
        <ele>68</ele>
        <time>2026-05-21T13:08:36.406Z</time>
      </trkpt>
      <trkpt lat="49.37286" lon="0.96666">
        <ele>68</ele>
        <time>2026-05-21T13:08:40.488Z</time>
      </trkpt>
      <trkpt lat="49.37286" lon="0.96658">
        <ele>68</ele>
        <time>2026-05-21T13:08:44.577Z</time>
      </trkpt>
      <trkpt lat="49.37287" lon="0.96644">
        <ele>66</ele>
        <time>2026-05-21T13:09:01.577Z</time>
      </trkpt>
      <trkpt lat="49.37287" lon="0.96644">
        <ele>66</ele>
        <time>2026-05-21T13:09:07.577Z</time>
      </trkpt>
      <trkpt lat="49.37287" lon="0.96643">
        <ele>66</ele>
        <time>2026-05-21T13:09:11.577Z</time>
      </trkpt>
      <trkpt lat="49.37288" lon="0.96642">
        <ele>66</ele>
        <time>2026-05-21T13:09:16.428Z</time>
      </trkpt>
      <trkpt lat="49.37288" lon="0.96639">
        <ele>66</ele>
        <time>2026-05-21T13:09:20.923Z</time>
      </trkpt>
      <trkpt lat="49.37294" lon="0.96636">
        <ele>69</ele>
        <time>2026-05-21T13:10:20.577Z</time>
      </trkpt>
      <trkpt lat="49.37294" lon="0.96636">
        <ele>69</ele>
        <time>2026-05-21T13:10:26.542Z</time>
      </trkpt>
      <trkpt lat="49.37298" lon="0.9663">
        <ele>69</ele>
        <time>2026-05-21T13:10:30.589Z</time>
      </trkpt>
      <trkpt lat="49.373" lon="0.96623">
        <ele>69</ele>
        <time>2026-05-21T13:10:34.681Z</time>
      </trkpt>
      <trkpt lat="49.373" lon="0.96616">
        <ele>69</ele>
        <time>2026-05-21T13:10:38.949Z</time>
      </trkpt>
      <trkpt lat="49.373" lon="0.96608">
        <ele>69</ele>
        <time>2026-05-21T13:10:43.444Z</time>
      </trkpt>
      <trkpt lat="49.373" lon="0.96602">
        <ele>69</ele>
        <time>2026-05-21T13:10:47.577Z</time>
      </trkpt>
      <trkpt lat="49.37302" lon="0.96595">
        <ele>69</ele>
        <time>2026-05-21T13:10:52.419Z</time>
      </trkpt>
      <trkpt lat="49.37304" lon="0.96589">
        <ele>69</ele>
        <time>2026-05-21T13:10:56.589Z</time>
      </trkpt>
      <trkpt lat="49.37307" lon="0.96584">
        <ele>69</ele>
        <time>2026-05-21T13:11:00.789Z</time>
      </trkpt>
      <trkpt lat="49.37307" lon="0.96576">
        <ele>69</ele>
        <time>2026-05-21T13:11:05.342Z</time>
      </trkpt>
      <trkpt lat="49.37309" lon="0.96571">
        <ele>69</ele>
        <time>2026-05-21T13:11:09.442Z</time>
      </trkpt>
      <trkpt lat="49.37307" lon="0.96565">
        <ele>68</ele>
        <time>2026-05-21T13:11:13.577Z</time>
      </trkpt>
      <trkpt lat="49.37308" lon="0.96559">
        <ele>68</ele>
        <time>2026-05-21T13:11:18.101Z</time>
      </trkpt>
      <trkpt lat="49.37309" lon="0.96552">
        <ele>68</ele>
        <time>2026-05-21T13:11:22.227Z</time>
      </trkpt>
      <trkpt lat="49.3731" lon="0.96546">
        <ele>68</ele>
        <time>2026-05-21T13:11:26.442Z</time>
      </trkpt>
      <trkpt lat="49.37313" lon="0.96541">
        <ele>68</ele>
        <time>2026-05-21T13:11:30.930Z</time>
      </trkpt>
      <trkpt lat="49.37316" lon="0.96537">
        <ele>68</ele>
        <time>2026-05-21T13:11:35.442Z</time>
      </trkpt>
      <trkpt lat="49.37319" lon="0.96532">
        <ele>68</ele>
        <time>2026-05-21T13:11:39.807Z</time>
      </trkpt>
      <trkpt lat="49.3732" lon="0.96526">
        <ele>72</ele>
        <time>2026-05-21T13:11:44.082Z</time>
      </trkpt>
      <trkpt lat="49.37322" lon="0.9652">
        <ele>72</ele>
        <time>2026-05-21T13:11:48.587Z</time>
      </trkpt>
      <trkpt lat="49.37322" lon="0.96512">
        <ele>71</ele>
        <time>2026-05-21T13:12:26.577Z</time>
      </trkpt>
      <trkpt lat="49.37325" lon="0.96509">
        <ele>71</ele>
        <time>2026-05-21T13:12:30.944Z</time>
      </trkpt>
      <trkpt lat="49.37328" lon="0.96501">
        <ele>71</ele>
        <time>2026-05-21T13:12:35.229Z</time>
      </trkpt>
      <trkpt lat="49.37332" lon="0.96496">
        <ele>71</ele>
        <time>2026-05-21T13:12:39.507Z</time>
      </trkpt>
      <trkpt lat="49.37334" lon="0.96489">
        <ele>71</ele>
        <time>2026-05-21T13:12:43.887Z</time>
      </trkpt>
      <trkpt lat="49.37336" lon="0.96483">
        <ele>70</ele>
        <time>2026-05-21T13:12:48.304Z</time>
      </trkpt>
      <trkpt lat="49.37339" lon="0.96478">
        <ele>70</ele>
        <time>2026-05-21T13:12:52.577Z</time>
      </trkpt>
      <trkpt lat="49.3734" lon="0.96471">
        <ele>70</ele>
        <time>2026-05-21T13:12:56.882Z</time>
      </trkpt>
      <trkpt lat="49.37342" lon="0.96465">
        <ele>70</ele>
        <time>2026-05-21T13:13:01.467Z</time>
      </trkpt>
      <trkpt lat="49.37344" lon="0.96458">
        <ele>70</ele>
        <time>2026-05-21T13:13:05.724Z</time>
      </trkpt>
      <trkpt lat="49.37346" lon="0.96452">
        <ele>69</ele>
        <time>2026-05-21T13:13:10.168Z</time>
      </trkpt>
      <trkpt lat="49.37347" lon="0.96446">
        <ele>69</ele>
        <time>2026-05-21T13:13:14.548Z</time>
      </trkpt>
      <trkpt lat="49.37349" lon="0.96441">
        <ele>72</ele>
        <time>2026-05-21T13:13:18.983Z</time>
      </trkpt>
      <trkpt lat="49.37348" lon="0.96439">
        <ele>72</ele>
        <time>2026-05-21T13:13:32.926Z</time>
      </trkpt>
      <trkpt lat="49.3735" lon="0.96433">
        <ele>72</ele>
        <time>2026-05-21T13:13:37.124Z</time>
      </trkpt>
      <trkpt lat="49.37353" lon="0.96424">
        <ele>71</ele>
        <time>2026-05-21T13:13:41.382Z</time>
      </trkpt>
      <trkpt lat="49.37354" lon="0.96416">
        <ele>71</ele>
        <time>2026-05-21T13:13:45.907Z</time>
      </trkpt>
      <trkpt lat="49.37357" lon="0.96409">
        <ele>71</ele>
        <time>2026-05-21T13:13:50.163Z</time>
      </trkpt>
      <trkpt lat="49.3736" lon="0.96402">
        <ele>70</ele>
        <time>2026-05-21T13:13:54.466Z</time>
      </trkpt>
      <trkpt lat="49.37363" lon="0.96398">
        <ele>70</ele>
        <time>2026-05-21T13:13:58.786Z</time>
      </trkpt>
      <trkpt lat="49.37366" lon="0.96393">
        <ele>70</ele>
        <time>2026-05-21T13:14:03.368Z</time>
      </trkpt>
      <trkpt lat="49.37368" lon="0.96389">
        <ele>70</ele>
        <time>2026-05-21T13:14:07.472Z</time>
      </trkpt>
      <trkpt lat="49.3737" lon="0.96385">
        <ele>70</ele>
        <time>2026-05-21T13:14:11.577Z</time>
      </trkpt>
      <trkpt lat="49.37369" lon="0.96384">
        <ele>70</ele>
        <time>2026-05-21T13:14:18.164Z</time>
      </trkpt>
      <trkpt lat="49.37373" lon="0.96379">
        <ele>70</ele>
        <time>2026-05-21T13:14:22.448Z</time>
      </trkpt>
      <trkpt lat="49.37376" lon="0.96371">
        <ele>72</ele>
        <time>2026-05-21T13:14:26.769Z</time>
      </trkpt>
      <trkpt lat="49.37379" lon="0.96366">
        <ele>72</ele>
        <time>2026-05-21T13:14:31.108Z</time>
      </trkpt>
      <trkpt lat="49.37382" lon="0.9636">
        <ele>72</ele>
        <time>2026-05-21T13:14:35.462Z</time>
      </trkpt>
      <trkpt lat="49.37385" lon="0.96355">
        <ele>72</ele>
        <time>2026-05-21T13:14:39.703Z</time>
      </trkpt>
      <trkpt lat="49.37387" lon="0.9635">
        <ele>72</ele>
        <time>2026-05-21T13:14:44.181Z</time>
      </trkpt>
      <trkpt lat="49.37389" lon="0.96345">
        <ele>71</ele>
        <time>2026-05-21T13:14:48.448Z</time>
      </trkpt>
      <trkpt lat="49.37391" lon="0.9634">
        <ele>71</ele>
        <time>2026-05-21T13:14:52.768Z</time>
      </trkpt>
      <trkpt lat="49.37394" lon="0.96336">
        <ele>71</ele>
        <time>2026-05-21T13:14:57.029Z</time>
      </trkpt>
      <trkpt lat="49.37396" lon="0.96331">
        <ele>71</ele>
        <time>2026-05-21T13:15:01.068Z</time>
      </trkpt>
      <trkpt lat="49.37397" lon="0.96327">
        <ele>71</ele>
        <time>2026-05-21T13:15:05.577Z</time>
      </trkpt>
      <trkpt lat="49.37399" lon="0.96325">
        <ele>71</ele>
        <time>2026-05-21T13:15:09.942Z</time>
      </trkpt>
      <trkpt lat="49.37403" lon="0.96319">
        <ele>71</ele>
        <time>2026-05-21T13:15:14.122Z</time>
      </trkpt>
      <trkpt lat="49.37407" lon="0.96315">
        <ele>71</ele>
        <time>2026-05-21T13:15:18.583Z</time>
      </trkpt>
      <trkpt lat="49.37414" lon="0.96309">
        <ele>71</ele>
        <time>2026-05-21T13:15:39.577Z</time>
      </trkpt>
      <trkpt lat="49.37414" lon="0.96308">
        <ele>71</ele>
        <time>2026-05-21T13:15:43.985Z</time>
      </trkpt>
      <trkpt lat="49.37416" lon="0.96304">
        <ele>71</ele>
        <time>2026-05-21T13:15:48.164Z</time>
      </trkpt>
      <trkpt lat="49.3742" lon="0.96296">
        <ele>71</ele>
        <time>2026-05-21T13:15:52.346Z</time>
      </trkpt>
      <trkpt lat="49.37422" lon="0.96289">
        <ele>70</ele>
        <time>2026-05-21T13:15:56.577Z</time>
      </trkpt>
      <trkpt lat="49.37424" lon="0.96283">
        <ele>70</ele>
        <time>2026-05-21T13:16:00.905Z</time>
      </trkpt>
      <trkpt lat="49.37427" lon="0.96277">
        <ele>70</ele>
        <time>2026-05-21T13:16:05.163Z</time>
      </trkpt>
      <trkpt lat="49.3743" lon="0.96272">
        <ele>70</ele>
        <time>2026-05-21T13:16:09.483Z</time>
      </trkpt>
      <trkpt lat="49.37433" lon="0.96268">
        <ele>70</ele>
        <time>2026-05-21T13:16:13.786Z</time>
      </trkpt>
      <trkpt lat="49.37436" lon="0.96263">
        <ele>71</ele>
        <time>2026-05-21T13:16:18.123Z</time>
      </trkpt>
      <trkpt lat="49.37439" lon="0.96259">
        <ele>71</ele>
        <time>2026-05-21T13:16:22.188Z</time>
      </trkpt>
      <trkpt lat="49.37442" lon="0.96253">
        <ele>71</ele>
        <time>2026-05-21T13:16:26.386Z</time>
      </trkpt>
      <trkpt lat="49.37445" lon="0.96248">
        <ele>71</ele>
        <time>2026-05-21T13:16:30.468Z</time>
      </trkpt>
      <trkpt lat="49.37449" lon="0.96245">
        <ele>71</ele>
        <time>2026-05-21T13:16:34.577Z</time>
      </trkpt>
      <trkpt lat="49.3745" lon="0.96241">
        <ele>71</ele>
        <time>2026-05-21T13:16:39.128Z</time>
      </trkpt>
      <trkpt lat="49.37452" lon="0.96235">
        <ele>71</ele>
        <time>2026-05-21T13:16:43.568Z</time>
      </trkpt>
      <trkpt lat="49.37454" lon="0.96228">
        <ele>71</ele>
        <time>2026-05-21T13:16:47.862Z</time>
      </trkpt>
      <trkpt lat="49.37456" lon="0.96224">
        <ele>71</ele>
        <time>2026-05-21T13:17:01.577Z</time>
      </trkpt>
      <trkpt lat="49.37457" lon="0.96222">
        <ele>71</ele>
        <time>2026-05-21T13:17:05.577Z</time>
      </trkpt>
      <trkpt lat="49.3746" lon="0.96215">
        <ele>74</ele>
        <time>2026-05-21T13:17:09.944Z</time>
      </trkpt>
      <trkpt lat="49.37462" lon="0.96209">
        <ele>74</ele>
        <time>2026-05-21T13:17:14.422Z</time>
      </trkpt>
      <trkpt lat="49.37463" lon="0.96203">
        <ele>74</ele>
        <time>2026-05-21T13:17:18.577Z</time>
      </trkpt>
      <trkpt lat="49.37464" lon="0.96204">
        <ele>74</ele>
        <time>2026-05-21T13:17:23.577Z</time>
      </trkpt>
      <trkpt lat="49.37464" lon="0.96203">
        <ele>74</ele>
        <time>2026-05-21T13:17:27.742Z</time>
      </trkpt>
      <trkpt lat="49.37468" lon="0.96195">
        <ele>74</ele>
        <time>2026-05-21T13:17:31.807Z</time>
      </trkpt>
      <trkpt lat="49.37471" lon="0.96189">
        <ele>74</ele>
        <time>2026-05-21T13:17:36.067Z</time>
      </trkpt>
      <trkpt lat="49.37474" lon="0.96183">
        <ele>74</ele>
        <time>2026-05-21T13:17:40.309Z</time>
      </trkpt>
      <trkpt lat="49.37476" lon="0.96179">
        <ele>72</ele>
        <time>2026-05-21T13:17:44.547Z</time>
      </trkpt>
      <trkpt lat="49.37479" lon="0.96174">
        <ele>72</ele>
        <time>2026-05-21T13:17:48.577Z</time>
      </trkpt>
      <trkpt lat="49.37482" lon="0.96168">
        <ele>72</ele>
        <time>2026-05-21T13:17:52.783Z</time>
      </trkpt>
      <trkpt lat="49.37485" lon="0.96163">
        <ele>72</ele>
        <time>2026-05-21T13:17:57.042Z</time>
      </trkpt>
      <trkpt lat="49.37487" lon="0.96158">
        <ele>76</ele>
        <time>2026-05-21T13:18:01.142Z</time>
      </trkpt>
      <trkpt lat="49.3749" lon="0.96153">
        <ele>76</ele>
        <time>2026-05-21T13:18:05.461Z</time>
      </trkpt>
      <trkpt lat="49.37491" lon="0.96152">
        <ele>73</ele>
        <time>2026-05-21T13:18:09.577Z</time>
      </trkpt>
      <trkpt lat="49.3749" lon="0.96152">
        <ele>73</ele>
        <time>2026-05-21T13:18:14.225Z</time>
      </trkpt>
      <trkpt lat="49.37491" lon="0.9615">
        <ele>73</ele>
        <time>2026-05-21T13:18:18.405Z</time>
      </trkpt>
      <trkpt lat="49.37496" lon="0.96139">
        <ele>73</ele>
        <time>2026-05-21T13:18:22.583Z</time>
      </trkpt>
      <trkpt lat="49.37498" lon="0.96133">
        <ele>73</ele>
        <time>2026-05-21T13:18:26.825Z</time>
      </trkpt>
      <trkpt lat="49.37501" lon="0.96127">
        <ele>73</ele>
        <time>2026-05-21T13:18:30.968Z</time>
      </trkpt>
      <trkpt lat="49.37503" lon="0.96121">
        <ele>70</ele>
        <time>2026-05-21T13:18:35.183Z</time>
      </trkpt>
      <trkpt lat="49.37506" lon="0.96116">
        <ele>70</ele>
        <time>2026-05-21T13:18:39.327Z</time>
      </trkpt>
      <trkpt lat="49.37509" lon="0.96111">
        <ele>70</ele>
        <time>2026-05-21T13:18:43.524Z</time>
      </trkpt>
      <trkpt lat="49.37512" lon="0.96106">
        <ele>70</ele>
        <time>2026-05-21T13:18:47.577Z</time>
      </trkpt>
      <trkpt lat="49.37515" lon="0.96101">
        <ele>73</ele>
        <time>2026-05-21T13:18:51.962Z</time>
      </trkpt>
      <trkpt lat="49.37517" lon="0.96096">
        <ele>71</ele>
        <time>2026-05-21T13:18:56.124Z</time>
      </trkpt>
      <trkpt lat="49.3752" lon="0.9609">
        <ele>71</ele>
        <time>2026-05-21T13:19:00.242Z</time>
      </trkpt>
      <trkpt lat="49.37523" lon="0.96085">
        <ele>71</ele>
        <time>2026-05-21T13:19:04.388Z</time>
      </trkpt>
      <trkpt lat="49.37526" lon="0.96082">
        <ele>71</ele>
        <time>2026-05-21T13:19:08.577Z</time>
      </trkpt>
      <trkpt lat="49.3753" lon="0.96078">
        <ele>71</ele>
        <time>2026-05-21T13:19:13.167Z</time>
      </trkpt>
      <trkpt lat="49.37533" lon="0.96076">
        <ele>71</ele>
        <time>2026-05-21T13:19:17.577Z</time>
      </trkpt>
      <trkpt lat="49.37535" lon="0.96071">
        <ele>71</ele>
        <time>2026-05-21T13:19:22.008Z</time>
      </trkpt>
      <trkpt lat="49.37537" lon="0.96065">
        <ele>69</ele>
        <time>2026-05-21T13:19:26.348Z</time>
      </trkpt>
      <trkpt lat="49.37538" lon="0.96058">
        <ele>69</ele>
        <time>2026-05-21T13:19:30.744Z</time>
      </trkpt>
      <trkpt lat="49.37542" lon="0.96055">
        <ele>72</ele>
        <time>2026-05-21T13:19:35.082Z</time>
      </trkpt>
      <trkpt lat="49.37543" lon="0.9605">
        <ele>72</ele>
        <time>2026-05-21T13:20:35.577Z</time>
      </trkpt>
      <trkpt lat="49.37543" lon="0.96049">
        <ele>72</ele>
        <time>2026-05-21T13:20:41.577Z</time>
      </trkpt>
      <trkpt lat="49.37543" lon="0.96049">
        <ele>72</ele>
        <time>2026-05-21T13:20:47.145Z</time>
      </trkpt>
      <trkpt lat="49.37538" lon="0.96043">
        <ele>69</ele>
        <time>2026-05-21T13:20:51.577Z</time>
      </trkpt>
      <trkpt lat="49.37535" lon="0.9604">
        <ele>66</ele>
        <time>2026-05-21T13:20:56.577Z</time>
      </trkpt>
      <trkpt lat="49.3753" lon="0.96033">
        <ele>66</ele>
        <time>2026-05-21T13:21:01.577Z</time>
      </trkpt>
      <trkpt lat="49.37526" lon="0.96029">
        <ele>66</ele>
        <time>2026-05-21T13:21:06.577Z</time>
      </trkpt>
      <trkpt lat="49.3752" lon="0.96026">
        <ele>66</ele>
        <time>2026-05-21T13:21:11.577Z</time>
      </trkpt>
      <trkpt lat="49.37516" lon="0.96023">
        <ele>66</ele>
        <time>2026-05-21T13:21:15.577Z</time>
      </trkpt>
      <trkpt lat="49.37512" lon="0.96017">
        <ele>64</ele>
        <time>2026-05-21T13:21:20.229Z</time>
      </trkpt>
      <trkpt lat="49.37508" lon="0.96015">
        <ele>64</ele>
        <time>2026-05-21T13:21:24.577Z</time>
      </trkpt>
      <trkpt lat="49.37503" lon="0.96011">
        <ele>62</ele>
        <time>2026-05-21T13:21:29.046Z</time>
      </trkpt>
      <trkpt lat="49.37499" lon="0.96006">
        <ele>62</ele>
        <time>2026-05-21T13:21:33.366Z</time>
      </trkpt>
      <trkpt lat="49.37496" lon="0.96003">
        <ele>62</ele>
        <time>2026-05-21T13:21:37.577Z</time>
      </trkpt>
      <trkpt lat="49.37492" lon="0.95999">
        <ele>62</ele>
        <time>2026-05-21T13:21:42.048Z</time>
      </trkpt>
      <trkpt lat="49.37487" lon="0.95995">
        <ele>62</ele>
        <time>2026-05-21T13:21:46.561Z</time>
      </trkpt>
      <trkpt lat="49.37484" lon="0.95993">
        <ele>64</ele>
        <time>2026-05-21T13:21:50.566Z</time>
      </trkpt>
      <trkpt lat="49.37479" lon="0.95991">
        <ele>64</ele>
        <time>2026-05-21T13:21:54.824Z</time>
      </trkpt>
      <trkpt lat="49.37474" lon="0.95989">
        <ele>64</ele>
        <time>2026-05-21T13:21:59.577Z</time>
      </trkpt>
      <trkpt lat="49.3747" lon="0.95985">
        <ele>64</ele>
        <time>2026-05-21T13:22:04.448Z</time>
      </trkpt>
      <trkpt lat="49.37465" lon="0.95981">
        <ele>64</ele>
        <time>2026-05-21T13:22:09.223Z</time>
      </trkpt>
      <trkpt lat="49.3746" lon="0.95978">
        <ele>64</ele>
        <time>2026-05-21T13:22:13.527Z</time>
      </trkpt>
      <trkpt lat="49.37456" lon="0.95976">
        <ele>65</ele>
        <time>2026-05-21T13:22:17.801Z</time>
      </trkpt>
      <trkpt lat="49.37451" lon="0.95972">
        <ele>65</ele>
        <time>2026-05-21T13:22:22.287Z</time>
      </trkpt>
      <trkpt lat="49.37448" lon="0.95969">
        <ele>65</ele>
        <time>2026-05-21T13:22:26.577Z</time>
      </trkpt>
      <trkpt lat="49.37446" lon="0.95967">
        <ele>65</ele>
        <time>2026-05-21T13:22:31.068Z</time>
      </trkpt>
      <trkpt lat="49.3744" lon="0.9596">
        <ele>65</ele>
        <time>2026-05-21T13:22:35.203Z</time>
      </trkpt>
      <trkpt lat="49.37435" lon="0.95954">
        <ele>64</ele>
        <time>2026-05-21T13:22:39.444Z</time>
      </trkpt>
      <trkpt lat="49.3743" lon="0.9595">
        <ele>64</ele>
        <time>2026-05-21T13:22:43.667Z</time>
      </trkpt>
      <trkpt lat="49.37425" lon="0.95947">
        <ele>64</ele>
        <time>2026-05-21T13:22:47.943Z</time>
      </trkpt>
      <trkpt lat="49.3742" lon="0.95943">
        <ele>64</ele>
        <time>2026-05-21T13:22:52.387Z</time>
      </trkpt>
      <trkpt lat="49.37415" lon="0.9594">
        <ele>64</ele>
        <time>2026-05-21T13:22:56.407Z</time>
      </trkpt>
      <trkpt lat="49.37411" lon="0.95936">
        <ele>64</ele>
        <time>2026-05-21T13:23:00.903Z</time>
      </trkpt>
      <trkpt lat="49.37406" lon="0.95932">
        <ele>64</ele>
        <time>2026-05-21T13:23:05.347Z</time>
      </trkpt>
      <trkpt lat="49.37402" lon="0.95928">
        <ele>62</ele>
        <time>2026-05-21T13:23:09.841Z</time>
      </trkpt>
      <trkpt lat="49.37397" lon="0.95925">
        <ele>62</ele>
        <time>2026-05-21T13:23:14.267Z</time>
      </trkpt>
      <trkpt lat="49.37393" lon="0.95923">
        <ele>62</ele>
        <time>2026-05-21T13:23:18.577Z</time>
      </trkpt>
      <trkpt lat="49.37391" lon="0.95917">
        <ele>62</ele>
        <time>2026-05-21T13:23:23.028Z</time>
      </trkpt>
      <trkpt lat="49.37384" lon="0.95917">
        <ele>62</ele>
        <time>2026-05-21T13:23:27.577Z</time>
      </trkpt>
      <trkpt lat="49.37381" lon="0.95913">
        <ele>62</ele>
        <time>2026-05-21T13:23:32.008Z</time>
      </trkpt>
      <trkpt lat="49.37379" lon="0.95914">
        <ele>62</ele>
        <time>2026-05-21T13:23:36.577Z</time>
      </trkpt>
      <trkpt lat="49.37378" lon="0.95915">
        <ele>62</ele>
        <time>2026-05-21T13:23:42.042Z</time>
      </trkpt>
      <trkpt lat="49.37378" lon="0.95919">
        <ele>62</ele>
        <time>2026-05-21T13:23:46.309Z</time>
      </trkpt>
      <trkpt lat="49.37377" lon="0.95929">
        <ele>62</ele>
        <time>2026-05-21T13:23:50.822Z</time>
      </trkpt>
      <trkpt lat="49.37376" lon="0.95936">
        <ele>63</ele>
        <time>2026-05-21T13:23:55.424Z</time>
      </trkpt>
      <trkpt lat="49.37374" lon="0.95944">
        <ele>63</ele>
        <time>2026-05-21T13:24:00.244Z</time>
      </trkpt>
      <trkpt lat="49.3737" lon="0.95949">
        <ele>63</ele>
        <time>2026-05-21T13:24:04.528Z</time>
      </trkpt>
      <trkpt lat="49.37368" lon="0.95951">
        <ele>63</ele>
        <time>2026-05-21T13:24:08.847Z</time>
      </trkpt>
      <trkpt lat="49.37365" lon="0.95957">
        <ele>63</ele>
        <time>2026-05-21T13:24:13.062Z</time>
      </trkpt>
      <trkpt lat="49.37363" lon="0.95963">
        <ele>64</ele>
        <time>2026-05-21T13:24:17.242Z</time>
      </trkpt>
      <trkpt lat="49.3736" lon="0.95968">
        <ele>64</ele>
        <time>2026-05-21T13:24:21.544Z</time>
      </trkpt>
      <trkpt lat="49.37356" lon="0.95972">
        <ele>64</ele>
        <time>2026-05-21T13:24:25.788Z</time>
      </trkpt>
      <trkpt lat="49.37353" lon="0.95977">
        <ele>64</ele>
        <time>2026-05-21T13:24:29.983Z</time>
      </trkpt>
      <trkpt lat="49.3735" lon="0.95983">
        <ele>64</ele>
        <time>2026-05-21T13:24:34.328Z</time>
      </trkpt>
      <trkpt lat="49.37348" lon="0.95989">
        <ele>65</ele>
        <time>2026-05-21T13:24:38.560Z</time>
      </trkpt>
      <trkpt lat="49.37347" lon="0.95994">
        <ele>64</ele>
        <time>2026-05-21T13:24:42.577Z</time>
      </trkpt>
      <trkpt lat="49.37345" lon="0.95996">
        <ele>64</ele>
        <time>2026-05-21T13:24:46.964Z</time>
      </trkpt>
      <trkpt lat="49.37341" lon="0.96">
        <ele>64</ele>
        <time>2026-05-21T13:24:51.301Z</time>
      </trkpt>
      <trkpt lat="49.37339" lon="0.96005">
        <ele>64</ele>
        <time>2026-05-21T13:24:55.588Z</time>
      </trkpt>
      <trkpt lat="49.37336" lon="0.96013">
        <ele>64</ele>
        <time>2026-05-21T13:24:59.819Z</time>
      </trkpt>
      <trkpt lat="49.37334" lon="0.96021">
        <ele>64</ele>
        <time>2026-05-21T13:25:04.084Z</time>
      </trkpt>
      <trkpt lat="49.37332" lon="0.96028">
        <ele>64</ele>
        <time>2026-05-21T13:25:08.577Z</time>
      </trkpt>
      <trkpt lat="49.37329" lon="0.96033">
        <ele>64</ele>
        <time>2026-05-21T13:25:13.147Z</time>
      </trkpt>
      <trkpt lat="49.37326" lon="0.96039">
        <ele>64</ele>
        <time>2026-05-21T13:25:17.467Z</time>
      </trkpt>
      <trkpt lat="49.37323" lon="0.96045">
        <ele>64</ele>
        <time>2026-05-21T13:25:21.943Z</time>
      </trkpt>
      <trkpt lat="49.37318" lon="0.96055">
        <ele>62</ele>
        <time>2026-05-21T13:26:01.577Z</time>
      </trkpt>
      <trkpt lat="49.37318" lon="0.96055">
        <ele>62</ele>
        <time>2026-05-21T13:26:06.577Z</time>
      </trkpt>
      <trkpt lat="49.37318" lon="0.96055">
        <ele>62</ele>
        <time>2026-05-21T13:26:13.577Z</time>
      </trkpt>
      <trkpt lat="49.37317" lon="0.96055">
        <ele>62</ele>
        <time>2026-05-21T13:26:17.848Z</time>
      </trkpt>
      <trkpt lat="49.37313" lon="0.96063">
        <ele>62</ele>
        <time>2026-05-21T13:26:22.149Z</time>
      </trkpt>
      <trkpt lat="49.37311" lon="0.9607">
        <ele>62</ele>
        <time>2026-05-21T13:26:26.469Z</time>
      </trkpt>
      <trkpt lat="49.37309" lon="0.96075">
        <ele>62</ele>
        <time>2026-05-21T13:26:30.577Z</time>
      </trkpt>
      <trkpt lat="49.37306" lon="0.96082">
        <ele>62</ele>
        <time>2026-05-21T13:26:35.418Z</time>
      </trkpt>
      <trkpt lat="49.37304" lon="0.96087">
        <ele>62</ele>
        <time>2026-05-21T13:26:39.543Z</time>
      </trkpt>
      <trkpt lat="49.37301" lon="0.96091">
        <ele>62</ele>
        <time>2026-05-21T13:26:43.577Z</time>
      </trkpt>
      <trkpt lat="49.37299" lon="0.96097">
        <ele>62</ele>
        <time>2026-05-21T13:26:47.577Z</time>
      </trkpt>
      <trkpt lat="49.37295" lon="0.96102">
        <ele>64</ele>
        <time>2026-05-21T13:26:52.028Z</time>
      </trkpt>
      <trkpt lat="49.37292" lon="0.96106">
        <ele>64</ele>
        <time>2026-05-21T13:26:56.420Z</time>
      </trkpt>
      <trkpt lat="49.37289" lon="0.96109">
        <ele>62</ele>
        <time>2026-05-21T13:27:00.483Z</time>
      </trkpt>
      <trkpt lat="49.37287" lon="0.96114">
        <ele>62</ele>
        <time>2026-05-21T13:27:04.821Z</time>
      </trkpt>
      <trkpt lat="49.37284" lon="0.96119">
        <ele>62</ele>
        <time>2026-05-21T13:27:08.965Z</time>
      </trkpt>
      <trkpt lat="49.37282" lon="0.96125">
        <ele>62</ele>
        <time>2026-05-21T13:27:13.302Z</time>
      </trkpt>
      <trkpt lat="49.37279" lon="0.96131">
        <ele>64</ele>
        <time>2026-05-21T13:27:17.577Z</time>
      </trkpt>
      <trkpt lat="49.37276" lon="0.96136">
        <ele>64</ele>
        <time>2026-05-21T13:27:22.003Z</time>
      </trkpt>
      <trkpt lat="49.37274" lon="0.96137">
        <ele>64</ele>
        <time>2026-05-21T13:27:26.577Z</time>
      </trkpt>
      <trkpt lat="49.37273" lon="0.96135">
        <ele>64</ele>
        <time>2026-05-21T13:27:30.577Z</time>
      </trkpt>
      <trkpt lat="49.37268" lon="0.96132">
        <ele>64</ele>
        <time>2026-05-21T13:27:34.822Z</time>
      </trkpt>
      <trkpt lat="49.37264" lon="0.9613">
        <ele>63</ele>
        <time>2026-05-21T13:27:38.983Z</time>
      </trkpt>
      <trkpt lat="49.37261" lon="0.96129">
        <ele>63</ele>
        <time>2026-05-21T13:27:43.577Z</time>
      </trkpt>
      <trkpt lat="49.37256" lon="0.9613">
        <ele>63</ele>
        <time>2026-05-21T13:27:48.203Z</time>
      </trkpt>
      <trkpt lat="49.3725" lon="0.96132">
        <ele>63</ele>
        <time>2026-05-21T13:27:52.848Z</time>
      </trkpt>
      <trkpt lat="49.37244" lon="0.96132">
        <ele>63</ele>
        <time>2026-05-21T13:27:57.388Z</time>
      </trkpt>
      <trkpt lat="49.37239" lon="0.96132">
        <ele>63</ele>
        <time>2026-05-21T13:28:01.549Z</time>
      </trkpt>
      <trkpt lat="49.37235" lon="0.96131">
        <ele>62</ele>
        <time>2026-05-21T13:28:05.577Z</time>
      </trkpt>
      <trkpt lat="49.3723" lon="0.96129">
        <ele>62</ele>
        <time>2026-05-21T13:28:09.724Z</time>
      </trkpt>
      <trkpt lat="49.37226" lon="0.96128">
        <ele>62</ele>
        <time>2026-05-21T13:28:13.824Z</time>
      </trkpt>
      <trkpt lat="49.37222" lon="0.96126">
        <ele>62</ele>
        <time>2026-05-21T13:28:18.003Z</time>
      </trkpt>
      <trkpt lat="49.37216" lon="0.96125">
        <ele>61</ele>
        <time>2026-05-21T13:28:22.147Z</time>
      </trkpt>
      <trkpt lat="49.37212" lon="0.96124">
        <ele>61</ele>
        <time>2026-05-21T13:28:26.467Z</time>
      </trkpt>
      <trkpt lat="49.37207" lon="0.96124">
        <ele>60</ele>
        <time>2026-05-21T13:28:31.009Z</time>
      </trkpt>
      <trkpt lat="49.37203" lon="0.96122">
        <ele>60</ele>
        <time>2026-05-21T13:28:35.247Z</time>
      </trkpt>
      <trkpt lat="49.37199" lon="0.9612">
        <ele>60</ele>
        <time>2026-05-21T13:28:39.427Z</time>
      </trkpt>
      <trkpt lat="49.37194" lon="0.96121">
        <ele>60</ele>
        <time>2026-05-21T13:28:43.500Z</time>
      </trkpt>
      <trkpt lat="49.37191" lon="0.9612">
        <ele>60</ele>
        <time>2026-05-21T13:28:47.584Z</time>
      </trkpt>
      <trkpt lat="49.37185" lon="0.96117">
        <ele>60</ele>
        <time>2026-05-21T13:28:52.202Z</time>
      </trkpt>
      <trkpt lat="49.3718" lon="0.96117">
        <ele>58</ele>
        <time>2026-05-21T13:28:56.363Z</time>
      </trkpt>
      <trkpt lat="49.37175" lon="0.96117">
        <ele>58</ele>
        <time>2026-05-21T13:29:00.577Z</time>
      </trkpt>
      <trkpt lat="49.37171" lon="0.96116">
        <ele>58</ele>
        <time>2026-05-21T13:29:05.082Z</time>
      </trkpt>
      <trkpt lat="49.37167" lon="0.96114">
        <ele>58</ele>
        <time>2026-05-21T13:29:09.227Z</time>
      </trkpt>
      <trkpt lat="49.37163" lon="0.96113">
        <ele>58</ele>
        <time>2026-05-21T13:29:13.309Z</time>
      </trkpt>
      <trkpt lat="49.37159" lon="0.96111">
        <ele>58</ele>
        <time>2026-05-21T13:29:17.508Z</time>
      </trkpt>
      <trkpt lat="49.37155" lon="0.9611">
        <ele>58</ele>
        <time>2026-05-21T13:29:21.545Z</time>
      </trkpt>
      <trkpt lat="49.37151" lon="0.96109">
        <ele>57</ele>
        <time>2026-05-21T13:29:25.577Z</time>
      </trkpt>
      <trkpt lat="49.37147" lon="0.96109">
        <ele>57</ele>
        <time>2026-05-21T13:29:29.824Z</time>
      </trkpt>
      <trkpt lat="49.37142" lon="0.96108">
        <ele>57</ele>
        <time>2026-05-21T13:29:33.863Z</time>
      </trkpt>
      <trkpt lat="49.37138" lon="0.96107">
        <ele>57</ele>
        <time>2026-05-21T13:29:38.577Z</time>
      </trkpt>
      <trkpt lat="49.37136" lon="0.96108">
        <ele>57</ele>
        <time>2026-05-21T13:29:43.548Z</time>
      </trkpt>
      <trkpt lat="49.37133" lon="0.96107">
        <ele>57</ele>
        <time>2026-05-21T13:29:47.577Z</time>
      </trkpt>
      <trkpt lat="49.37127" lon="0.96105">
        <ele>57</ele>
        <time>2026-05-21T13:29:52.222Z</time>
      </trkpt>
      <trkpt lat="49.37121" lon="0.96104">
        <ele>57</ele>
        <time>2026-05-21T13:29:56.683Z</time>
      </trkpt>
      <trkpt lat="49.37117" lon="0.96105">
        <ele>57</ele>
        <time>2026-05-21T13:30:01.028Z</time>
      </trkpt>
      <trkpt lat="49.37113" lon="0.96105">
        <ele>57</ele>
        <time>2026-05-21T13:30:05.243Z</time>
      </trkpt>
      <trkpt lat="49.37109" lon="0.96106">
        <ele>57</ele>
        <time>2026-05-21T13:30:09.448Z</time>
      </trkpt>
      <trkpt lat="49.37105" lon="0.96106">
        <ele>57</ele>
        <time>2026-05-21T13:30:13.577Z</time>
      </trkpt>
      <trkpt lat="49.37101" lon="0.96101">
        <ele>57</ele>
        <time>2026-05-21T13:30:18.286Z</time>
      </trkpt>
      <trkpt lat="49.37096" lon="0.96101">
        <ele>56</ele>
        <time>2026-05-21T13:30:22.543Z</time>
      </trkpt>
      <trkpt lat="49.37093" lon="0.96101">
        <ele>56</ele>
        <time>2026-05-21T13:30:26.577Z</time>
      </trkpt>
      <trkpt lat="49.3709" lon="0.96101">
        <ele>56</ele>
        <time>2026-05-21T13:30:44.577Z</time>
      </trkpt>
      <trkpt lat="49.3709" lon="0.96101">
        <ele>56</ele>
        <time>2026-05-21T13:30:50.124Z</time>
      </trkpt>
      <trkpt lat="49.37088" lon="0.96101">
        <ele>56</ele>
        <time>2026-05-21T13:30:54.327Z</time>
      </trkpt>
      <trkpt lat="49.37084" lon="0.96101">
        <ele>56</ele>
        <time>2026-05-21T13:30:58.503Z</time>
      </trkpt>
      <trkpt lat="49.37079" lon="0.96099">
        <ele>56</ele>
        <time>2026-05-21T13:31:02.542Z</time>
      </trkpt>
      <trkpt lat="49.37075" lon="0.96098">
        <ele>56</ele>
        <time>2026-05-21T13:31:06.577Z</time>
      </trkpt>
      <trkpt lat="49.37071" lon="0.96098">
        <ele>56</ele>
        <time>2026-05-21T13:31:10.577Z</time>
      </trkpt>
      <trkpt lat="49.37067" lon="0.96096">
        <ele>56</ele>
        <time>2026-05-21T13:31:14.729Z</time>
      </trkpt>
      <trkpt lat="49.37063" lon="0.96096">
        <ele>56</ele>
        <time>2026-05-21T13:31:18.926Z</time>
      </trkpt>
      <trkpt lat="49.37058" lon="0.96096">
        <ele>56</ele>
        <time>2026-05-21T13:31:23.027Z</time>
      </trkpt>
      <trkpt lat="49.37055" lon="0.96096">
        <ele>56</ele>
        <time>2026-05-21T13:31:27.145Z</time>
      </trkpt>
      <trkpt lat="49.3705" lon="0.96095">
        <ele>56</ele>
        <time>2026-05-21T13:31:31.577Z</time>
      </trkpt>
      <trkpt lat="49.37046" lon="0.96095">
        <ele>56</ele>
        <time>2026-05-21T13:31:35.784Z</time>
      </trkpt>
      <trkpt lat="49.37041" lon="0.96094">
        <ele>56</ele>
        <time>2026-05-21T13:31:39.885Z</time>
      </trkpt>
      <trkpt lat="49.37036" lon="0.96093">
        <ele>56</ele>
        <time>2026-05-21T13:31:44.529Z</time>
      </trkpt>
      <trkpt lat="49.37031" lon="0.96091">
        <ele>56</ele>
        <time>2026-05-21T13:31:48.947Z</time>
      </trkpt>
      <trkpt lat="49.37027" lon="0.96089">
        <ele>56</ele>
        <time>2026-05-21T13:31:53.503Z</time>
      </trkpt>
      <trkpt lat="49.37023" lon="0.96088">
        <ele>56</ele>
        <time>2026-05-21T13:31:57.541Z</time>
      </trkpt>
      <trkpt lat="49.37018" lon="0.96087">
        <ele>56</ele>
        <time>2026-05-21T13:32:02.547Z</time>
      </trkpt>
      <trkpt lat="49.37014" lon="0.96092">
        <ele>56</ele>
        <time>2026-05-21T13:32:07.006Z</time>
      </trkpt>
      <trkpt lat="49.3701" lon="0.96087">
        <ele>55</ele>
        <time>2026-05-21T13:32:11.089Z</time>
      </trkpt>
      <trkpt lat="49.37004" lon="0.96085">
        <ele>55</ele>
        <time>2026-05-21T13:32:15.148Z</time>
      </trkpt>
      <trkpt lat="49.36999" lon="0.96083">
        <ele>55</ele>
        <time>2026-05-21T13:32:19.844Z</time>
      </trkpt>
      <trkpt lat="49.36993" lon="0.96083">
        <ele>55</ele>
        <time>2026-05-21T13:32:24.321Z</time>
      </trkpt>
      <trkpt lat="49.36988" lon="0.96082">
        <ele>55</ele>
        <time>2026-05-21T13:32:28.408Z</time>
      </trkpt>
      <trkpt lat="49.36984" lon="0.96081">
        <ele>53</ele>
        <time>2026-05-21T13:32:32.504Z</time>
      </trkpt>
      <trkpt lat="49.3698" lon="0.9608">
        <ele>53</ele>
        <time>2026-05-21T13:32:36.589Z</time>
      </trkpt>
      <trkpt lat="49.36975" lon="0.96078">
        <ele>53</ele>
        <time>2026-05-21T13:32:41.205Z</time>
      </trkpt>
      <trkpt lat="49.36971" lon="0.96078">
        <ele>53</ele>
        <time>2026-05-21T13:32:45.263Z</time>
      </trkpt>
      <trkpt lat="49.36966" lon="0.96076">
        <ele>53</ele>
        <time>2026-05-21T13:32:49.344Z</time>
      </trkpt>
      <trkpt lat="49.36964" lon="0.96079">
        <ele>53</ele>
        <time>2026-05-21T13:32:53.577Z</time>
      </trkpt>
      <trkpt lat="49.36958" lon="0.96079">
        <ele>51</ele>
        <time>2026-05-21T13:32:58.124Z</time>
      </trkpt>
      <trkpt lat="49.36953" lon="0.96079">
        <ele>51</ele>
        <time>2026-05-21T13:33:02.577Z</time>
      </trkpt>
      <trkpt lat="49.36949" lon="0.96077">
        <ele>51</ele>
        <time>2026-05-21T13:33:06.577Z</time>
      </trkpt>
      <trkpt lat="49.36945" lon="0.96076">
        <ele>51</ele>
        <time>2026-05-21T13:33:10.723Z</time>
      </trkpt>
      <trkpt lat="49.36941" lon="0.96074">
        <ele>51</ele>
        <time>2026-05-21T13:33:14.807Z</time>
      </trkpt>
      <trkpt lat="49.36936" lon="0.96072">
        <ele>51</ele>
        <time>2026-05-21T13:33:19.329Z</time>
      </trkpt>
      <trkpt lat="49.36934" lon="0.96074">
        <ele>51</ele>
        <time>2026-05-21T13:33:23.947Z</time>
      </trkpt>
      <trkpt lat="49.36929" lon="0.96073">
        <ele>51</ele>
        <time>2026-05-21T13:33:28.248Z</time>
      </trkpt>
      <trkpt lat="49.36925" lon="0.9607">
        <ele>51</ele>
        <time>2026-05-21T13:33:32.261Z</time>
      </trkpt>
      <trkpt lat="49.36921" lon="0.9607">
        <ele>51</ele>
        <time>2026-05-21T13:33:36.343Z</time>
      </trkpt>
      <trkpt lat="49.36916" lon="0.96069">
        <ele>54</ele>
        <time>2026-05-21T13:33:40.523Z</time>
      </trkpt>
      <trkpt lat="49.36911" lon="0.96068">
        <ele>54</ele>
        <time>2026-05-21T13:33:45.087Z</time>
      </trkpt>
      <trkpt lat="49.36907" lon="0.96067">
        <ele>54</ele>
        <time>2026-05-21T13:33:49.127Z</time>
      </trkpt>
      <trkpt lat="49.36903" lon="0.96066">
        <ele>54</ele>
        <time>2026-05-21T13:33:53.123Z</time>
      </trkpt>
      <trkpt lat="49.36898" lon="0.96065">
        <ele>53</ele>
        <time>2026-05-21T13:33:57.345Z</time>
      </trkpt>
      <trkpt lat="49.36893" lon="0.96064">
        <ele>53</ele>
        <time>2026-05-21T13:34:01.447Z</time>
      </trkpt>
      <trkpt lat="49.36889" lon="0.96062">
        <ele>53</ele>
        <time>2026-05-21T13:34:05.968Z</time>
      </trkpt>
      <trkpt lat="49.36885" lon="0.96062">
        <ele>53</ele>
        <time>2026-05-21T13:34:10.008Z</time>
      </trkpt>
      <trkpt lat="49.3688" lon="0.96061">
        <ele>53</ele>
        <time>2026-05-21T13:34:14.045Z</time>
      </trkpt>
      <trkpt lat="49.36876" lon="0.96061">
        <ele>53</ele>
        <time>2026-05-21T13:34:18.577Z</time>
      </trkpt>
      <trkpt lat="49.3687" lon="0.9606">
        <ele>50</ele>
        <time>2026-05-21T13:34:23.167Z</time>
      </trkpt>
      <trkpt lat="49.36865" lon="0.96059">
        <ele>50</ele>
        <time>2026-05-21T13:34:27.577Z</time>
      </trkpt>
      <trkpt lat="49.3686" lon="0.96059">
        <ele>50</ele>
        <time>2026-05-21T13:34:31.745Z</time>
      </trkpt>
      <trkpt lat="49.36855" lon="0.96057">
        <ele>50</ele>
        <time>2026-05-21T13:34:36.249Z</time>
      </trkpt>
      <trkpt lat="49.36851" lon="0.96056">
        <ele>50</ele>
        <time>2026-05-21T13:34:40.349Z</time>
      </trkpt>
      <trkpt lat="49.36845" lon="0.96055">
        <ele>47</ele>
        <time>2026-05-21T13:34:44.844Z</time>
      </trkpt>
      <trkpt lat="49.3684" lon="0.96055">
        <ele>47</ele>
        <time>2026-05-21T13:34:49.444Z</time>
      </trkpt>
      <trkpt lat="49.36835" lon="0.96055">
        <ele>47</ele>
        <time>2026-05-21T13:34:53.809Z</time>
      </trkpt>
      <trkpt lat="49.36831" lon="0.96054">
        <ele>47</ele>
        <time>2026-05-21T13:34:58.234Z</time>
      </trkpt>
      <trkpt lat="49.36825" lon="0.96053">
        <ele>47</ele>
        <time>2026-05-21T13:35:02.342Z</time>
      </trkpt>
      <trkpt lat="49.3682" lon="0.96052">
        <ele>47</ele>
        <time>2026-05-21T13:35:06.882Z</time>
      </trkpt>
      <trkpt lat="49.36815" lon="0.96051">
        <ele>45</ele>
        <time>2026-05-21T13:35:11.447Z</time>
      </trkpt>
      <trkpt lat="49.3681" lon="0.9605">
        <ele>45</ele>
        <time>2026-05-21T13:35:15.968Z</time>
      </trkpt>
      <trkpt lat="49.36806" lon="0.9605">
        <ele>45</ele>
        <time>2026-05-21T13:35:20.007Z</time>
      </trkpt>
      <trkpt lat="49.36801" lon="0.9605">
        <ele>45</ele>
        <time>2026-05-21T13:35:24.441Z</time>
      </trkpt>
      <trkpt lat="49.36795" lon="0.9605">
        <ele>45</ele>
        <time>2026-05-21T13:35:28.944Z</time>
      </trkpt>
      <trkpt lat="49.36791" lon="0.96049">
        <ele>44</ele>
        <time>2026-05-21T13:35:32.983Z</time>
      </trkpt>
      <trkpt lat="49.36786" lon="0.96048">
        <ele>44</ele>
        <time>2026-05-21T13:35:37.048Z</time>
      </trkpt>
      <trkpt lat="49.36782" lon="0.96047">
        <ele>44</ele>
        <time>2026-05-21T13:35:41.184Z</time>
      </trkpt>
      <trkpt lat="49.36777" lon="0.96046">
        <ele>44</ele>
        <time>2026-05-21T13:35:45.302Z</time>
      </trkpt>
      <trkpt lat="49.36772" lon="0.96045">
        <ele>44</ele>
        <time>2026-05-21T13:35:49.385Z</time>
      </trkpt>
      <trkpt lat="49.36768" lon="0.96045">
        <ele>44</ele>
        <time>2026-05-21T13:35:53.924Z</time>
      </trkpt>
      <trkpt lat="49.36763" lon="0.96044">
        <ele>44</ele>
        <time>2026-05-21T13:35:57.962Z</time>
      </trkpt>
      <trkpt lat="49.36759" lon="0.96045">
        <ele>44</ele>
        <time>2026-05-21T13:36:02.009Z</time>
      </trkpt>
      <trkpt lat="49.36754" lon="0.96044">
        <ele>44</ele>
        <time>2026-05-21T13:36:06.067Z</time>
      </trkpt>
      <trkpt lat="49.3675" lon="0.96043">
        <ele>44</ele>
        <time>2026-05-21T13:36:10.104Z</time>
      </trkpt>
      <trkpt lat="49.36745" lon="0.96043">
        <ele>44</ele>
        <time>2026-05-21T13:36:14.577Z</time>
      </trkpt>
      <trkpt lat="49.3674" lon="0.96042">
        <ele>43</ele>
        <time>2026-05-21T13:36:18.682Z</time>
      </trkpt>
      <trkpt lat="49.36736" lon="0.96041">
        <ele>43</ele>
        <time>2026-05-21T13:36:22.703Z</time>
      </trkpt>
      <trkpt lat="49.36731" lon="0.9604">
        <ele>43</ele>
        <time>2026-05-21T13:36:26.847Z</time>
      </trkpt>
      <trkpt lat="49.36727" lon="0.96039">
        <ele>43</ele>
        <time>2026-05-21T13:36:30.869Z</time>
      </trkpt>
      <trkpt lat="49.36722" lon="0.96038">
        <ele>43</ele>
        <time>2026-05-21T13:36:35.408Z</time>
      </trkpt>
      <trkpt lat="49.36717" lon="0.96037">
        <ele>43</ele>
        <time>2026-05-21T13:36:39.463Z</time>
      </trkpt>
      <trkpt lat="49.36712" lon="0.96036">
        <ele>43</ele>
        <time>2026-05-21T13:36:44.003Z</time>
      </trkpt>
      <trkpt lat="49.36708" lon="0.96035">
        <ele>43</ele>
        <time>2026-05-21T13:36:48.024Z</time>
      </trkpt>
      <trkpt lat="49.36704" lon="0.96034">
        <ele>43</ele>
        <time>2026-05-21T13:36:52.107Z</time>
      </trkpt>
      <trkpt lat="49.36699" lon="0.96033">
        <ele>43</ele>
        <time>2026-05-21T13:36:56.577Z</time>
      </trkpt>
      <trkpt lat="49.36694" lon="0.96033">
        <ele>43</ele>
        <time>2026-05-21T13:37:00.728Z</time>
      </trkpt>
      <trkpt lat="49.3669" lon="0.96032">
        <ele>43</ele>
        <time>2026-05-21T13:37:04.784Z</time>
      </trkpt>
      <trkpt lat="49.36684" lon="0.9603">
        <ele>43</ele>
        <time>2026-05-21T13:37:09.464Z</time>
      </trkpt>
      <trkpt lat="49.36679" lon="0.96029">
        <ele>43</ele>
        <time>2026-05-21T13:37:14.108Z</time>
      </trkpt>
      <trkpt lat="49.36674" lon="0.96029">
        <ele>43</ele>
        <time>2026-05-21T13:37:18.577Z</time>
      </trkpt>
      <trkpt lat="49.3667" lon="0.96028">
        <ele>43</ele>
        <time>2026-05-21T13:37:22.577Z</time>
      </trkpt>
      <trkpt lat="49.36666" lon="0.96027">
        <ele>43</ele>
        <time>2026-05-21T13:37:26.709Z</time>
      </trkpt>
      <trkpt lat="49.36661" lon="0.96026">
        <ele>43</ele>
        <time>2026-05-21T13:37:31.168Z</time>
      </trkpt>
      <trkpt lat="49.36656" lon="0.96025">
        <ele>43</ele>
        <time>2026-05-21T13:37:35.787Z</time>
      </trkpt>
      <trkpt lat="49.36651" lon="0.96024">
        <ele>43</ele>
        <time>2026-05-21T13:37:39.825Z</time>
      </trkpt>
      <trkpt lat="49.36646" lon="0.96023">
        <ele>43</ele>
        <time>2026-05-21T13:37:43.942Z</time>
      </trkpt>
      <trkpt lat="49.36641" lon="0.96022">
        <ele>43</ele>
        <time>2026-05-21T13:37:48.543Z</time>
      </trkpt>
      <trkpt lat="49.36636" lon="0.9602">
        <ele>43</ele>
        <time>2026-05-21T13:37:53.127Z</time>
      </trkpt>
      <trkpt lat="49.36632" lon="0.96019">
        <ele>43</ele>
        <time>2026-05-21T13:37:57.577Z</time>
      </trkpt>
      <trkpt lat="49.36627" lon="0.96018">
        <ele>43</ele>
        <time>2026-05-21T13:38:02.327Z</time>
      </trkpt>
      <trkpt lat="49.36621" lon="0.96017">
        <ele>44</ele>
        <time>2026-05-21T13:38:06.850Z</time>
      </trkpt>
      <trkpt lat="49.36616" lon="0.96016">
        <ele>44</ele>
        <time>2026-05-21T13:38:11.248Z</time>
      </trkpt>
      <trkpt lat="49.36611" lon="0.96015">
        <ele>44</ele>
        <time>2026-05-21T13:38:15.807Z</time>
      </trkpt>
      <trkpt lat="49.36605" lon="0.96015">
        <ele>44</ele>
        <time>2026-05-21T13:38:20.577Z</time>
      </trkpt>
      <trkpt lat="49.36601" lon="0.96014">
        <ele>44</ele>
        <time>2026-05-21T13:38:24.821Z</time>
      </trkpt>
      <trkpt lat="49.36596" lon="0.96013">
        <ele>43</ele>
        <time>2026-05-21T13:38:28.907Z</time>
      </trkpt>
      <trkpt lat="49.36585" lon="0.96013">
        <ele>43</ele>
        <time>2026-05-21T13:40:59.577Z</time>
      </trkpt>
      <trkpt lat="49.36585" lon="0.96013">
        <ele>43</ele>
        <time>2026-05-21T13:41:05.577Z</time>
      </trkpt>
      <trkpt lat="49.36584" lon="0.96013">
        <ele>43</ele>
        <time>2026-05-21T13:41:09.577Z</time>
      </trkpt>
      <trkpt lat="49.36583" lon="0.96014">
        <ele>43</ele>
        <time>2026-05-21T13:41:15.577Z</time>
      </trkpt>
      <trkpt lat="49.36582" lon="0.96014">
        <ele>43</ele>
        <time>2026-05-21T13:41:22.577Z</time>
      </trkpt>
      <trkpt lat="49.3658" lon="0.96014">
        <ele>44</ele>
        <time>2026-05-21T13:42:51.047Z</time>
      </trkpt>
      <trkpt lat="49.36579" lon="0.96014">
        <ele>44</ele>
        <time>2026-05-21T13:42:55.577Z</time>
      </trkpt>
      <trkpt lat="49.36578" lon="0.96014">
        <ele>44</ele>
        <time>2026-05-21T13:43:00.204Z</time>
      </trkpt>
      <trkpt lat="49.36574" lon="0.96013">
        <ele>43</ele>
        <time>2026-05-21T13:43:04.567Z</time>
      </trkpt>
      <trkpt lat="49.3657" lon="0.96012">
        <ele>43</ele>
        <time>2026-05-21T13:43:08.577Z</time>
      </trkpt>
      <trkpt lat="49.36566" lon="0.96011">
        <ele>42</ele>
        <time>2026-05-21T13:43:12.802Z</time>
      </trkpt>
      <trkpt lat="49.36561" lon="0.9601">
        <ele>42</ele>
        <time>2026-05-21T13:43:17.087Z</time>
      </trkpt>
      <trkpt lat="49.36557" lon="0.96009">
        <ele>42</ele>
        <time>2026-05-21T13:43:21.283Z</time>
      </trkpt>
      <trkpt lat="49.36553" lon="0.96008">
        <ele>42</ele>
        <time>2026-05-21T13:43:25.577Z</time>
      </trkpt>
      <trkpt lat="49.36544" lon="0.96006">
        <ele>42</ele>
        <time>2026-05-21T13:43:43.577Z</time>
      </trkpt>
      <trkpt lat="49.36543" lon="0.96006">
        <ele>42</ele>
        <time>2026-05-21T13:43:48.577Z</time>
      </trkpt>
      <trkpt lat="49.36537" lon="0.96005">
        <ele>39</ele>
        <time>2026-05-21T13:43:52.689Z</time>
      </trkpt>
      <trkpt lat="49.36533" lon="0.96004">
        <ele>39</ele>
        <time>2026-05-21T13:43:56.842Z</time>
      </trkpt>
      <trkpt lat="49.36529" lon="0.96003">
        <ele>39</ele>
        <time>2026-05-21T13:44:00.924Z</time>
      </trkpt>
      <trkpt lat="49.36524" lon="0.96002">
        <ele>39</ele>
        <time>2026-05-21T13:44:05.087Z</time>
      </trkpt>
      <trkpt lat="49.3652" lon="0.96001">
        <ele>39</ele>
        <time>2026-05-21T13:44:09.187Z</time>
      </trkpt>
      <trkpt lat="49.36515" lon="0.96001">
        <ele>39</ele>
        <time>2026-05-21T13:44:13.321Z</time>
      </trkpt>
      <trkpt lat="49.36511" lon="0.96">
        <ele>38</ele>
        <time>2026-05-21T13:44:17.544Z</time>
      </trkpt>
      <trkpt lat="49.36507" lon="0.95998">
        <ele>38</ele>
        <time>2026-05-21T13:44:21.577Z</time>
      </trkpt>
      <trkpt lat="49.36503" lon="0.95997">
        <ele>38</ele>
        <time>2026-05-21T13:44:25.702Z</time>
      </trkpt>
      <trkpt lat="49.36498" lon="0.95995">
        <ele>38</ele>
        <time>2026-05-21T13:44:30.425Z</time>
      </trkpt>
      <trkpt lat="49.36494" lon="0.95995">
        <ele>38</ele>
        <time>2026-05-21T13:44:34.577Z</time>
      </trkpt>
      <trkpt lat="49.3649" lon="0.95995">
        <ele>38</ele>
        <time>2026-05-21T13:44:38.784Z</time>
      </trkpt>
      <trkpt lat="49.36485" lon="0.95994">
        <ele>37</ele>
        <time>2026-05-21T13:44:43.508Z</time>
      </trkpt>
      <trkpt lat="49.36481" lon="0.95993">
        <ele>37</ele>
        <time>2026-05-21T13:44:47.577Z</time>
      </trkpt>
      <trkpt lat="49.36476" lon="0.95992">
        <ele>37</ele>
        <time>2026-05-21T13:44:51.867Z</time>
      </trkpt>
      <trkpt lat="49.36472" lon="0.95992">
        <ele>37</ele>
        <time>2026-05-21T13:44:55.983Z</time>
      </trkpt>
      <trkpt lat="49.36467" lon="0.95991">
        <ele>37</ele>
        <time>2026-05-21T13:45:00.207Z</time>
      </trkpt>
      <trkpt lat="49.36463" lon="0.9599">
        <ele>37</ele>
        <time>2026-05-21T13:45:04.368Z</time>
      </trkpt>
      <trkpt lat="49.36459" lon="0.95989">
        <ele>37</ele>
        <time>2026-05-21T13:45:08.502Z</time>
      </trkpt>
      <trkpt lat="49.36455" lon="0.95988">
        <ele>35</ele>
        <time>2026-05-21T13:45:12.577Z</time>
      </trkpt>
      <trkpt lat="49.36451" lon="0.95987">
        <ele>35</ele>
        <time>2026-05-21T13:45:16.782Z</time>
      </trkpt>
      <trkpt lat="49.36446" lon="0.95986">
        <ele>35</ele>
        <time>2026-05-21T13:45:20.927Z</time>
      </trkpt>
      <trkpt lat="49.36442" lon="0.95986">
        <ele>36</ele>
        <time>2026-05-21T13:45:25.124Z</time>
      </trkpt>
      <trkpt lat="49.36438" lon="0.95985">
        <ele>36</ele>
        <time>2026-05-21T13:45:29.363Z</time>
      </trkpt>
      <trkpt lat="49.36433" lon="0.95984">
        <ele>36</ele>
        <time>2026-05-21T13:45:33.482Z</time>
      </trkpt>
      <trkpt lat="49.36429" lon="0.95984">
        <ele>35</ele>
        <time>2026-05-21T13:45:37.577Z</time>
      </trkpt>
      <trkpt lat="49.36424" lon="0.95983">
        <ele>35</ele>
        <time>2026-05-21T13:45:41.928Z</time>
      </trkpt>
      <trkpt lat="49.3642" lon="0.95982">
        <ele>35</ele>
        <time>2026-05-21T13:45:46.265Z</time>
      </trkpt>
      <trkpt lat="49.36415" lon="0.95981">
        <ele>35</ele>
        <time>2026-05-21T13:45:50.868Z</time>
      </trkpt>
      <trkpt lat="49.36411" lon="0.9598">
        <ele>35</ele>
        <time>2026-05-21T13:45:55.088Z</time>
      </trkpt>
      <trkpt lat="49.36407" lon="0.95979">
        <ele>35</ele>
        <time>2026-05-21T13:45:59.347Z</time>
      </trkpt>
      <trkpt lat="49.36403" lon="0.95978">
        <ele>33</ele>
        <time>2026-05-21T13:46:03.562Z</time>
      </trkpt>
      <trkpt lat="49.36399" lon="0.95977">
        <ele>33</ele>
        <time>2026-05-21T13:46:07.863Z</time>
      </trkpt>
      <trkpt lat="49.36395" lon="0.95976">
        <ele>33</ele>
        <time>2026-05-21T13:46:12.087Z</time>
      </trkpt>
      <trkpt lat="49.3639" lon="0.95975">
        <ele>33</ele>
        <time>2026-05-21T13:46:16.362Z</time>
      </trkpt>
      <trkpt lat="49.36386" lon="0.95973">
        <ele>33</ele>
        <time>2026-05-21T13:46:20.462Z</time>
      </trkpt>
      <trkpt lat="49.36382" lon="0.95972">
        <ele>33</ele>
        <time>2026-05-21T13:46:24.577Z</time>
      </trkpt>
      <trkpt lat="49.36378" lon="0.95971">
        <ele>33</ele>
        <time>2026-05-21T13:46:28.927Z</time>
      </trkpt>
      <trkpt lat="49.36374" lon="0.9597">
        <ele>32</ele>
        <time>2026-05-21T13:46:33.123Z</time>
      </trkpt>
      <trkpt lat="49.3637" lon="0.95969">
        <ele>32</ele>
        <time>2026-05-21T13:46:37.425Z</time>
      </trkpt>
      <trkpt lat="49.36366" lon="0.95969">
        <ele>32</ele>
        <time>2026-05-21T13:46:41.577Z</time>
      </trkpt>
      <trkpt lat="49.36362" lon="0.95968">
        <ele>32</ele>
        <time>2026-05-21T13:46:45.923Z</time>
      </trkpt>
      <trkpt lat="49.36358" lon="0.95968">
        <ele>32</ele>
        <time>2026-05-21T13:46:50.067Z</time>
      </trkpt>
      <trkpt lat="49.36353" lon="0.95967">
        <ele>32</ele>
        <time>2026-05-21T13:46:54.282Z</time>
      </trkpt>
      <trkpt lat="49.36349" lon="0.95966">
        <ele>32</ele>
        <time>2026-05-21T13:46:58.585Z</time>
      </trkpt>
      <trkpt lat="49.36345" lon="0.95965">
        <ele>31</ele>
        <time>2026-05-21T13:47:02.728Z</time>
      </trkpt>
      <trkpt lat="49.36341" lon="0.95964">
        <ele>31</ele>
        <time>2026-05-21T13:47:07.083Z</time>
      </trkpt>
      <trkpt lat="49.36337" lon="0.95964">
        <ele>31</ele>
        <time>2026-05-21T13:47:11.244Z</time>
      </trkpt>
      <trkpt lat="49.36332" lon="0.95963">
        <ele>31</ele>
        <time>2026-05-21T13:47:15.467Z</time>
      </trkpt>
      <trkpt lat="49.36329" lon="0.95962">
        <ele>31</ele>
        <time>2026-05-21T13:47:19.577Z</time>
      </trkpt>
      <trkpt lat="49.36325" lon="0.95962">
        <ele>31</ele>
        <time>2026-05-21T13:47:23.782Z</time>
      </trkpt>
      <trkpt lat="49.3632" lon="0.95961">
        <ele>31</ele>
        <time>2026-05-21T13:47:27.988Z</time>
      </trkpt>
      <trkpt lat="49.36316" lon="0.9596">
        <ele>30</ele>
        <time>2026-05-21T13:47:32.228Z</time>
      </trkpt>
      <trkpt lat="49.36312" lon="0.95959">
        <ele>30</ele>
        <time>2026-05-21T13:47:36.506Z</time>
      </trkpt>
      <trkpt lat="49.36308" lon="0.95958">
        <ele>30</ele>
        <time>2026-05-21T13:47:40.577Z</time>
      </trkpt>
      <trkpt lat="49.36304" lon="0.95957">
        <ele>30</ele>
        <time>2026-05-21T13:47:44.987Z</time>
      </trkpt>
      <trkpt lat="49.363" lon="0.95957">
        <ele>30</ele>
        <time>2026-05-21T13:47:49.288Z</time>
      </trkpt>
      <trkpt lat="49.36296" lon="0.95956">
        <ele>30</ele>
        <time>2026-05-21T13:47:53.564Z</time>
      </trkpt>
      <trkpt lat="49.36291" lon="0.95955">
        <ele>29</ele>
        <time>2026-05-21T13:47:57.927Z</time>
      </trkpt>
      <trkpt lat="49.36287" lon="0.95954">
        <ele>29</ele>
        <time>2026-05-21T13:48:02.141Z</time>
      </trkpt>
      <trkpt lat="49.36283" lon="0.95952">
        <ele>29</ele>
        <time>2026-05-21T13:48:06.418Z</time>
      </trkpt>
      <trkpt lat="49.36279" lon="0.95951">
        <ele>29</ele>
        <time>2026-05-21T13:48:10.577Z</time>
      </trkpt>
      <trkpt lat="49.36275" lon="0.9595">
        <ele>29</ele>
        <time>2026-05-21T13:48:14.863Z</time>
      </trkpt>
      <trkpt lat="49.36271" lon="0.95948">
        <ele>29</ele>
        <time>2026-05-21T13:48:19.165Z</time>
      </trkpt>
      <trkpt lat="49.36266" lon="0.95947">
        <ele>29</ele>
        <time>2026-05-21T13:48:23.423Z</time>
      </trkpt>
      <trkpt lat="49.36262" lon="0.95947">
        <ele>30</ele>
        <time>2026-05-21T13:48:27.708Z</time>
      </trkpt>
      <trkpt lat="49.36258" lon="0.95946">
        <ele>30</ele>
        <time>2026-05-21T13:48:31.967Z</time>
      </trkpt>
      <trkpt lat="49.36253" lon="0.95945">
        <ele>30</ele>
        <time>2026-05-21T13:48:36.189Z</time>
      </trkpt>
      <trkpt lat="49.36249" lon="0.95944">
        <ele>30</ele>
        <time>2026-05-21T13:48:40.369Z</time>
      </trkpt>
      <trkpt lat="49.36245" lon="0.95943">
        <ele>30</ele>
        <time>2026-05-21T13:48:44.582Z</time>
      </trkpt>
      <trkpt lat="49.3624" lon="0.95943">
        <ele>30</ele>
        <time>2026-05-21T13:48:49.070Z</time>
      </trkpt>
      <trkpt lat="49.36236" lon="0.95942">
        <ele>29</ele>
        <time>2026-05-21T13:48:53.468Z</time>
      </trkpt>
      <trkpt lat="49.36232" lon="0.95941">
        <ele>29</ele>
        <time>2026-05-21T13:48:57.577Z</time>
      </trkpt>
      <trkpt lat="49.36228" lon="0.9594">
        <ele>29</ele>
        <time>2026-05-21T13:49:01.846Z</time>
      </trkpt>
      <trkpt lat="49.36224" lon="0.9594">
        <ele>29</ele>
        <time>2026-05-21T13:49:05.944Z</time>
      </trkpt>
      <trkpt lat="49.36219" lon="0.95939">
        <ele>29</ele>
        <time>2026-05-21T13:49:10.108Z</time>
      </trkpt>
      <trkpt lat="49.36215" lon="0.95938">
        <ele>29</ele>
        <time>2026-05-21T13:49:14.363Z</time>
      </trkpt>
      <trkpt lat="49.36211" lon="0.95938">
        <ele>29</ele>
        <time>2026-05-21T13:49:18.577Z</time>
      </trkpt>
      <trkpt lat="49.36207" lon="0.95937">
        <ele>28</ele>
        <time>2026-05-21T13:49:22.862Z</time>
      </trkpt>
      <trkpt lat="49.36203" lon="0.95936">
        <ele>28</ele>
        <time>2026-05-21T13:49:27.103Z</time>
      </trkpt>
      <trkpt lat="49.36199" lon="0.95935">
        <ele>28</ele>
        <time>2026-05-21T13:49:31.485Z</time>
      </trkpt>
      <trkpt lat="49.36195" lon="0.95933">
        <ele>28</ele>
        <time>2026-05-21T13:49:35.770Z</time>
      </trkpt>
      <trkpt lat="49.3619" lon="0.95933">
        <ele>28</ele>
        <time>2026-05-21T13:49:40.044Z</time>
      </trkpt>
      <trkpt lat="49.36187" lon="0.95932">
        <ele>28</ele>
        <time>2026-05-21T13:49:44.223Z</time>
      </trkpt>
      <trkpt lat="49.36182" lon="0.95931">
        <ele>28</ele>
        <time>2026-05-21T13:49:48.403Z</time>
      </trkpt>
      <trkpt lat="49.36178" lon="0.95931">
        <ele>27</ele>
        <time>2026-05-21T13:49:52.577Z</time>
      </trkpt>
      <trkpt lat="49.36174" lon="0.9593">
        <ele>28</ele>
        <time>2026-05-21T13:49:56.867Z</time>
      </trkpt>
      <trkpt lat="49.36169" lon="0.95929">
        <ele>28</ele>
        <time>2026-05-21T13:50:01.187Z</time>
      </trkpt>
      <trkpt lat="49.36165" lon="0.95928">
        <ele>28</ele>
        <time>2026-05-21T13:50:05.444Z</time>
      </trkpt>
      <trkpt lat="49.36161" lon="0.95927">
        <ele>28</ele>
        <time>2026-05-21T13:50:09.827Z</time>
      </trkpt>
      <trkpt lat="49.36157" lon="0.95926">
        <ele>28</ele>
        <time>2026-05-21T13:50:14.049Z</time>
      </trkpt>
      <trkpt lat="49.36153" lon="0.95925">
        <ele>28</ele>
        <time>2026-05-21T13:50:18.308Z</time>
      </trkpt>
      <trkpt lat="49.36149" lon="0.95923">
        <ele>28</ele>
        <time>2026-05-21T13:50:22.577Z</time>
      </trkpt>
      <trkpt lat="49.36144" lon="0.95923">
        <ele>28</ele>
        <time>2026-05-21T13:50:27.087Z</time>
      </trkpt>
      <trkpt lat="49.3614" lon="0.95923">
        <ele>28</ele>
        <time>2026-05-21T13:50:31.266Z</time>
      </trkpt>
      <trkpt lat="49.36136" lon="0.95921">
        <ele>28</ele>
        <time>2026-05-21T13:50:35.524Z</time>
      </trkpt>
      <trkpt lat="49.36132" lon="0.9592">
        <ele>28</ele>
        <time>2026-05-21T13:50:39.808Z</time>
      </trkpt>
      <trkpt lat="49.36128" lon="0.95919">
        <ele>28</ele>
        <time>2026-05-21T13:50:43.988Z</time>
      </trkpt>
      <trkpt lat="49.36123" lon="0.95918">
        <ele>28</ele>
        <time>2026-05-21T13:50:48.150Z</time>
      </trkpt>
      <trkpt lat="49.36118" lon="0.95917">
        <ele>28</ele>
        <time>2026-05-21T13:50:52.347Z</time>
      </trkpt>
      <trkpt lat="49.36115" lon="0.95916">
        <ele>28</ele>
        <time>2026-05-21T13:50:56.577Z</time>
      </trkpt>
      <trkpt lat="49.3611" lon="0.95915">
        <ele>28</ele>
        <time>2026-05-21T13:51:00.924Z</time>
      </trkpt>
      <trkpt lat="49.36105" lon="0.95914">
        <ele>28</ele>
        <time>2026-05-21T13:51:05.480Z</time>
      </trkpt>
      <trkpt lat="49.36101" lon="0.95913">
        <ele>28</ele>
        <time>2026-05-21T13:51:10.301Z</time>
      </trkpt>
      <trkpt lat="49.36096" lon="0.95912">
        <ele>29</ele>
        <time>2026-05-21T13:51:14.427Z</time>
      </trkpt>
      <trkpt lat="49.36092" lon="0.95911">
        <ele>29</ele>
        <time>2026-05-21T13:51:18.577Z</time>
      </trkpt>
      <trkpt lat="49.36087" lon="0.9591">
        <ele>29</ele>
        <time>2026-05-21T13:51:23.304Z</time>
      </trkpt>
      <trkpt lat="49.36083" lon="0.95909">
        <ele>29</ele>
        <time>2026-05-21T13:51:27.468Z</time>
      </trkpt>
      <trkpt lat="49.36079" lon="0.95909">
        <ele>29</ele>
        <time>2026-05-21T13:51:31.577Z</time>
      </trkpt>
      <trkpt lat="49.36075" lon="0.95907">
        <ele>29</ele>
        <time>2026-05-21T13:51:35.577Z</time>
      </trkpt>
      <trkpt lat="49.36071" lon="0.95906">
        <ele>29</ele>
        <time>2026-05-21T13:51:39.924Z</time>
      </trkpt>
      <trkpt lat="49.36067" lon="0.95905">
        <ele>27</ele>
        <time>2026-05-21T13:51:44.087Z</time>
      </trkpt>
      <trkpt lat="49.36063" lon="0.95904">
        <ele>27</ele>
        <time>2026-05-21T13:51:48.221Z</time>
      </trkpt>
      <trkpt lat="49.36058" lon="0.95903">
        <ele>27</ele>
        <time>2026-05-21T13:51:52.383Z</time>
      </trkpt>
      <trkpt lat="49.36054" lon="0.95902">
        <ele>25</ele>
        <time>2026-05-21T13:51:56.528Z</time>
      </trkpt>
      <trkpt lat="49.3605" lon="0.95901">
        <ele>25</ele>
        <time>2026-05-21T13:52:01.004Z</time>
      </trkpt>
      <trkpt lat="49.36045" lon="0.959">
        <ele>25</ele>
        <time>2026-05-21T13:52:05.043Z</time>
      </trkpt>
      <trkpt lat="49.36041" lon="0.95899">
        <ele>25</ele>
        <time>2026-05-21T13:52:09.187Z</time>
      </trkpt>
      <trkpt lat="49.36037" lon="0.95899">
        <ele>25</ele>
        <time>2026-05-21T13:52:13.384Z</time>
      </trkpt>
      <trkpt lat="49.36026" lon="0.95899">
        <ele>25</ele>
        <time>2026-05-21T13:53:05.577Z</time>
      </trkpt>
      <trkpt lat="49.36026" lon="0.95899">
        <ele>25</ele>
        <time>2026-05-21T13:53:12.577Z</time>
      </trkpt>
      <trkpt lat="49.36025" lon="0.95896">
        <ele>25</ele>
        <time>2026-05-21T13:53:16.577Z</time>
      </trkpt>
      <trkpt lat="49.36025" lon="0.95896">
        <ele>25</ele>
        <time>2026-05-21T13:53:21.402Z</time>
      </trkpt>
      <trkpt lat="49.36022" lon="0.95896">
        <ele>25</ele>
        <time>2026-05-21T13:53:25.577Z</time>
      </trkpt>
      <trkpt lat="49.36021" lon="0.95897">
        <ele>25</ele>
        <time>2026-05-21T13:53:30.577Z</time>
      </trkpt>
      <trkpt lat="49.36021" lon="0.95897">
        <ele>25</ele>
        <time>2026-05-21T13:53:34.577Z</time>
      </trkpt>
      <trkpt lat="49.36019" lon="0.95895">
        <ele>25</ele>
        <time>2026-05-21T13:53:38.577Z</time>
      </trkpt>
      <trkpt lat="49.36013" lon="0.95894">
        <ele>24</ele>
        <time>2026-05-21T13:53:42.887Z</time>
      </trkpt>
      <trkpt lat="49.36008" lon="0.95893">
        <ele>24</ele>
        <time>2026-05-21T13:53:47.347Z</time>
      </trkpt>
      <trkpt lat="49.36005" lon="0.95892">
        <ele>24</ele>
        <time>2026-05-21T13:53:51.447Z</time>
      </trkpt>
      <trkpt lat="49.36001" lon="0.95891">
        <ele>24</ele>
        <time>2026-05-21T13:53:55.577Z</time>
      </trkpt>
      <trkpt lat="49.35996" lon="0.9589">
        <ele>24</ele>
        <time>2026-05-21T13:53:59.989Z</time>
      </trkpt>
      <trkpt lat="49.35992" lon="0.95889">
        <ele>24</ele>
        <time>2026-05-21T13:54:04.168Z</time>
      </trkpt>
      <trkpt lat="49.35989" lon="0.95888">
        <ele>24</ele>
        <time>2026-05-21T13:54:08.365Z</time>
      </trkpt>
      <trkpt lat="49.35985" lon="0.95887">
        <ele>23</ele>
        <time>2026-05-21T13:54:12.483Z</time>
      </trkpt>
      <trkpt lat="49.35981" lon="0.95886">
        <ele>23</ele>
        <time>2026-05-21T13:54:16.583Z</time>
      </trkpt>
      <trkpt lat="49.35976" lon="0.95885">
        <ele>23</ele>
        <time>2026-05-21T13:54:20.807Z</time>
      </trkpt>
      <trkpt lat="49.35972" lon="0.95884">
        <ele>23</ele>
        <time>2026-05-21T13:54:25.127Z</time>
      </trkpt>
      <trkpt lat="49.35967" lon="0.95882">
        <ele>23</ele>
        <time>2026-05-21T13:54:29.541Z</time>
      </trkpt>
      <trkpt lat="49.35963" lon="0.95881">
        <ele>23</ele>
        <time>2026-05-21T13:54:33.747Z</time>
      </trkpt>
      <trkpt lat="49.35959" lon="0.9588">
        <ele>23</ele>
        <time>2026-05-21T13:54:38.042Z</time>
      </trkpt>
      <trkpt lat="49.35955" lon="0.95879">
        <ele>25</ele>
        <time>2026-05-21T13:54:42.264Z</time>
      </trkpt>
      <trkpt lat="49.35951" lon="0.95879">
        <ele>25</ele>
        <time>2026-05-21T13:54:46.577Z</time>
      </trkpt>
      <trkpt lat="49.35947" lon="0.95878">
        <ele>25</ele>
        <time>2026-05-21T13:54:50.903Z</time>
      </trkpt>
      <trkpt lat="49.35943" lon="0.95877">
        <ele>25</ele>
        <time>2026-05-21T13:54:55.268Z</time>
      </trkpt>
      <trkpt lat="49.35939" lon="0.95877">
        <ele>25</ele>
        <time>2026-05-21T13:54:59.482Z</time>
      </trkpt>
      <trkpt lat="49.35934" lon="0.95876">
        <ele>25</ele>
        <time>2026-05-21T13:55:03.924Z</time>
      </trkpt>
      <trkpt lat="49.3593" lon="0.95875">
        <ele>27</ele>
        <time>2026-05-21T13:55:08.147Z</time>
      </trkpt>
      <trkpt lat="49.35926" lon="0.95874">
        <ele>27</ele>
        <time>2026-05-21T13:55:12.484Z</time>
      </trkpt>
      <trkpt lat="49.35922" lon="0.95873">
        <ele>27</ele>
        <time>2026-05-21T13:55:16.577Z</time>
      </trkpt>
      <trkpt lat="49.35917" lon="0.95873">
        <ele>27</ele>
        <time>2026-05-21T13:55:20.728Z</time>
      </trkpt>
      <trkpt lat="49.35913" lon="0.9587">
        <ele>27</ele>
        <time>2026-05-21T13:55:24.784Z</time>
      </trkpt>
      <trkpt lat="49.35908" lon="0.95869">
        <ele>27</ele>
        <time>2026-05-21T13:55:29.465Z</time>
      </trkpt>
      <trkpt lat="49.35906" lon="0.95872">
        <ele>27</ele>
        <time>2026-05-21T13:55:37.901Z</time>
      </trkpt>
      <trkpt lat="49.35905" lon="0.9587">
        <ele>27</ele>
        <time>2026-05-21T13:55:42.283Z</time>
      </trkpt>
      <trkpt lat="49.35905" lon="0.95869">
        <ele>27</ele>
        <time>2026-05-21T13:55:46.577Z</time>
      </trkpt>
      <trkpt lat="49.35902" lon="0.95869">
        <ele>29</ele>
        <time>2026-05-21T13:55:51.182Z</time>
      </trkpt>
      <trkpt lat="49.35896" lon="0.95868">
        <ele>29</ele>
        <time>2026-05-21T13:55:55.362Z</time>
      </trkpt>
      <trkpt lat="49.35886" lon="0.95865">
        <ele>29</ele>
        <time>2026-05-21T13:56:17.577Z</time>
      </trkpt>
      <trkpt lat="49.35886" lon="0.95865">
        <ele>29</ele>
        <time>2026-05-21T13:56:22.577Z</time>
      </trkpt>
      <trkpt lat="49.35886" lon="0.95864">
        <ele>29</ele>
        <time>2026-05-21T13:56:28.577Z</time>
      </trkpt>
      <trkpt lat="49.35885" lon="0.95864">
        <ele>29</ele>
        <time>2026-05-21T13:56:32.843Z</time>
      </trkpt>
      <trkpt lat="49.3588" lon="0.95863">
        <ele>29</ele>
        <time>2026-05-21T13:56:37.383Z</time>
      </trkpt>
      <trkpt lat="49.35876" lon="0.95862">
        <ele>29</ele>
        <time>2026-05-21T13:56:41.577Z</time>
      </trkpt>
      <trkpt lat="49.35873" lon="0.95861">
        <ele>32</ele>
        <time>2026-05-21T13:56:46.224Z</time>
      </trkpt>
      <trkpt lat="49.35869" lon="0.95861">
        <ele>32</ele>
        <time>2026-05-21T13:56:50.577Z</time>
      </trkpt>
      <trkpt lat="49.35865" lon="0.9586">
        <ele>32</ele>
        <time>2026-05-21T13:56:54.987Z</time>
      </trkpt>
      <trkpt lat="49.3586" lon="0.9586">
        <ele>32</ele>
        <time>2026-05-21T13:56:59.246Z</time>
      </trkpt>
      <trkpt lat="49.35856" lon="0.95859">
        <ele>32</ele>
        <time>2026-05-21T13:57:03.521Z</time>
      </trkpt>
      <trkpt lat="49.35851" lon="0.95859">
        <ele>32</ele>
        <time>2026-05-21T13:57:08.027Z</time>
      </trkpt>
      <trkpt lat="49.35847" lon="0.9586">
        <ele>33</ele>
        <time>2026-05-21T13:57:12.128Z</time>
      </trkpt>
      <trkpt lat="49.35837" lon="0.95863">
        <ele>33</ele>
        <time>2026-05-21T13:57:33.577Z</time>
      </trkpt>
      <trkpt lat="49.35837" lon="0.95863">
        <ele>33</ele>
        <time>2026-05-21T13:57:38.887Z</time>
      </trkpt>
      <trkpt lat="49.35835" lon="0.95862">
        <ele>33</ele>
        <time>2026-05-21T13:57:43.269Z</time>
      </trkpt>
      <trkpt lat="49.35829" lon="0.95861">
        <ele>33</ele>
        <time>2026-05-21T13:57:47.544Z</time>
      </trkpt>
      <trkpt lat="49.35824" lon="0.95857">
        <ele>33</ele>
        <time>2026-05-21T13:57:51.848Z</time>
      </trkpt>
      <trkpt lat="49.3582" lon="0.95855">
        <ele>33</ele>
        <time>2026-05-21T13:57:56.087Z</time>
      </trkpt>
      <trkpt lat="49.35814" lon="0.95853">
        <ele>32</ele>
        <time>2026-05-21T13:58:00.426Z</time>
      </trkpt>
      <trkpt lat="49.3581" lon="0.95852">
        <ele>32</ele>
        <time>2026-05-21T13:58:04.586Z</time>
      </trkpt>
      <trkpt lat="49.35805" lon="0.95851">
        <ele>32</ele>
        <time>2026-05-21T13:58:08.747Z</time>
      </trkpt>
      <trkpt lat="49.35801" lon="0.95851">
        <ele>32</ele>
        <time>2026-05-21T13:58:12.908Z</time>
      </trkpt>
      <trkpt lat="49.35797" lon="0.9585">
        <ele>32</ele>
        <time>2026-05-21T13:58:17.202Z</time>
      </trkpt>
      <trkpt lat="49.35793" lon="0.95848">
        <ele>32</ele>
        <time>2026-05-21T13:58:21.347Z</time>
      </trkpt>
      <trkpt lat="49.35789" lon="0.95846">
        <ele>27</ele>
        <time>2026-05-21T13:58:25.577Z</time>
      </trkpt>
      <trkpt lat="49.35785" lon="0.95844">
        <ele>27</ele>
        <time>2026-05-21T13:58:29.783Z</time>
      </trkpt>
      <trkpt lat="49.3578" lon="0.95843">
        <ele>27</ele>
        <time>2026-05-21T13:58:34.041Z</time>
      </trkpt>
      <trkpt lat="49.35777" lon="0.95842">
        <ele>27</ele>
        <time>2026-05-21T13:58:38.247Z</time>
      </trkpt>
      <trkpt lat="49.35774" lon="0.95841">
        <ele>27</ele>
        <time>2026-05-21T13:58:42.488Z</time>
      </trkpt>
      <trkpt lat="49.35769" lon="0.95839">
        <ele>27</ele>
        <time>2026-05-21T13:58:46.781Z</time>
      </trkpt>
      <trkpt lat="49.35765" lon="0.95838">
        <ele>27</ele>
        <time>2026-05-21T13:58:51.163Z</time>
      </trkpt>
      <trkpt lat="49.35761" lon="0.95836">
        <ele>23</ele>
        <time>2026-05-21T13:58:55.368Z</time>
      </trkpt>
      <trkpt lat="49.35757" lon="0.95834">
        <ele>23</ele>
        <time>2026-05-21T13:58:59.577Z</time>
      </trkpt>
      <trkpt lat="49.35752" lon="0.95833">
        <ele>23</ele>
        <time>2026-05-21T13:59:03.929Z</time>
      </trkpt>
      <trkpt lat="49.35748" lon="0.95831">
        <ele>23</ele>
        <time>2026-05-21T13:59:08.222Z</time>
      </trkpt>
      <trkpt lat="49.35744" lon="0.9583">
        <ele>23</ele>
        <time>2026-05-21T13:59:12.463Z</time>
      </trkpt>
      <trkpt lat="49.35741" lon="0.95829">
        <ele>23</ele>
        <time>2026-05-21T13:59:16.577Z</time>
      </trkpt>
      <trkpt lat="49.35741" lon="0.95831">
        <ele>23</ele>
        <time>2026-05-21T14:00:28.577Z</time>
      </trkpt>
      <trkpt lat="49.35741" lon="0.95832">
        <ele>23</ele>
        <time>2026-05-21T14:00:32.577Z</time>
      </trkpt>
      <trkpt lat="49.35741" lon="0.95832">
        <ele>23</ele>
        <time>2026-05-21T14:00:37.163Z</time>
      </trkpt>
      <trkpt lat="49.35738" lon="0.95832">
        <ele>23</ele>
        <time>2026-05-21T14:00:41.484Z</time>
      </trkpt>
      <trkpt lat="49.35732" lon="0.9583">
        <ele>21</ele>
        <time>2026-05-21T14:00:45.707Z</time>
      </trkpt>
      <trkpt lat="49.35727" lon="0.95827">
        <ele>21</ele>
        <time>2026-05-21T14:00:59.543Z</time>
      </trkpt>
      <trkpt lat="49.35726" lon="0.95826">
        <ele>21</ele>
        <time>2026-05-21T14:01:03.577Z</time>
      </trkpt>
      <trkpt lat="49.35725" lon="0.95825">
        <ele>21</ele>
        <time>2026-05-21T14:01:07.805Z</time>
      </trkpt>
      <trkpt lat="49.3572" lon="0.95825">
        <ele>21</ele>
        <time>2026-05-21T14:01:11.844Z</time>
      </trkpt>
      <trkpt lat="49.35714" lon="0.95823">
        <ele>21</ele>
        <time>2026-05-21T14:01:16.008Z</time>
      </trkpt>
      <trkpt lat="49.3571" lon="0.9582">
        <ele>21</ele>
        <time>2026-05-21T14:01:20.185Z</time>
      </trkpt>
      <trkpt lat="49.35706" lon="0.95816">
        <ele>19</ele>
        <time>2026-05-21T14:01:24.348Z</time>
      </trkpt>
      <trkpt lat="49.35702" lon="0.95813">
        <ele>19</ele>
        <time>2026-05-21T14:01:28.429Z</time>
      </trkpt>
      <trkpt lat="49.35698" lon="0.9581">
        <ele>19</ele>
        <time>2026-05-21T14:01:32.577Z</time>
      </trkpt>
      <trkpt lat="49.35694" lon="0.95805">
        <ele>19</ele>
        <time>2026-05-21T14:01:50.577Z</time>
      </trkpt>
      <trkpt lat="49.35692" lon="0.95804">
        <ele>19</ele>
        <time>2026-05-21T14:01:55.089Z</time>
      </trkpt>
      <trkpt lat="49.35689" lon="0.95803">
        <ele>19</ele>
        <time>2026-05-21T14:01:59.577Z</time>
      </trkpt>
      <trkpt lat="49.35684" lon="0.958">
        <ele>19</ele>
        <time>2026-05-21T14:02:03.732Z</time>
      </trkpt>
      <trkpt lat="49.3568" lon="0.95797">
        <ele>20</ele>
        <time>2026-05-21T14:02:07.908Z</time>
      </trkpt>
      <trkpt lat="49.35677" lon="0.95774">
        <ele>19</ele>
        <time>2026-05-21T14:03:11.577Z</time>
      </trkpt>
      <trkpt lat="49.35676" lon="0.95773">
        <ele>19</ele>
        <time>2026-05-21T14:03:15.829Z</time>
      </trkpt>
      <trkpt lat="49.35675" lon="0.95766">
        <ele>19</ele>
        <time>2026-05-21T14:03:20.122Z</time>
      </trkpt>
      <trkpt lat="49.35672" lon="0.95759">
        <ele>17</ele>
        <time>2026-05-21T14:03:24.577Z</time>
      </trkpt>
      <trkpt lat="49.35671" lon="0.95752">
        <ele>17</ele>
        <time>2026-05-21T14:03:28.841Z</time>
      </trkpt>
      <trkpt lat="49.35668" lon="0.95746">
        <ele>17</ele>
        <time>2026-05-21T14:04:12.577Z</time>
      </trkpt>
      <trkpt lat="49.35663" lon="0.95739">
        <ele>17</ele>
        <time>2026-05-21T14:04:16.963Z</time>
      </trkpt>
      <trkpt lat="49.3566" lon="0.95734">
        <ele>17</ele>
        <time>2026-05-21T14:04:21.223Z</time>
      </trkpt>
      <trkpt lat="49.35657" lon="0.9573">
        <ele>17</ele>
        <time>2026-05-21T14:04:25.426Z</time>
      </trkpt>
      <trkpt lat="49.35654" lon="0.95726">
        <ele>17</ele>
        <time>2026-05-21T14:04:29.984Z</time>
      </trkpt>
      <trkpt lat="49.35652" lon="0.9572">
        <ele>20</ele>
        <time>2026-05-21T14:04:47.577Z</time>
      </trkpt>
      <trkpt lat="49.3565" lon="0.95719">
        <ele>20</ele>
        <time>2026-05-21T14:04:52.347Z</time>
      </trkpt>
      <trkpt lat="49.35644" lon="0.95713">
        <ele>20</ele>
        <time>2026-05-21T14:04:56.744Z</time>
      </trkpt>
      <trkpt lat="49.35644" lon="0.95711">
        <ele>20</ele>
        <time>2026-05-21T14:05:02.577Z</time>
      </trkpt>
      <trkpt lat="49.3564" lon="0.95708">
        <ele>18</ele>
        <time>2026-05-21T14:05:06.577Z</time>
      </trkpt>
      <trkpt lat="49.35637" lon="0.95706">
        <ele>18</ele>
        <time>2026-05-21T14:05:11.577Z</time>
      </trkpt>
      <trkpt lat="49.35637" lon="0.95705">
        <ele>18</ele>
        <time>2026-05-21T14:06:00.577Z</time>
      </trkpt>
      <trkpt lat="49.35637" lon="0.95705">
        <ele>18</ele>
        <time>2026-05-21T14:06:08.577Z</time>
      </trkpt>
      <trkpt lat="49.35634" lon="0.95702">
        <ele>18</ele>
        <time>2026-05-21T14:06:13.577Z</time>
      </trkpt>
      <trkpt lat="49.3563" lon="0.95697">
        <ele>18</ele>
        <time>2026-05-21T14:06:18.577Z</time>
      </trkpt>
      <trkpt lat="49.35627" lon="0.95693">
        <ele>18</ele>
        <time>2026-05-21T14:06:23.208Z</time>
      </trkpt>
      <trkpt lat="49.35623" lon="0.95688">
        <ele>20</ele>
        <time>2026-05-21T14:06:27.387Z</time>
      </trkpt>
      <trkpt lat="49.3562" lon="0.95684">
        <ele>20</ele>
        <time>2026-05-21T14:06:31.567Z</time>
      </trkpt>
      <trkpt lat="49.35617" lon="0.95681">
        <ele>20</ele>
        <time>2026-05-21T14:06:35.577Z</time>
      </trkpt>
      <trkpt lat="49.35615" lon="0.95677">
        <ele>18</ele>
        <time>2026-05-21T14:06:39.577Z</time>
      </trkpt>
      <trkpt lat="49.35612" lon="0.95671">
        <ele>18</ele>
        <time>2026-05-21T14:06:43.824Z</time>
      </trkpt>
      <trkpt lat="49.35609" lon="0.95667">
        <ele>18</ele>
        <time>2026-05-21T14:06:47.923Z</time>
      </trkpt>
      <trkpt lat="49.35606" lon="0.95664">
        <ele>18</ele>
        <time>2026-05-21T14:06:52.041Z</time>
      </trkpt>
      <trkpt lat="49.35603" lon="0.9566">
        <ele>18</ele>
        <time>2026-05-21T14:06:56.205Z</time>
      </trkpt>
      <trkpt lat="49.35599" lon="0.95659">
        <ele>18</ele>
        <time>2026-05-21T14:07:00.577Z</time>
      </trkpt>
      <trkpt lat="49.35597" lon="0.95657">
        <ele>19</ele>
        <time>2026-05-21T14:07:05.202Z</time>
      </trkpt>
      <trkpt lat="49.35594" lon="0.95652">
        <ele>16</ele>
        <time>2026-05-21T14:07:09.567Z</time>
      </trkpt>
      <trkpt lat="49.35591" lon="0.95643">
        <ele>16</ele>
        <time>2026-05-21T14:07:27.577Z</time>
      </trkpt>
      <trkpt lat="49.3559" lon="0.95642">
        <ele>16</ele>
        <time>2026-05-21T14:07:32.368Z</time>
      </trkpt>
      <trkpt lat="49.35584" lon="0.95637">
        <ele>16</ele>
        <time>2026-05-21T14:07:36.925Z</time>
      </trkpt>
      <trkpt lat="49.3558" lon="0.95631">
        <ele>16</ele>
        <time>2026-05-21T14:07:41.069Z</time>
      </trkpt>
      <trkpt lat="49.35577" lon="0.95627">
        <ele>16</ele>
        <time>2026-05-21T14:07:45.065Z</time>
      </trkpt>
      <trkpt lat="49.35574" lon="0.95623">
        <ele>14</ele>
        <time>2026-05-21T14:07:49.577Z</time>
      </trkpt>
      <trkpt lat="49.35571" lon="0.9562">
        <ele>14</ele>
        <time>2026-05-21T14:07:53.577Z</time>
      </trkpt>
      <trkpt lat="49.35567" lon="0.95616">
        <ele>17</ele>
        <time>2026-05-21T14:07:58.303Z</time>
      </trkpt>
      <trkpt lat="49.35563" lon="0.95614">
        <ele>17</ele>
        <time>2026-05-21T14:08:02.527Z</time>
      </trkpt>
      <trkpt lat="49.35559" lon="0.95612">
        <ele>17</ele>
        <time>2026-05-21T14:08:06.577Z</time>
      </trkpt>
      <trkpt lat="49.35555" lon="0.9561">
        <ele>17</ele>
        <time>2026-05-21T14:08:10.744Z</time>
      </trkpt>
      <trkpt lat="49.35552" lon="0.95608">
        <ele>17</ele>
        <time>2026-05-21T14:08:15.047Z</time>
      </trkpt>
      <trkpt lat="49.35548" lon="0.95605">
        <ele>17</ele>
        <time>2026-05-21T14:08:19.182Z</time>
      </trkpt>
      <trkpt lat="49.35545" lon="0.95602">
        <ele>17</ele>
        <time>2026-05-21T14:08:23.343Z</time>
      </trkpt>
      <trkpt lat="49.35541" lon="0.95599">
        <ele>19</ele>
        <time>2026-05-21T14:08:27.567Z</time>
      </trkpt>
      <trkpt lat="49.35538" lon="0.95595">
        <ele>15</ele>
        <time>2026-05-21T14:08:31.747Z</time>
      </trkpt>
      <trkpt lat="49.35534" lon="0.95592">
        <ele>15</ele>
        <time>2026-05-21T14:08:35.927Z</time>
      </trkpt>
      <trkpt lat="49.3553" lon="0.95589">
        <ele>15</ele>
        <time>2026-05-21T14:08:40.043Z</time>
      </trkpt>
      <trkpt lat="49.35527" lon="0.95587">
        <ele>15</ele>
        <time>2026-05-21T14:08:44.267Z</time>
      </trkpt>
      <trkpt lat="49.35523" lon="0.95584">
        <ele>15</ele>
        <time>2026-05-21T14:08:48.349Z</time>
      </trkpt>
      <trkpt lat="49.35518" lon="0.95582">
        <ele>15</ele>
        <time>2026-05-21T14:08:52.485Z</time>
      </trkpt>
      <trkpt lat="49.35514" lon="0.9558">
        <ele>16</ele>
        <time>2026-05-21T14:08:57.304Z</time>
      </trkpt>
      <trkpt lat="49.3551" lon="0.95578">
        <ele>16</ele>
        <time>2026-05-21T14:09:01.563Z</time>
      </trkpt>
      <trkpt lat="49.35506" lon="0.95577">
        <ele>16</ele>
        <time>2026-05-21T14:09:05.577Z</time>
      </trkpt>
      <trkpt lat="49.35504" lon="0.95578">
        <ele>16</ele>
        <time>2026-05-21T14:09:10.577Z</time>
      </trkpt>
      <trkpt lat="49.35505" lon="0.95578">
        <ele>16</ele>
        <time>2026-05-21T14:09:14.577Z</time>
      </trkpt>
      <trkpt lat="49.35503" lon="0.95577">
        <ele>16</ele>
        <time>2026-05-21T14:09:19.029Z</time>
      </trkpt>
      <trkpt lat="49.35498" lon="0.95572">
        <ele>16</ele>
        <time>2026-05-21T14:09:23.442Z</time>
      </trkpt>
      <trkpt lat="49.35493" lon="0.9557">
        <ele>16</ele>
        <time>2026-05-21T14:09:27.577Z</time>
      </trkpt>
      <trkpt lat="49.35488" lon="0.95569">
        <ele>14</ele>
        <time>2026-05-21T14:09:31.748Z</time>
      </trkpt>
      <trkpt lat="49.35484" lon="0.95569">
        <ele>15</ele>
        <time>2026-05-21T14:09:35.782Z</time>
      </trkpt>
      <trkpt lat="49.35477" lon="0.95568">
        <ele>15</ele>
        <time>2026-05-21T14:09:40.269Z</time>
      </trkpt>
      <trkpt lat="49.35471" lon="0.95566">
        <ele>15</ele>
        <time>2026-05-21T14:09:44.725Z</time>
      </trkpt>
      <trkpt lat="49.35467" lon="0.95565">
        <ele>15</ele>
        <time>2026-05-21T14:09:48.904Z</time>
      </trkpt>
      <trkpt lat="49.35463" lon="0.95566">
        <ele>15</ele>
        <time>2026-05-21T14:09:52.943Z</time>
      </trkpt>
      <trkpt lat="49.35459" lon="0.95566">
        <ele>15</ele>
        <time>2026-05-21T14:09:57.509Z</time>
      </trkpt>
      <trkpt lat="49.35455" lon="0.95565">
        <ele>15</ele>
        <time>2026-05-21T14:10:01.909Z</time>
      </trkpt>
      <trkpt lat="49.35451" lon="0.95566">
        <ele>15</ele>
        <time>2026-05-21T14:10:06.414Z</time>
      </trkpt>
      <trkpt lat="49.35448" lon="0.95566">
        <ele>15</ele>
        <time>2026-05-21T14:10:10.784Z</time>
      </trkpt>
      <trkpt lat="49.35445" lon="0.95566">
        <ele>15</ele>
        <time>2026-05-21T14:10:15.122Z</time>
      </trkpt>
      <trkpt lat="49.3544" lon="0.95566">
        <ele>15</ele>
        <time>2026-05-21T14:10:19.127Z</time>
      </trkpt>
      <trkpt lat="49.35436" lon="0.95567">
        <ele>15</ele>
        <time>2026-05-21T14:10:23.488Z</time>
      </trkpt>
      <trkpt lat="49.35432" lon="0.95566">
        <ele>15</ele>
        <time>2026-05-21T14:10:27.577Z</time>
      </trkpt>
      <trkpt lat="49.35429" lon="0.95565">
        <ele>13</ele>
        <time>2026-05-21T14:10:31.890Z</time>
      </trkpt>
      <trkpt lat="49.35426" lon="0.95565">
        <ele>13</ele>
        <time>2026-05-21T14:10:36.577Z</time>
      </trkpt>
      <trkpt lat="49.35423" lon="0.95564">
        <ele>13</ele>
        <time>2026-05-21T14:10:41.215Z</time>
      </trkpt>
      <trkpt lat="49.3542" lon="0.95564">
        <ele>13</ele>
        <time>2026-05-21T14:10:45.351Z</time>
      </trkpt>
      <trkpt lat="49.35415" lon="0.95565">
        <ele>13</ele>
        <time>2026-05-21T14:10:49.531Z</time>
      </trkpt>
      <trkpt lat="49.35411" lon="0.95564">
        <ele>13</ele>
        <time>2026-05-21T14:10:53.577Z</time>
      </trkpt>
      <trkpt lat="49.35407" lon="0.95561">
        <ele>13</ele>
        <time>2026-05-21T14:10:58.038Z</time>
      </trkpt>
      <trkpt lat="49.35404" lon="0.95558">
        <ele>13</ele>
        <time>2026-05-21T14:11:02.253Z</time>
      </trkpt>
      <trkpt lat="49.35402" lon="0.95553">
        <ele>11</ele>
        <time>2026-05-21T14:11:06.476Z</time>
      </trkpt>
      <trkpt lat="49.354" lon="0.95548">
        <ele>11</ele>
        <time>2026-05-21T14:11:10.577Z</time>
      </trkpt>
      <trkpt lat="49.35398" lon="0.95542">
        <ele>11</ele>
        <time>2026-05-21T14:11:14.791Z</time>
      </trkpt>
      <trkpt lat="49.35399" lon="0.95535">
        <ele>11</ele>
        <time>2026-05-21T14:11:19.031Z</time>
      </trkpt>
      <trkpt lat="49.354" lon="0.95529">
        <ele>11</ele>
        <time>2026-05-21T14:11:23.193Z</time>
      </trkpt>
      <trkpt lat="49.35399" lon="0.95524">
        <ele>11</ele>
        <time>2026-05-21T14:11:27.513Z</time>
      </trkpt>
      <trkpt lat="49.35398" lon="0.95517">
        <ele>11</ele>
        <time>2026-05-21T14:11:31.991Z</time>
      </trkpt>
      <trkpt lat="49.35395" lon="0.95512">
        <ele>9</ele>
        <time>2026-05-21T14:11:36.372Z</time>
      </trkpt>
      <trkpt lat="49.35393" lon="0.95508">
        <ele>9</ele>
        <time>2026-05-21T14:11:40.893Z</time>
      </trkpt>
      <trkpt lat="49.35391" lon="0.95503">
        <ele>9</ele>
        <time>2026-05-21T14:11:44.978Z</time>
      </trkpt>
      <trkpt lat="49.3539" lon="0.95495">
        <ele>9</ele>
        <time>2026-05-21T14:11:49.234Z</time>
      </trkpt>
      <trkpt lat="49.35389" lon="0.95488">
        <ele>9</ele>
        <time>2026-05-21T14:11:53.494Z</time>
      </trkpt>
      <trkpt lat="49.35388" lon="0.95481">
        <ele>8</ele>
        <time>2026-05-21T14:11:57.812Z</time>
      </trkpt>
      <trkpt lat="49.35389" lon="0.95475">
        <ele>8</ele>
        <time>2026-05-21T14:12:02.053Z</time>
      </trkpt>
      <trkpt lat="49.35388" lon="0.95469">
        <ele>8</ele>
        <time>2026-05-21T14:12:06.452Z</time>
      </trkpt>
      <trkpt lat="49.35388" lon="0.95463">
        <ele>8</ele>
        <time>2026-05-21T14:12:10.577Z</time>
      </trkpt>
      <trkpt lat="49.35387" lon="0.95458">
        <ele>7</ele>
        <time>2026-05-21T14:12:15.014Z</time>
      </trkpt>
      <trkpt lat="49.35387" lon="0.95452">
        <ele>7</ele>
        <time>2026-05-21T14:12:19.114Z</time>
      </trkpt>
      <trkpt lat="49.35384" lon="0.95451">
        <ele>7</ele>
        <time>2026-05-21T14:12:28.577Z</time>
      </trkpt>
      <trkpt lat="49.35384" lon="0.95447">
        <ele>7</ele>
        <time>2026-05-21T14:12:32.775Z</time>
      </trkpt>
      <trkpt lat="49.35384" lon="0.95443">
        <ele>7</ele>
        <time>2026-05-21T14:12:37.577Z</time>
      </trkpt>
      <trkpt lat="49.35384" lon="0.95443">
        <ele>7</ele>
        <time>2026-05-21T14:12:41.915Z</time>
      </trkpt>
      <trkpt lat="49.35384" lon="0.95436">
        <ele>7</ele>
        <time>2026-05-21T14:12:46.577Z</time>
      </trkpt>
      <trkpt lat="49.35384" lon="0.95436">
        <ele>7</ele>
        <time>2026-05-21T14:12:55.577Z</time>
      </trkpt>
      <trkpt lat="49.35384" lon="0.95436">
        <ele>7</ele>
        <time>2026-05-21T14:13:00.577Z</time>
      </trkpt>
      <trkpt lat="49.35384" lon="0.9543">
        <ele>6</ele>
        <time>2026-05-21T14:13:05.173Z</time>
      </trkpt>
      <trkpt lat="49.35383" lon="0.95423">
        <ele>6</ele>
        <time>2026-05-21T14:13:09.318Z</time>
      </trkpt>
      <trkpt lat="49.35379" lon="0.95418">
        <ele>6</ele>
        <time>2026-05-21T14:13:13.577Z</time>
      </trkpt>
      <trkpt lat="49.35374" lon="0.95416">
        <ele>6</ele>
        <time>2026-05-21T14:13:18.037Z</time>
      </trkpt>
      <trkpt lat="49.3537" lon="0.95416">
        <ele>6</ele>
        <time>2026-05-21T14:13:22.357Z</time>
      </trkpt>
      <trkpt lat="49.35369" lon="0.95416">
        <ele>6</ele>
        <time>2026-05-21T14:13:26.577Z</time>
      </trkpt>
      <trkpt lat="49.35366" lon="0.95417">
        <ele>6</ele>
        <time>2026-05-21T14:13:30.873Z</time>
      </trkpt>
      <trkpt lat="49.35363" lon="0.95419">
        <ele>6</ele>
        <time>2026-05-21T14:13:35.253Z</time>
      </trkpt>
      <trkpt lat="49.3536" lon="0.95419">
        <ele>6</ele>
        <time>2026-05-21T14:13:39.577Z</time>
      </trkpt>
      <trkpt lat="49.35357" lon="0.95418">
        <ele>6</ele>
        <time>2026-05-21T14:13:43.797Z</time>
      </trkpt>
      <trkpt lat="49.35353" lon="0.95419">
        <ele>6</ele>
        <time>2026-05-21T14:13:48.476Z</time>
      </trkpt>
      <trkpt lat="49.35349" lon="0.95418">
        <ele>6</ele>
        <time>2026-05-21T14:13:52.971Z</time>
      </trkpt>
      <trkpt lat="49.35345" lon="0.95417">
        <ele>6</ele>
        <time>2026-05-21T14:13:57.475Z</time>
      </trkpt>
      <trkpt lat="49.35341" lon="0.95416">
        <ele>6</ele>
        <time>2026-05-21T14:14:02.077Z</time>
      </trkpt>
      <trkpt lat="49.35339" lon="0.95415">
        <ele>6</ele>
        <time>2026-05-21T14:14:06.212Z</time>
      </trkpt>
      <trkpt lat="49.35337" lon="0.95418">
        <ele>6</ele>
        <time>2026-05-21T14:14:10.577Z</time>
      </trkpt>
      <trkpt lat="49.35334" lon="0.95417">
        <ele>6</ele>
        <time>2026-05-21T14:14:15.255Z</time>
      </trkpt>
      <trkpt lat="49.35325" lon="0.95418">
        <ele>6</ele>
        <time>2026-05-21T14:14:44.577Z</time>
      </trkpt>
      <trkpt lat="49.35325" lon="0.95418">
        <ele>6</ele>
        <time>2026-05-21T14:14:54.575Z</time>
      </trkpt>
      <trkpt lat="49.35325" lon="0.95418">
        <ele>6</ele>
        <time>2026-05-21T14:14:59.577Z</time>
      </trkpt>
      <trkpt lat="49.35324" lon="0.95418">
        <ele>6</ele>
        <time>2026-05-21T14:15:03.577Z</time>
      </trkpt>
      <trkpt lat="49.35319" lon="0.95418">
        <ele>3</ele>
        <time>2026-05-21T14:15:08.338Z</time>
      </trkpt>
      <trkpt lat="49.35315" lon="0.95417">
        <ele>3</ele>
        <time>2026-05-21T14:15:12.957Z</time>
      </trkpt>
      <trkpt lat="49.35315" lon="0.95417">
        <ele>3</ele>
        <time>2026-05-21T14:15:18.111Z</time>
      </trkpt>
      <trkpt lat="49.35312" lon="0.95416">
        <ele>3</ele>
        <time>2026-05-21T14:15:22.492Z</time>
      </trkpt>
      <trkpt lat="49.35309" lon="0.95415">
        <ele>3</ele>
        <time>2026-05-21T14:15:27.093Z</time>
      </trkpt>
      <trkpt lat="49.35306" lon="0.95412">
        <ele>3</ele>
        <time>2026-05-21T14:15:31.333Z</time>
      </trkpt>
      <trkpt lat="49.353" lon="0.95409">
        <ele>3</ele>
        <time>2026-05-21T14:15:35.577Z</time>
      </trkpt>
      <trkpt lat="49.35294" lon="0.9541">
        <ele>3</ele>
        <time>2026-05-21T14:15:40.095Z</time>
      </trkpt>
      <trkpt lat="49.35288" lon="0.95412">
        <ele>3</ele>
        <time>2026-05-21T14:15:44.577Z</time>
      </trkpt>
      <trkpt lat="49.35284" lon="0.95413">
        <ele>3</ele>
        <time>2026-05-21T14:15:48.577Z</time>
      </trkpt>
      <trkpt lat="49.35276" lon="0.9541">
        <ele>3</ele>
        <time>2026-05-21T14:28:41.576Z</time>
      </trkpt>
      <trkpt lat="49.35276" lon="0.95412">
        <ele>3</ele>
        <time>2026-05-21T14:28:46.575Z</time>
      </trkpt>
      <trkpt lat="49.35275" lon="0.95414">
        <ele>3</ele>
        <time>2026-05-21T14:28:50.575Z</time>
      </trkpt>
      <trkpt lat="49.35275" lon="0.95419">
        <ele>3</ele>
        <time>2026-05-21T14:28:55.577Z</time>
      </trkpt>
      <trkpt lat="49.35276" lon="0.95427">
        <ele>3</ele>
        <time>2026-05-21T14:29:00.577Z</time>
      </trkpt>
      <trkpt lat="49.35275" lon="0.95433">
        <ele>3</ele>
        <time>2026-05-21T14:29:05.577Z</time>
      </trkpt>
      <trkpt lat="49.35274" lon="0.9544">
        <ele>3</ele>
        <time>2026-05-21T14:29:10.575Z</time>
      </trkpt>
      <trkpt lat="49.35274" lon="0.95445">
        <ele>3</ele>
        <time>2026-05-21T14:29:14.577Z</time>
      </trkpt>
      <trkpt lat="49.35274" lon="0.95447">
        <ele>3</ele>
        <time>2026-05-21T14:29:19.577Z</time>
      </trkpt>
      <trkpt lat="49.35275" lon="0.95451">
        <ele>3</ele>
        <time>2026-05-21T14:29:24.577Z</time>
      </trkpt>
      <trkpt lat="49.35274" lon="0.95457">
        <ele>3</ele>
        <time>2026-05-21T14:29:29.577Z</time>
      </trkpt>
      <trkpt lat="49.35274" lon="0.95464">
        <ele>3</ele>
        <time>2026-05-21T14:29:34.577Z</time>
      </trkpt>
      <trkpt lat="49.35274" lon="0.95471">
        <ele>3</ele>
        <time>2026-05-21T14:29:39.577Z</time>
      </trkpt>
      <trkpt lat="49.35274" lon="0.95478">
        <ele>3</ele>
        <time>2026-05-21T14:29:44.577Z</time>
      </trkpt>
      <trkpt lat="49.35274" lon="0.95487">
        <ele>4</ele>
        <time>2026-05-21T14:29:49.577Z</time>
      </trkpt>
      <trkpt lat="49.35274" lon="0.95494">
        <ele>4</ele>
        <time>2026-05-21T14:29:53.577Z</time>
      </trkpt>
      <trkpt lat="49.35276" lon="0.95497">
        <ele>4</ele>
        <time>2026-05-21T14:29:58.577Z</time>
      </trkpt>
      <trkpt lat="49.35277" lon="0.95504">
        <ele>4</ele>
        <time>2026-05-21T14:30:03.577Z</time>
      </trkpt>
      <trkpt lat="49.35277" lon="0.95512">
        <ele>4</ele>
        <time>2026-05-21T14:30:08.577Z</time>
      </trkpt>
      <trkpt lat="49.35276" lon="0.95519">
        <ele>4</ele>
        <time>2026-05-21T14:30:13.577Z</time>
      </trkpt>
      <trkpt lat="49.35276" lon="0.95525">
        <ele>4</ele>
        <time>2026-05-21T14:30:17.577Z</time>
      </trkpt>
      <trkpt lat="49.35275" lon="0.95533">
        <ele>4</ele>
        <time>2026-05-21T14:30:22.576Z</time>
      </trkpt>
      <trkpt lat="49.35275" lon="0.95541">
        <ele>4</ele>
        <time>2026-05-21T14:30:27.577Z</time>
      </trkpt>
      <trkpt lat="49.35275" lon="0.9555">
        <ele>4</ele>
        <time>2026-05-21T14:30:32.577Z</time>
      </trkpt>
      <trkpt lat="49.35274" lon="0.95558">
        <ele>4</ele>
        <time>2026-05-21T14:30:36.716Z</time>
      </trkpt>
      <trkpt lat="49.35274" lon="0.95556">
        <ele>4</ele>
        <time>2026-05-21T14:30:41.577Z</time>
      </trkpt>
      <trkpt lat="49.35274" lon="0.95557">
        <ele>4</ele>
        <time>2026-05-21T14:30:45.951Z</time>
      </trkpt>
      <trkpt lat="49.35276" lon="0.95562">
        <ele>4</ele>
        <time>2026-05-21T14:30:50.576Z</time>
      </trkpt>
      <trkpt lat="49.35277" lon="0.9557">
        <ele>3</ele>
        <time>2026-05-21T14:30:55.576Z</time>
      </trkpt>
      <trkpt lat="49.35276" lon="0.95571">
        <ele>3</ele>
        <time>2026-05-21T14:30:59.577Z</time>
      </trkpt>
      <trkpt lat="49.35276" lon="0.95572">
        <ele>3</ele>
        <time>2026-05-21T14:31:04.116Z</time>
      </trkpt>
      <trkpt lat="49.35275" lon="0.95574">
        <ele>3</ele>
        <time>2026-05-21T14:31:08.471Z</time>
      </trkpt>
      <trkpt lat="49.35274" lon="0.95586">
        <ele>3</ele>
        <time>2026-05-21T14:31:12.914Z</time>
      </trkpt>
      <trkpt lat="49.35273" lon="0.95595">
        <ele>3</ele>
        <time>2026-05-21T14:31:17.418Z</time>
      </trkpt>
      <trkpt lat="49.35273" lon="0.95603">
        <ele>5</ele>
        <time>2026-05-21T14:31:21.878Z</time>
      </trkpt>
      <trkpt lat="49.35273" lon="0.95611">
        <ele>5</ele>
        <time>2026-05-21T14:31:26.312Z</time>
      </trkpt>
      <trkpt lat="49.35273" lon="0.95618">
        <ele>5</ele>
        <time>2026-05-21T14:31:30.833Z</time>
      </trkpt>
      <trkpt lat="49.35274" lon="0.95626">
        <ele>6</ele>
        <time>2026-05-21T14:31:35.337Z</time>
      </trkpt>
      <trkpt lat="49.35274" lon="0.95633">
        <ele>6</ele>
        <time>2026-05-21T14:31:39.798Z</time>
      </trkpt>
      <trkpt lat="49.35273" lon="0.9564">
        <ele>6</ele>
        <time>2026-05-21T14:31:44.417Z</time>
      </trkpt>
      <trkpt lat="49.35273" lon="0.95646">
        <ele>6</ele>
        <time>2026-05-21T14:31:48.910Z</time>
      </trkpt>
      <trkpt lat="49.35272" lon="0.95653">
        <ele>6</ele>
        <time>2026-05-21T14:31:53.460Z</time>
      </trkpt>
      <trkpt lat="49.3527" lon="0.95658">
        <ele>6</ele>
        <time>2026-05-21T14:31:57.577Z</time>
      </trkpt>
      <trkpt lat="49.35271" lon="0.95666">
        <ele>6</ele>
        <time>2026-05-21T14:32:01.756Z</time>
      </trkpt>
      <trkpt lat="49.35272" lon="0.95668">
        <ele>6</ele>
        <time>2026-05-21T14:32:08.577Z</time>
      </trkpt>
      <trkpt lat="49.35272" lon="0.95668">
        <ele>6</ele>
        <time>2026-05-21T14:32:13.038Z</time>
      </trkpt>
      <trkpt lat="49.35271" lon="0.95671">
        <ele>6</ele>
        <time>2026-05-21T14:32:18.095Z</time>
      </trkpt>
      <trkpt lat="49.35271" lon="0.95683">
        <ele>6</ele>
        <time>2026-05-21T14:32:22.575Z</time>
      </trkpt>
      <trkpt lat="49.35272" lon="0.95694">
        <ele>6</ele>
        <time>2026-05-21T14:32:27.094Z</time>
      </trkpt>
      <trkpt lat="49.35272" lon="0.95703">
        <ele>6</ele>
        <time>2026-05-21T14:32:31.577Z</time>
      </trkpt>
      <trkpt lat="49.35272" lon="0.95711">
        <ele>6</ele>
        <time>2026-05-21T14:32:35.891Z</time>
      </trkpt>
      <trkpt lat="49.35272" lon="0.95718">
        <ele>6</ele>
        <time>2026-05-21T14:32:40.237Z</time>
      </trkpt>
      <trkpt lat="49.35272" lon="0.95724">
        <ele>6</ele>
        <time>2026-05-21T14:32:44.276Z</time>
      </trkpt>
      <trkpt lat="49.35273" lon="0.95731">
        <ele>6</ele>
        <time>2026-05-21T14:32:48.576Z</time>
      </trkpt>
      <trkpt lat="49.35273" lon="0.95739">
        <ele>5</ele>
        <time>2026-05-21T14:32:53.118Z</time>
      </trkpt>
      <trkpt lat="49.35274" lon="0.95747">
        <ele>5</ele>
        <time>2026-05-21T14:32:57.498Z</time>
      </trkpt>
      <trkpt lat="49.35275" lon="0.95753">
        <ele>5</ele>
        <time>2026-05-21T14:33:01.576Z</time>
      </trkpt>
      <trkpt lat="49.35275" lon="0.95761">
        <ele>5</ele>
        <time>2026-05-21T14:33:05.892Z</time>
      </trkpt>
      <trkpt lat="49.35275" lon="0.95769">
        <ele>6</ele>
        <time>2026-05-21T14:33:10.334Z</time>
      </trkpt>
      <trkpt lat="49.35275" lon="0.95776">
        <ele>6</ele>
        <time>2026-05-21T14:33:14.698Z</time>
      </trkpt>
      <trkpt lat="49.35275" lon="0.95784">
        <ele>6</ele>
        <time>2026-05-21T14:33:19.096Z</time>
      </trkpt>
      <trkpt lat="49.35275" lon="0.95792">
        <ele>6</ele>
        <time>2026-05-21T14:33:23.574Z</time>
      </trkpt>
      <trkpt lat="49.35275" lon="0.958">
        <ele>6</ele>
        <time>2026-05-21T14:33:27.999Z</time>
      </trkpt>
      <trkpt lat="49.35274" lon="0.95808">
        <ele>6</ele>
        <time>2026-05-21T14:33:32.459Z</time>
      </trkpt>
      <trkpt lat="49.35273" lon="0.95817">
        <ele>6</ele>
        <time>2026-05-21T14:33:36.893Z</time>
      </trkpt>
      <trkpt lat="49.35273" lon="0.95825">
        <ele>5</ele>
        <time>2026-05-21T14:33:40.993Z</time>
      </trkpt>
      <trkpt lat="49.35273" lon="0.95833">
        <ele>5</ele>
        <time>2026-05-21T14:33:45.357Z</time>
      </trkpt>
      <trkpt lat="49.35272" lon="0.9584">
        <ele>5</ele>
        <time>2026-05-21T14:33:49.395Z</time>
      </trkpt>
      <trkpt lat="49.35272" lon="0.95849">
        <ele>5</ele>
        <time>2026-05-21T14:33:54.478Z</time>
      </trkpt>
      <trkpt lat="49.35272" lon="0.95856">
        <ele>5</ele>
        <time>2026-05-21T14:33:58.577Z</time>
      </trkpt>
      <trkpt lat="49.35272" lon="0.95864">
        <ele>5</ele>
        <time>2026-05-21T14:34:02.977Z</time>
      </trkpt>
      <trkpt lat="49.35271" lon="0.95872">
        <ele>5</ele>
        <time>2026-05-21T14:34:07.516Z</time>
      </trkpt>
      <trkpt lat="49.35272" lon="0.95879">
        <ele>4</ele>
        <time>2026-05-21T14:34:12.056Z</time>
      </trkpt>
      <trkpt lat="49.35272" lon="0.95886">
        <ele>4</ele>
        <time>2026-05-21T14:34:16.577Z</time>
      </trkpt>
      <trkpt lat="49.35272" lon="0.95894">
        <ele>4</ele>
        <time>2026-05-21T14:34:21.037Z</time>
      </trkpt>
      <trkpt lat="49.35273" lon="0.95902">
        <ele>4</ele>
        <time>2026-05-21T14:34:25.497Z</time>
      </trkpt>
      <trkpt lat="49.35273" lon="0.95909">
        <ele>3</ele>
        <time>2026-05-21T14:34:29.878Z</time>
      </trkpt>
      <trkpt lat="49.35274" lon="0.95917">
        <ele>3</ele>
        <time>2026-05-21T14:34:34.356Z</time>
      </trkpt>
      <trkpt lat="49.35274" lon="0.95925">
        <ele>3</ele>
        <time>2026-05-21T14:34:38.772Z</time>
      </trkpt>
      <trkpt lat="49.35274" lon="0.95933">
        <ele>2</ele>
        <time>2026-05-21T14:34:43.171Z</time>
      </trkpt>
      <trkpt lat="49.35275" lon="0.95939">
        <ele>2</ele>
        <time>2026-05-21T14:34:47.218Z</time>
      </trkpt>
      <trkpt lat="49.35275" lon="0.95947">
        <ele>2</ele>
        <time>2026-05-21T14:34:51.713Z</time>
      </trkpt>
      <trkpt lat="49.35275" lon="0.95955">
        <ele>2</ele>
        <time>2026-05-21T14:34:56.138Z</time>
      </trkpt>
      <trkpt lat="49.35275" lon="0.95963">
        <ele>2</ele>
        <time>2026-05-21T14:35:00.537Z</time>
      </trkpt>
      <trkpt lat="49.35276" lon="0.95971">
        <ele>2</ele>
        <time>2026-05-21T14:35:04.997Z</time>
      </trkpt>
      <trkpt lat="49.35275" lon="0.95973">
        <ele>2</ele>
        <time>2026-05-21T14:35:28.052Z</time>
      </trkpt>
      <trkpt lat="49.35275" lon="0.95982">
        <ele>2</ele>
        <time>2026-05-21T14:35:32.575Z</time>
      </trkpt>
      <trkpt lat="49.35274" lon="0.95993">
        <ele>3</ele>
        <time>2026-05-21T14:35:37.575Z</time>
      </trkpt>
      <trkpt lat="49.35275" lon="0.95999">
        <ele>3</ele>
        <time>2026-05-21T14:35:41.871Z</time>
      </trkpt>
      <trkpt lat="49.35276" lon="0.96006">
        <ele>3</ele>
        <time>2026-05-21T14:35:46.253Z</time>
      </trkpt>
      <trkpt lat="49.35278" lon="0.96015">
        <ele>4</ele>
        <time>2026-05-21T14:36:00.577Z</time>
      </trkpt>
      <trkpt lat="49.35278" lon="0.96015">
        <ele>4</ele>
        <time>2026-05-21T14:36:05.778Z</time>
      </trkpt>
      <trkpt lat="49.35277" lon="0.9602">
        <ele>4</ele>
        <time>2026-05-21T14:36:10.133Z</time>
      </trkpt>
      <trkpt lat="49.35275" lon="0.9603">
        <ele>4</ele>
        <time>2026-05-21T14:36:14.215Z</time>
      </trkpt>
      <trkpt lat="49.35276" lon="0.96039">
        <ele>4</ele>
        <time>2026-05-21T14:36:18.552Z</time>
      </trkpt>
      <trkpt lat="49.35276" lon="0.96048">
        <ele>4</ele>
        <time>2026-05-21T14:36:23.152Z</time>
      </trkpt>
      <trkpt lat="49.35276" lon="0.96056">
        <ele>4</ele>
        <time>2026-05-21T14:36:27.577Z</time>
      </trkpt>
      <trkpt lat="49.35276" lon="0.96063">
        <ele>4</ele>
        <time>2026-05-21T14:36:31.577Z</time>
      </trkpt>
      <trkpt lat="49.35277" lon="0.96071">
        <ele>5</ele>
        <time>2026-05-21T14:36:35.892Z</time>
      </trkpt>
      <trkpt lat="49.3528" lon="0.96082">
        <ele>5</ele>
        <time>2026-05-21T14:36:49.577Z</time>
      </trkpt>
      <trkpt lat="49.3528" lon="0.96081">
        <ele>5</ele>
        <time>2026-05-21T14:36:54.577Z</time>
      </trkpt>
      <trkpt lat="49.35281" lon="0.96085">
        <ele>5</ele>
        <time>2026-05-21T14:36:59.053Z</time>
      </trkpt>
      <trkpt lat="49.3528" lon="0.96094">
        <ele>5</ele>
        <time>2026-05-21T14:37:03.577Z</time>
      </trkpt>
      <trkpt lat="49.35279" lon="0.96103">
        <ele>4</ele>
        <time>2026-05-21T14:37:07.998Z</time>
      </trkpt>
      <trkpt lat="49.35279" lon="0.96111">
        <ele>4</ele>
        <time>2026-05-21T14:37:12.510Z</time>
      </trkpt>
      <trkpt lat="49.35278" lon="0.96119">
        <ele>4</ele>
        <time>2026-05-21T14:37:17.137Z</time>
      </trkpt>
      <trkpt lat="49.35277" lon="0.96119">
        <ele>4</ele>
        <time>2026-05-21T14:37:21.577Z</time>
      </trkpt>
      <trkpt lat="49.35278" lon="0.96129">
        <ele>4</ele>
        <time>2026-05-21T14:37:26.418Z</time>
      </trkpt>
      <trkpt lat="49.35279" lon="0.96138">
        <ele>4</ele>
        <time>2026-05-21T14:37:30.754Z</time>
      </trkpt>
      <trkpt lat="49.3528" lon="0.96146">
        <ele>4</ele>
        <time>2026-05-21T14:37:35.232Z</time>
      </trkpt>
      <trkpt lat="49.35281" lon="0.96154">
        <ele>4</ele>
        <time>2026-05-21T14:37:39.578Z</time>
      </trkpt>
      <trkpt lat="49.35281" lon="0.96163">
        <ele>4</ele>
        <time>2026-05-21T14:37:43.898Z</time>
      </trkpt>
      <trkpt lat="49.35281" lon="0.96172">
        <ele>4</ele>
        <time>2026-05-21T14:37:48.254Z</time>
      </trkpt>
      <trkpt lat="49.35281" lon="0.9618">
        <ele>4</ele>
        <time>2026-05-21T14:37:52.572Z</time>
      </trkpt>
      <trkpt lat="49.35281" lon="0.96188">
        <ele>4</ele>
        <time>2026-05-21T14:37:56.952Z</time>
      </trkpt>
      <trkpt lat="49.3528" lon="0.96197">
        <ele>4</ele>
        <time>2026-05-21T14:38:01.254Z</time>
      </trkpt>
      <trkpt lat="49.3528" lon="0.96205">
        <ele>4</ele>
        <time>2026-05-21T14:38:05.574Z</time>
      </trkpt>
      <trkpt lat="49.35281" lon="0.96214">
        <ele>4</ele>
        <time>2026-05-21T14:38:09.911Z</time>
      </trkpt>
      <trkpt lat="49.35282" lon="0.96222">
        <ele>4</ele>
        <time>2026-05-21T14:38:14.257Z</time>
      </trkpt>
      <trkpt lat="49.35283" lon="0.9623">
        <ele>3.8</ele>
        <time>2026-05-21T14:38:18.579Z</time>
      </trkpt>
      <trkpt lat="49.35283" lon="0.96239">
        <ele>3.5</ele>
        <time>2026-05-21T14:38:23.036Z</time>
      </trkpt>
      <trkpt lat="49.35282" lon="0.96247">
        <ele>3.2</ele>
        <time>2026-05-21T14:38:27.373Z</time>
      </trkpt>
      <trkpt lat="49.35282" lon="0.96255">
        <ele>3.1</ele>
        <time>2026-05-21T14:38:31.753Z</time>
      </trkpt>
      <trkpt lat="49.35281" lon="0.96264">
        <ele>3.1</ele>
        <time>2026-05-21T14:38:36.074Z</time>
      </trkpt>
      <trkpt lat="49.35281" lon="0.96272">
        <ele>3.1</ele>
        <time>2026-05-21T14:38:40.455Z</time>
      </trkpt>
      <trkpt lat="49.35281" lon="0.9628">
        <ele>3.1</ele>
        <time>2026-05-21T14:38:44.932Z</time>
      </trkpt>
      <trkpt lat="49.35282" lon="0.96288">
        <ele>3.1</ele>
        <time>2026-05-21T14:38:49.436Z</time>
      </trkpt>
      <trkpt lat="49.35282" lon="0.96296">
        <ele>3.2</ele>
        <time>2026-05-21T14:38:53.852Z</time>
      </trkpt>
      <trkpt lat="49.35283" lon="0.96303">
        <ele>3.2</ele>
        <time>2026-05-21T14:38:58.373Z</time>
      </trkpt>
      <trkpt lat="49.35284" lon="0.96311">
        <ele>3.2</ele>
        <time>2026-05-21T14:39:02.816Z</time>
      </trkpt>
      <trkpt lat="49.35284" lon="0.96319">
        <ele>3.2</ele>
        <time>2026-05-21T14:39:07.275Z</time>
      </trkpt>
      <trkpt lat="49.35284" lon="0.96326">
        <ele>3.2</ele>
        <time>2026-05-21T14:39:11.798Z</time>
      </trkpt>
      <trkpt lat="49.35284" lon="0.96334">
        <ele>3.2</ele>
        <time>2026-05-21T14:39:16.274Z</time>
      </trkpt>
      <trkpt lat="49.35284" lon="0.96341">
        <ele>3</ele>
        <time>2026-05-21T14:39:20.752Z</time>
      </trkpt>
      <trkpt lat="49.35285" lon="0.9635">
        <ele>2.8</ele>
        <time>2026-05-21T14:39:25.194Z</time>
      </trkpt>
      <trkpt lat="49.35286" lon="0.96358">
        <ele>2.7</ele>
        <time>2026-05-21T14:39:29.697Z</time>
      </trkpt>
      <trkpt lat="49.35286" lon="0.96366">
        <ele>2.6</ele>
        <time>2026-05-21T14:39:34.237Z</time>
      </trkpt>
      <trkpt lat="49.35286" lon="0.96373">
        <ele>2.6</ele>
        <time>2026-05-21T14:39:38.637Z</time>
      </trkpt>
      <trkpt lat="49.35286" lon="0.96381">
        <ele>2.6</ele>
        <time>2026-05-21T14:39:43.255Z</time>
      </trkpt>
      <trkpt lat="49.35286" lon="0.96389">
        <ele>2.6</ele>
        <time>2026-05-21T14:39:47.714Z</time>
      </trkpt>
      <trkpt lat="49.35286" lon="0.96395">
        <ele>2.6</ele>
        <time>2026-05-21T14:39:52.132Z</time>
      </trkpt>
      <trkpt lat="49.35287" lon="0.96402">
        <ele>2.7</ele>
        <time>2026-05-21T14:39:56.170Z</time>
      </trkpt>
      <trkpt lat="49.35289" lon="0.96409">
        <ele>2.8</ele>
        <time>2026-05-21T14:40:00.516Z</time>
      </trkpt>
      <trkpt lat="49.35289" lon="0.96417">
        <ele>2.8</ele>
        <time>2026-05-21T14:40:05.051Z</time>
      </trkpt>
      <trkpt lat="49.35289" lon="0.96427">
        <ele>2.6</ele>
        <time>2026-05-21T14:40:09.293Z</time>
      </trkpt>
      <trkpt lat="49.3529" lon="0.96436">
        <ele>2.5</ele>
        <time>2026-05-21T14:40:13.717Z</time>
      </trkpt>
      <trkpt lat="49.3529" lon="0.96444">
        <ele>2.3</ele>
        <time>2026-05-21T14:40:18.099Z</time>
      </trkpt>
      <trkpt lat="49.3529" lon="0.96452">
        <ele>2.3</ele>
        <time>2026-05-21T14:40:22.574Z</time>
      </trkpt>
      <trkpt lat="49.3529" lon="0.96458">
        <ele>2.3</ele>
        <time>2026-05-21T14:40:26.577Z</time>
      </trkpt>
      <trkpt lat="49.3529" lon="0.96466">
        <ele>2.3</ele>
        <time>2026-05-21T14:40:30.890Z</time>
      </trkpt>
      <trkpt lat="49.35291" lon="0.96473">
        <ele>2.4</ele>
        <time>2026-05-21T14:40:35.414Z</time>
      </trkpt>
      <trkpt lat="49.35291" lon="0.9648">
        <ele>2.4</ele>
        <time>2026-05-21T14:40:39.433Z</time>
      </trkpt>
      <trkpt lat="49.35292" lon="0.96487">
        <ele>2.5</ele>
        <time>2026-05-21T14:40:43.999Z</time>
      </trkpt>
      <trkpt lat="49.35292" lon="0.96496">
        <ele>2</ele>
        <time>2026-05-21T14:40:48.512Z</time>
      </trkpt>
      <trkpt lat="49.35293" lon="0.96503">
        <ele>2</ele>
        <time>2026-05-21T14:40:52.893Z</time>
      </trkpt>
      <trkpt lat="49.35293" lon="0.9651">
        <ele>2</ele>
        <time>2026-05-21T14:40:57.374Z</time>
      </trkpt>
      <trkpt lat="49.35293" lon="0.96516">
        <ele>2</ele>
        <time>2026-05-21T14:41:01.576Z</time>
      </trkpt>
      <trkpt lat="49.35294" lon="0.96524">
        <ele>2</ele>
        <time>2026-05-21T14:41:06.053Z</time>
      </trkpt>
      <trkpt lat="49.35295" lon="0.96532">
        <ele>2</ele>
        <time>2026-05-21T14:41:10.453Z</time>
      </trkpt>
      <trkpt lat="49.35296" lon="0.9654">
        <ele>2</ele>
        <time>2026-05-21T14:41:14.895Z</time>
      </trkpt>
      <trkpt lat="49.35296" lon="0.96548">
        <ele>1</ele>
        <time>2026-05-21T14:41:19.293Z</time>
      </trkpt>
      <trkpt lat="49.35296" lon="0.96556">
        <ele>1</ele>
        <time>2026-05-21T14:41:23.576Z</time>
      </trkpt>
      <trkpt lat="49.35295" lon="0.96563">
        <ele>1</ele>
        <time>2026-05-21T14:41:27.576Z</time>
      </trkpt>
      <trkpt lat="49.35295" lon="0.96571">
        <ele>2</ele>
        <time>2026-05-21T14:41:32.454Z</time>
      </trkpt>
      <trkpt lat="49.35298" lon="0.96583">
        <ele>2</ele>
        <time>2026-05-21T14:42:17.575Z</time>
      </trkpt>
      <trkpt lat="49.353" lon="0.96591">
        <ele>2</ele>
        <time>2026-05-21T14:42:22.234Z</time>
      </trkpt>
      <trkpt lat="49.35299" lon="0.96595">
        <ele>2</ele>
        <time>2026-05-21T14:42:26.334Z</time>
      </trkpt>
      <trkpt lat="49.35299" lon="0.96603">
        <ele>2</ele>
        <time>2026-05-21T14:42:30.477Z</time>
      </trkpt>
      <trkpt lat="49.35299" lon="0.96609">
        <ele>2</ele>
        <time>2026-05-21T14:42:34.534Z</time>
      </trkpt>
      <trkpt lat="49.353" lon="0.96615">
        <ele>2</ele>
        <time>2026-05-21T14:42:38.577Z</time>
      </trkpt>
      <trkpt lat="49.353" lon="0.96622">
        <ele>2</ele>
        <time>2026-05-21T14:42:43.172Z</time>
      </trkpt>
      <trkpt lat="49.35301" lon="0.9663">
        <ele>2</ele>
        <time>2026-05-21T14:42:47.574Z</time>
      </trkpt>
      <trkpt lat="49.35301" lon="0.96638">
        <ele>2</ele>
        <time>2026-05-21T14:42:52.137Z</time>
      </trkpt>
      <trkpt lat="49.35302" lon="0.96645">
        <ele>2</ele>
        <time>2026-05-21T14:42:56.575Z</time>
      </trkpt>
      <trkpt lat="49.35303" lon="0.96652">
        <ele>2</ele>
        <time>2026-05-21T14:43:00.577Z</time>
      </trkpt>
      <trkpt lat="49.35304" lon="0.96658">
        <ele>1</ele>
        <time>2026-05-21T14:43:04.576Z</time>
      </trkpt>
      <trkpt lat="49.35305" lon="0.96665">
        <ele>1</ele>
        <time>2026-05-21T14:43:09.194Z</time>
      </trkpt>
      <trkpt lat="49.35305" lon="0.96673">
        <ele>1</ele>
        <time>2026-05-21T14:43:13.574Z</time>
      </trkpt>
      <trkpt lat="49.35305" lon="0.96681">
        <ele>1</ele>
        <time>2026-05-21T14:43:18.211Z</time>
      </trkpt>
      <trkpt lat="49.35306" lon="0.96688">
        <ele>1</ele>
        <time>2026-05-21T14:43:22.759Z</time>
      </trkpt>
      <trkpt lat="49.35306" lon="0.96695">
        <ele>1</ele>
        <time>2026-05-21T14:43:27.332Z</time>
      </trkpt>
      <trkpt lat="49.35306" lon="0.96702">
        <ele>1</ele>
        <time>2026-05-21T14:43:31.336Z</time>
      </trkpt>
      <trkpt lat="49.35307" lon="0.96708">
        <ele>1</ele>
        <time>2026-05-21T14:43:35.392Z</time>
      </trkpt>
      <trkpt lat="49.35307" lon="0.96715">
        <ele>1</ele>
        <time>2026-05-21T14:43:39.395Z</time>
      </trkpt>
      <trkpt lat="49.35308" lon="0.96721">
        <ele>1</ele>
        <time>2026-05-21T14:43:43.451Z</time>
      </trkpt>
      <trkpt lat="49.35309" lon="0.96728">
        <ele>1</ele>
        <time>2026-05-21T14:43:47.990Z</time>
      </trkpt>
      <trkpt lat="49.3531" lon="0.96736">
        <ele>1</ele>
        <time>2026-05-21T14:43:52.055Z</time>
      </trkpt>
      <trkpt lat="49.3531" lon="0.96743">
        <ele>1</ele>
        <time>2026-05-21T14:43:56.217Z</time>
      </trkpt>
      <trkpt lat="49.35311" lon="0.9675">
        <ele>1</ele>
        <time>2026-05-21T14:44:00.773Z</time>
      </trkpt>
      <trkpt lat="49.35312" lon="0.96756">
        <ele>1</ele>
        <time>2026-05-21T14:44:04.777Z</time>
      </trkpt>
      <trkpt lat="49.35312" lon="0.96763">
        <ele>1</ele>
        <time>2026-05-21T14:44:08.816Z</time>
      </trkpt>
      <trkpt lat="49.35313" lon="0.96769">
        <ele>1</ele>
        <time>2026-05-21T14:44:12.854Z</time>
      </trkpt>
      <trkpt lat="49.35314" lon="0.96776">
        <ele>1</ele>
        <time>2026-05-21T14:44:17.191Z</time>
      </trkpt>
      <trkpt lat="49.35316" lon="0.96781">
        <ele>1</ele>
        <time>2026-05-21T14:44:21.221Z</time>
      </trkpt>
      <trkpt lat="49.35316" lon="0.96788">
        <ele>1</ele>
        <time>2026-05-21T14:44:25.311Z</time>
      </trkpt>
      <trkpt lat="49.35316" lon="0.96796">
        <ele>1</ele>
        <time>2026-05-21T14:44:29.955Z</time>
      </trkpt>
      <trkpt lat="49.35317" lon="0.96803">
        <ele>1</ele>
        <time>2026-05-21T14:44:34.056Z</time>
      </trkpt>
      <trkpt lat="49.35318" lon="0.96809">
        <ele>1</ele>
        <time>2026-05-21T14:44:38.217Z</time>
      </trkpt>
      <trkpt lat="49.35319" lon="0.96815">
        <ele>1</ele>
        <time>2026-05-21T14:44:42.273Z</time>
      </trkpt>
      <trkpt lat="49.35319" lon="0.96822">
        <ele>2.7</ele>
        <time>2026-05-21T14:44:46.373Z</time>
      </trkpt>
      <trkpt lat="49.3532" lon="0.96829">
        <ele>2</ele>
        <time>2026-05-21T14:44:50.418Z</time>
      </trkpt>
      <trkpt lat="49.3532" lon="0.96836">
        <ele>2</ele>
        <time>2026-05-21T14:44:54.476Z</time>
      </trkpt>
      <trkpt lat="49.35321" lon="0.96841">
        <ele>2</ele>
        <time>2026-05-21T14:44:58.753Z</time>
      </trkpt>
      <trkpt lat="49.35321" lon="0.96847">
        <ele>3</ele>
        <time>2026-05-21T14:45:02.799Z</time>
      </trkpt>
      <trkpt lat="49.35322" lon="0.96854">
        <ele>3</ele>
        <time>2026-05-21T14:45:06.837Z</time>
      </trkpt>
      <trkpt lat="49.35322" lon="0.96862">
        <ele>3</ele>
        <time>2026-05-21T14:45:11.396Z</time>
      </trkpt>
      <trkpt lat="49.35322" lon="0.96868">
        <ele>3</ele>
        <time>2026-05-21T14:45:15.397Z</time>
      </trkpt>
      <trkpt lat="49.35322" lon="0.96875">
        <ele>3</ele>
        <time>2026-05-21T14:45:19.418Z</time>
      </trkpt>
      <trkpt lat="49.35323" lon="0.96881">
        <ele>3</ele>
        <time>2026-05-21T14:45:23.457Z</time>
      </trkpt>
      <trkpt lat="49.35324" lon="0.96887">
        <ele>3</ele>
        <time>2026-05-21T14:45:27.382Z</time>
      </trkpt>
      <trkpt lat="49.35325" lon="0.96894">
        <ele>3</ele>
        <time>2026-05-21T14:45:31.576Z</time>
      </trkpt>
      <trkpt lat="49.35326" lon="0.96901">
        <ele>3</ele>
        <time>2026-05-21T14:45:35.792Z</time>
      </trkpt>
      <trkpt lat="49.35327" lon="0.96909">
        <ele>3</ele>
        <time>2026-05-21T14:45:40.356Z</time>
      </trkpt>
      <trkpt lat="49.35329" lon="0.96919">
        <ele>3</ele>
        <time>2026-05-21T14:45:58.573Z</time>
      </trkpt>
      <trkpt lat="49.35329" lon="0.96919">
        <ele>3</ele>
        <time>2026-05-21T14:46:02.574Z</time>
      </trkpt>
      <trkpt lat="49.35329" lon="0.96919">
        <ele>3</ele>
        <time>2026-05-21T14:46:07.577Z</time>
      </trkpt>
      <trkpt lat="49.3533" lon="0.96922">
        <ele>3</ele>
        <time>2026-05-21T14:46:12.357Z</time>
      </trkpt>
      <trkpt lat="49.3533" lon="0.96929">
        <ele>3</ele>
        <time>2026-05-21T14:46:16.659Z</time>
      </trkpt>
      <trkpt lat="49.35333" lon="0.96938">
        <ele>2</ele>
        <time>2026-05-21T14:46:35.575Z</time>
      </trkpt>
      <trkpt lat="49.35333" lon="0.96939">
        <ele>2</ele>
        <time>2026-05-21T14:46:40.872Z</time>
      </trkpt>
      <trkpt lat="49.35332" lon="0.96944">
        <ele>2</ele>
        <time>2026-05-21T14:46:45.235Z</time>
      </trkpt>
      <trkpt lat="49.35331" lon="0.96953">
        <ele>2</ele>
        <time>2026-05-21T14:46:49.238Z</time>
      </trkpt>
      <trkpt lat="49.35333" lon="0.96962">
        <ele>1</ele>
        <time>2026-05-21T14:46:53.778Z</time>
      </trkpt>
      <trkpt lat="49.35334" lon="0.9697">
        <ele>1</ele>
        <time>2026-05-21T14:46:58.211Z</time>
      </trkpt>
      <trkpt lat="49.35336" lon="0.96977">
        <ele>1</ele>
        <time>2026-05-21T14:47:02.619Z</time>
      </trkpt>
      <trkpt lat="49.35337" lon="0.96985">
        <ele>1</ele>
        <time>2026-05-21T14:47:07.131Z</time>
      </trkpt>
      <trkpt lat="49.35337" lon="0.96993">
        <ele>1</ele>
        <time>2026-05-21T14:47:11.573Z</time>
      </trkpt>
      <trkpt lat="49.35338" lon="0.96998">
        <ele>1</ele>
        <time>2026-05-21T14:47:15.971Z</time>
      </trkpt>
      <trkpt lat="49.3534" lon="0.97006">
        <ele>1</ele>
        <time>2026-05-21T14:47:20.572Z</time>
      </trkpt>
      <trkpt lat="49.35341" lon="0.97014">
        <ele>1</ele>
        <time>2026-05-21T14:47:24.675Z</time>
      </trkpt>
      <trkpt lat="49.35341" lon="0.97021">
        <ele>2.4</ele>
        <time>2026-05-21T14:47:29.118Z</time>
      </trkpt>
      <trkpt lat="49.35341" lon="0.9703">
        <ele>2.2</ele>
        <time>2026-05-21T14:47:33.576Z</time>
      </trkpt>
      <trkpt lat="49.35342" lon="0.97039">
        <ele>2</ele>
        <time>2026-05-21T14:47:38.577Z</time>
      </trkpt>
      <trkpt lat="49.35345" lon="0.97045">
        <ele>2.1</ele>
        <time>2026-05-21T14:47:43.077Z</time>
      </trkpt>
      <trkpt lat="49.35346" lon="0.97045">
        <ele>2.1</ele>
        <time>2026-05-21T14:47:47.577Z</time>
      </trkpt>
      <trkpt lat="49.35346" lon="0.97045">
        <ele>2.1</ele>
        <time>2026-05-21T14:47:51.577Z</time>
      </trkpt>
      <trkpt lat="49.35346" lon="0.97045">
        <ele>2.1</ele>
        <time>2026-05-21T14:48:01.575Z</time>
      </trkpt>
      <trkpt lat="49.35346" lon="0.97046">
        <ele>2.1</ele>
        <time>2026-05-21T14:48:06.518Z</time>
      </trkpt>
      <trkpt lat="49.35348" lon="0.97054">
        <ele>1</ele>
        <time>2026-05-21T14:48:10.951Z</time>
      </trkpt>
      <trkpt lat="49.35349" lon="0.97062">
        <ele>1</ele>
        <time>2026-05-21T14:48:15.553Z</time>
      </trkpt>
      <trkpt lat="49.35348" lon="0.9707">
        <ele>1</ele>
        <time>2026-05-21T14:48:19.854Z</time>
      </trkpt>
      <trkpt lat="49.35348" lon="0.97078">
        <ele>1</ele>
        <time>2026-05-21T14:48:24.357Z</time>
      </trkpt>
      <trkpt lat="49.35349" lon="0.97086">
        <ele>1</ele>
        <time>2026-05-21T14:48:28.757Z</time>
      </trkpt>
      <trkpt lat="49.3535" lon="0.97093">
        <ele>1</ele>
        <time>2026-05-21T14:48:33.251Z</time>
      </trkpt>
      <trkpt lat="49.35352" lon="0.971">
        <ele>1</ele>
        <time>2026-05-21T14:48:37.772Z</time>
      </trkpt>
      <trkpt lat="49.35354" lon="0.97107">
        <ele>1</ele>
        <time>2026-05-21T14:48:42.197Z</time>
      </trkpt>
      <trkpt lat="49.35355" lon="0.97115">
        <ele>1</ele>
        <time>2026-05-21T14:48:46.575Z</time>
      </trkpt>
      <trkpt lat="49.35357" lon="0.97121">
        <ele>1</ele>
        <time>2026-05-21T14:48:51.573Z</time>
      </trkpt>
      <trkpt lat="49.35357" lon="0.97133">
        <ele>1</ele>
        <time>2026-05-21T14:49:15.573Z</time>
      </trkpt>
      <trkpt lat="49.35357" lon="0.97135">
        <ele>1</ele>
        <time>2026-05-21T14:49:19.992Z</time>
      </trkpt>
      <trkpt lat="49.35359" lon="0.97146">
        <ele>1</ele>
        <time>2026-05-21T14:49:24.495Z</time>
      </trkpt>
      <trkpt lat="49.3536" lon="0.97153">
        <ele>1</ele>
        <time>2026-05-21T14:49:29.017Z</time>
      </trkpt>
      <trkpt lat="49.35361" lon="0.97159">
        <ele>1</ele>
        <time>2026-05-21T14:49:33.073Z</time>
      </trkpt>
      <trkpt lat="49.35363" lon="0.97164">
        <ele>1</ele>
        <time>2026-05-21T14:49:37.155Z</time>
      </trkpt>
      <trkpt lat="49.35364" lon="0.97171">
        <ele>1</ele>
        <time>2026-05-21T14:49:41.272Z</time>
      </trkpt>
      <trkpt lat="49.35365" lon="0.97177">
        <ele>1</ele>
        <time>2026-05-21T14:49:45.855Z</time>
      </trkpt>
      <trkpt lat="49.35366" lon="0.97185">
        <ele>1</ele>
        <time>2026-05-21T14:49:50.315Z</time>
      </trkpt>
      <trkpt lat="49.35367" lon="0.97193">
        <ele>1</ele>
        <time>2026-05-21T14:49:54.819Z</time>
      </trkpt>
      <trkpt lat="49.35368" lon="0.972">
        <ele>1</ele>
        <time>2026-05-21T14:49:59.279Z</time>
      </trkpt>
      <trkpt lat="49.3537" lon="0.97208">
        <ele>1</ele>
        <time>2026-05-21T14:50:03.574Z</time>
      </trkpt>
      <trkpt lat="49.35372" lon="0.97215">
        <ele>1</ele>
        <time>2026-05-21T14:50:07.576Z</time>
      </trkpt>
      <trkpt lat="49.35373" lon="0.97222">
        <ele>1</ele>
        <time>2026-05-21T14:50:11.939Z</time>
      </trkpt>
      <trkpt lat="49.35374" lon="0.97229">
        <ele>1</ele>
        <time>2026-05-21T14:50:16.426Z</time>
      </trkpt>
      <trkpt lat="49.35375" lon="0.97236">
        <ele>1</ele>
        <time>2026-05-21T14:50:20.471Z</time>
      </trkpt>
      <trkpt lat="49.35377" lon="0.97244">
        <ele>1</ele>
        <time>2026-05-21T14:50:25.037Z</time>
      </trkpt>
      <trkpt lat="49.35379" lon="0.97251">
        <ele>1</ele>
        <time>2026-05-21T14:50:29.532Z</time>
      </trkpt>
      <trkpt lat="49.3538" lon="0.97259">
        <ele>1</ele>
        <time>2026-05-21T14:50:33.992Z</time>
      </trkpt>
      <trkpt lat="49.35382" lon="0.97266">
        <ele>1</ele>
        <time>2026-05-21T14:50:38.451Z</time>
      </trkpt>
      <trkpt lat="49.35383" lon="0.97273">
        <ele>1</ele>
        <time>2026-05-21T14:50:42.955Z</time>
      </trkpt>
      <trkpt lat="49.35385" lon="0.97281">
        <ele>1</ele>
        <time>2026-05-21T14:50:47.433Z</time>
      </trkpt>
      <trkpt lat="49.35386" lon="0.97289">
        <ele>1</ele>
        <time>2026-05-21T14:50:51.939Z</time>
      </trkpt>
      <trkpt lat="49.35387" lon="0.97296">
        <ele>1</ele>
        <time>2026-05-21T14:50:56.492Z</time>
      </trkpt>
      <trkpt lat="49.35389" lon="0.97303">
        <ele>1</ele>
        <time>2026-05-21T14:51:01.075Z</time>
      </trkpt>
      <trkpt lat="49.35391" lon="0.97311">
        <ele>1</ele>
        <time>2026-05-21T14:51:05.570Z</time>
      </trkpt>
      <trkpt lat="49.35392" lon="0.97319">
        <ele>1</ele>
        <time>2026-05-21T14:51:10.117Z</time>
      </trkpt>
      <trkpt lat="49.35394" lon="0.97325">
        <ele>4</ele>
        <time>2026-05-21T14:51:14.574Z</time>
      </trkpt>
      <trkpt lat="49.35395" lon="0.97332">
        <ele>4</ele>
        <time>2026-05-21T14:51:18.576Z</time>
      </trkpt>
      <trkpt lat="49.35397" lon="0.9734">
        <ele>4</ele>
        <time>2026-05-21T14:51:23.111Z</time>
      </trkpt>
      <trkpt lat="49.354" lon="0.97346">
        <ele>4</ele>
        <time>2026-05-21T14:51:27.553Z</time>
      </trkpt>
      <trkpt lat="49.354" lon="0.97348">
        <ele>3</ele>
        <time>2026-05-21T14:51:31.573Z</time>
      </trkpt>
      <trkpt lat="49.354" lon="0.97349">
        <ele>3</ele>
        <time>2026-05-21T14:51:35.991Z</time>
      </trkpt>
      <trkpt lat="49.35401" lon="0.97359">
        <ele>3</ele>
        <time>2026-05-21T14:51:40.476Z</time>
      </trkpt>
      <trkpt lat="49.35403" lon="0.97366">
        <ele>5</ele>
        <time>2026-05-21T14:51:44.576Z</time>
      </trkpt>
      <trkpt lat="49.35405" lon="0.97373">
        <ele>5</ele>
        <time>2026-05-21T14:51:48.992Z</time>
      </trkpt>
      <trkpt lat="49.35407" lon="0.9738">
        <ele>3</ele>
        <time>2026-05-21T14:51:52.995Z</time>
      </trkpt>
      <trkpt lat="49.35408" lon="0.97386">
        <ele>3</ele>
        <time>2026-05-21T14:51:57.035Z</time>
      </trkpt>
      <trkpt lat="49.35409" lon="0.97393">
        <ele>3</ele>
        <time>2026-05-21T14:52:01.574Z</time>
      </trkpt>
      <trkpt lat="49.35411" lon="0.974">
        <ele>3</ele>
        <time>2026-05-21T14:52:05.576Z</time>
      </trkpt>
      <trkpt lat="49.35412" lon="0.97407">
        <ele>2</ele>
        <time>2026-05-21T14:52:10.098Z</time>
      </trkpt>
      <trkpt lat="49.35414" lon="0.97414">
        <ele>2</ele>
        <time>2026-05-21T14:52:14.532Z</time>
      </trkpt>
      <trkpt lat="49.35416" lon="0.97421">
        <ele>2</ele>
        <time>2026-05-21T14:52:18.974Z</time>
      </trkpt>
      <trkpt lat="49.35418" lon="0.97429">
        <ele>2</ele>
        <time>2026-05-21T14:52:23.433Z</time>
      </trkpt>
      <trkpt lat="49.3542" lon="0.97436">
        <ele>1</ele>
        <time>2026-05-21T14:52:27.998Z</time>
      </trkpt>
      <trkpt lat="49.35422" lon="0.97444">
        <ele>1</ele>
        <time>2026-05-21T14:52:32.572Z</time>
      </trkpt>
      <trkpt lat="49.35424" lon="0.97451">
        <ele>1</ele>
        <time>2026-05-21T14:52:37.138Z</time>
      </trkpt>
      <trkpt lat="49.35425" lon="0.97459">
        <ele>2</ele>
        <time>2026-05-21T14:52:41.577Z</time>
      </trkpt>
      <trkpt lat="49.35427" lon="0.97466">
        <ele>2</ele>
        <time>2026-05-21T14:52:46.374Z</time>
      </trkpt>
      <trkpt lat="49.35431" lon="0.97475">
        <ele>4</ele>
        <time>2026-05-21T14:52:50.877Z</time>
      </trkpt>
      <trkpt lat="49.35431" lon="0.97481">
        <ele>4</ele>
        <time>2026-05-21T14:52:55.117Z</time>
      </trkpt>
      <trkpt lat="49.35434" lon="0.97488">
        <ele>5</ele>
        <time>2026-05-21T14:53:00.113Z</time>
      </trkpt>
      <trkpt lat="49.35436" lon="0.97497">
        <ele>5</ele>
        <time>2026-05-21T14:53:04.577Z</time>
      </trkpt>
      <trkpt lat="49.35438" lon="0.97504">
        <ele>5</ele>
        <time>2026-05-21T14:53:08.576Z</time>
      </trkpt>
      <trkpt lat="49.3544" lon="0.97511">
        <ele>5</ele>
        <time>2026-05-21T14:53:31.575Z</time>
      </trkpt>
      <trkpt lat="49.3544" lon="0.97514">
        <ele>5</ele>
        <time>2026-05-21T14:53:36.577Z</time>
      </trkpt>
      <trkpt lat="49.35444" lon="0.97523">
        <ele>8</ele>
        <time>2026-05-21T14:53:41.077Z</time>
      </trkpt>
      <trkpt lat="49.35445" lon="0.9753">
        <ele>8</ele>
        <time>2026-05-21T14:53:45.575Z</time>
      </trkpt>
      <trkpt lat="49.35447" lon="0.97536">
        <ele>8</ele>
        <time>2026-05-21T14:53:49.577Z</time>
      </trkpt>
      <trkpt lat="49.35449" lon="0.97543">
        <ele>7</ele>
        <time>2026-05-21T14:53:54.133Z</time>
      </trkpt>
      <trkpt lat="49.35451" lon="0.9755">
        <ele>7</ele>
        <time>2026-05-21T14:53:58.577Z</time>
      </trkpt>
      <trkpt lat="49.35453" lon="0.97557">
        <ele>7</ele>
        <time>2026-05-21T14:54:03.158Z</time>
      </trkpt>
      <trkpt lat="49.35455" lon="0.97565">
        <ele>7</ele>
        <time>2026-05-21T14:54:07.574Z</time>
      </trkpt>
      <trkpt lat="49.35457" lon="0.97571">
        <ele>3</ele>
        <time>2026-05-21T14:54:11.573Z</time>
      </trkpt>
      <trkpt lat="49.3546" lon="0.97577">
        <ele>1</ele>
        <time>2026-05-21T14:54:15.576Z</time>
      </trkpt>
      <trkpt lat="49.35461" lon="0.97583">
        <ele>1</ele>
        <time>2026-05-21T14:54:19.575Z</time>
      </trkpt>
      <trkpt lat="49.35464" lon="0.9759">
        <ele>1</ele>
        <time>2026-05-21T14:54:24.176Z</time>
      </trkpt>
      <trkpt lat="49.35467" lon="0.97595">
        <ele>1</ele>
        <time>2026-05-21T14:54:28.759Z</time>
      </trkpt>
      <trkpt lat="49.3547" lon="0.97601">
        <ele>4.5</ele>
        <time>2026-05-21T14:54:33.254Z</time>
      </trkpt>
      <trkpt lat="49.35473" lon="0.97608">
        <ele>4.9</ele>
        <time>2026-05-21T14:54:37.696Z</time>
      </trkpt>
      <trkpt lat="49.35476" lon="0.97616">
        <ele>4.6</ele>
        <time>2026-05-21T14:54:42.156Z</time>
      </trkpt>
      <trkpt lat="49.3548" lon="0.97623">
        <ele>4.3</ele>
        <time>2026-05-21T14:54:46.475Z</time>
      </trkpt>
      <trkpt lat="49.35484" lon="0.97629">
        <ele>1</ele>
        <time>2026-05-21T14:54:50.935Z</time>
      </trkpt>
      <trkpt lat="49.35489" lon="0.97634">
        <ele>4</ele>
        <time>2026-05-21T14:54:55.334Z</time>
      </trkpt>
      <trkpt lat="49.35493" lon="0.97639">
        <ele>4</ele>
        <time>2026-05-21T14:54:59.698Z</time>
      </trkpt>
      <trkpt lat="49.35502" lon="0.97644">
        <ele>3.7</ele>
        <time>2026-05-21T14:55:12.875Z</time>
      </trkpt>
      <trkpt lat="49.35507" lon="0.97647">
        <ele>3.5</ele>
        <time>2026-05-21T14:55:16.827Z</time>
      </trkpt>
      <trkpt lat="49.35512" lon="0.97652">
        <ele>3.3</ele>
        <time>2026-05-21T14:55:21.356Z</time>
      </trkpt>
      <trkpt lat="49.35516" lon="0.97657">
        <ele>3.2</ele>
        <time>2026-05-21T14:55:25.877Z</time>
      </trkpt>
      <trkpt lat="49.3552" lon="0.97661">
        <ele>3.1</ele>
        <time>2026-05-21T14:55:30.434Z</time>
      </trkpt>
      <trkpt lat="49.35523" lon="0.97665">
        <ele>3</ele>
        <time>2026-05-21T14:55:34.473Z</time>
      </trkpt>
      <trkpt lat="49.35528" lon="0.97669">
        <ele>3</ele>
        <time>2026-05-21T14:55:38.493Z</time>
      </trkpt>
      <trkpt lat="49.35532" lon="0.97672">
        <ele>3.1</ele>
        <time>2026-05-21T14:55:42.918Z</time>
      </trkpt>
      <trkpt lat="49.35536" lon="0.97676">
        <ele>3.3</ele>
        <time>2026-05-21T14:55:47.416Z</time>
      </trkpt>
      <trkpt lat="49.3554" lon="0.97679">
        <ele>3.4</ele>
        <time>2026-05-21T14:55:51.452Z</time>
      </trkpt>
      <trkpt lat="49.35544" lon="0.97683">
        <ele>2</ele>
        <time>2026-05-21T14:55:55.991Z</time>
      </trkpt>
      <trkpt lat="49.35548" lon="0.97685">
        <ele>2</ele>
        <time>2026-05-21T14:56:00.012Z</time>
      </trkpt>
      <trkpt lat="49.35552" lon="0.97689">
        <ele>2</ele>
        <time>2026-05-21T14:56:04.533Z</time>
      </trkpt>
      <trkpt lat="49.35555" lon="0.97692">
        <ele>2</ele>
        <time>2026-05-21T14:56:08.572Z</time>
      </trkpt>
      <trkpt lat="49.35559" lon="0.97695">
        <ele>2</ele>
        <time>2026-05-21T14:56:13.032Z</time>
      </trkpt>
      <trkpt lat="49.35563" lon="0.97698">
        <ele>2</ele>
        <time>2026-05-21T14:56:17.131Z</time>
      </trkpt>
      <trkpt lat="49.35567" lon="0.97701">
        <ele>2</ele>
        <time>2026-05-21T14:56:21.136Z</time>
      </trkpt>
      <trkpt lat="49.35571" lon="0.97704">
        <ele>2</ele>
        <time>2026-05-21T14:56:25.156Z</time>
      </trkpt>
      <trkpt lat="49.35575" lon="0.97707">
        <ele>2</ele>
        <time>2026-05-21T14:56:29.195Z</time>
      </trkpt>
      <trkpt lat="49.35579" lon="0.9771">
        <ele>2</ele>
        <time>2026-05-21T14:56:33.733Z</time>
      </trkpt>
      <trkpt lat="49.35582" lon="0.97714">
        <ele>2</ele>
        <time>2026-05-21T14:56:37.816Z</time>
      </trkpt>
      <trkpt lat="49.35586" lon="0.97717">
        <ele>2</ele>
        <time>2026-05-21T14:56:41.811Z</time>
      </trkpt>
      <trkpt lat="49.35589" lon="0.97722">
        <ele>2</ele>
        <time>2026-05-21T14:56:45.875Z</time>
      </trkpt>
      <trkpt lat="49.35592" lon="0.97726">
        <ele>2</ele>
        <time>2026-05-21T14:56:49.914Z</time>
      </trkpt>
      <trkpt lat="49.35596" lon="0.97731">
        <ele>2</ele>
        <time>2026-05-21T14:56:53.918Z</time>
      </trkpt>
      <trkpt lat="49.35599" lon="0.97735">
        <ele>1</ele>
        <time>2026-05-21T14:56:58.519Z</time>
      </trkpt>
      <trkpt lat="49.35603" lon="0.9774">
        <ele>1</ele>
        <time>2026-05-21T14:57:03.154Z</time>
      </trkpt>
      <trkpt lat="49.35607" lon="0.97746">
        <ele>1</ele>
        <time>2026-05-21T14:57:07.573Z</time>
      </trkpt>
      <trkpt lat="49.35609" lon="0.97751">
        <ele>1</ele>
        <time>2026-05-21T14:57:11.576Z</time>
      </trkpt>
      <trkpt lat="49.35613" lon="0.97757">
        <ele>1</ele>
        <time>2026-05-21T14:57:16.271Z</time>
      </trkpt>
      <trkpt lat="49.35615" lon="0.9776">
        <ele>1</ele>
        <time>2026-05-21T14:57:20.292Z</time>
      </trkpt>
      <trkpt lat="49.35617" lon="0.97767">
        <ele>1</ele>
        <time>2026-05-21T14:57:24.796Z</time>
      </trkpt>
      <trkpt lat="49.3562" lon="0.97773">
        <ele>1</ele>
        <time>2026-05-21T14:57:28.816Z</time>
      </trkpt>
      <trkpt lat="49.35623" lon="0.97777">
        <ele>1</ele>
        <time>2026-05-21T14:57:33.119Z</time>
      </trkpt>
      <trkpt lat="49.35626" lon="0.97784">
        <ele>1</ele>
        <time>2026-05-21T14:57:37.582Z</time>
      </trkpt>
      <trkpt lat="49.35628" lon="0.97792">
        <ele>1</ele>
        <time>2026-05-21T14:57:42.073Z</time>
      </trkpt>
      <trkpt lat="49.35631" lon="0.97799">
        <ele>1</ele>
        <time>2026-05-21T14:57:46.077Z</time>
      </trkpt>
      <trkpt lat="49.35633" lon="0.97805">
        <ele>1</ele>
        <time>2026-05-21T14:57:50.573Z</time>
      </trkpt>
      <trkpt lat="49.35636" lon="0.97811">
        <ele>1</ele>
        <time>2026-05-21T14:57:54.577Z</time>
      </trkpt>
      <trkpt lat="49.35639" lon="0.97818">
        <ele>1</ele>
        <time>2026-05-21T14:57:59.114Z</time>
      </trkpt>
      <trkpt lat="49.35642" lon="0.97824">
        <ele>1</ele>
        <time>2026-05-21T14:58:03.136Z</time>
      </trkpt>
      <trkpt lat="49.35644" lon="0.97831">
        <ele>1</ele>
        <time>2026-05-21T14:58:07.573Z</time>
      </trkpt>
      <trkpt lat="49.35646" lon="0.97839">
        <ele>1</ele>
        <time>2026-05-21T14:58:12.214Z</time>
      </trkpt>
      <trkpt lat="49.35647" lon="0.97846">
        <ele>1</ele>
        <time>2026-05-21T14:58:16.718Z</time>
      </trkpt>
      <trkpt lat="49.35651" lon="0.97852">
        <ele>1</ele>
        <time>2026-05-21T14:58:21.195Z</time>
      </trkpt>
      <trkpt lat="49.35653" lon="0.97859">
        <ele>1</ele>
        <time>2026-05-21T14:58:25.515Z</time>
      </trkpt>
      <trkpt lat="49.35656" lon="0.97866">
        <ele>1</ele>
        <time>2026-05-21T14:58:29.993Z</time>
      </trkpt>
      <trkpt lat="49.35658" lon="0.97874">
        <ele>1</ele>
        <time>2026-05-21T14:58:34.480Z</time>
      </trkpt>
      <trkpt lat="49.3566" lon="0.97881">
        <ele>1</ele>
        <time>2026-05-21T14:58:39.036Z</time>
      </trkpt>
      <trkpt lat="49.35662" lon="0.97888">
        <ele>1</ele>
        <time>2026-05-21T14:58:43.575Z</time>
      </trkpt>
      <trkpt lat="49.35664" lon="0.97895">
        <ele>1</ele>
        <time>2026-05-21T14:58:48.157Z</time>
      </trkpt>
      <trkpt lat="49.35666" lon="0.97901">
        <ele>1</ele>
        <time>2026-05-21T14:58:52.178Z</time>
      </trkpt>
      <trkpt lat="49.35668" lon="0.97908">
        <ele>1</ele>
        <time>2026-05-21T14:58:56.753Z</time>
      </trkpt>
      <trkpt lat="49.35671" lon="0.97916">
        <ele>1</ele>
        <time>2026-05-21T14:59:01.256Z</time>
      </trkpt>
      <trkpt lat="49.35672" lon="0.97922">
        <ele>1</ele>
        <time>2026-05-21T14:59:05.312Z</time>
      </trkpt>
      <trkpt lat="49.35674" lon="0.97928">
        <ele>1</ele>
        <time>2026-05-21T14:59:09.333Z</time>
      </trkpt>
      <trkpt lat="49.35676" lon="0.97934">
        <ele>1</ele>
        <time>2026-05-21T14:59:13.574Z</time>
      </trkpt>
      <trkpt lat="49.35679" lon="0.97941">
        <ele>1</ele>
        <time>2026-05-21T14:59:17.770Z</time>
      </trkpt>
      <trkpt lat="49.35681" lon="0.97948">
        <ele>1</ele>
        <time>2026-05-21T14:59:21.774Z</time>
      </trkpt>
      <trkpt lat="49.35683" lon="0.97955">
        <ele>1</ele>
        <time>2026-05-21T14:59:26.278Z</time>
      </trkpt>
      <trkpt lat="49.35685" lon="0.97962">
        <ele>1</ele>
        <time>2026-05-21T14:59:30.334Z</time>
      </trkpt>
      <trkpt lat="49.35685" lon="0.97963">
        <ele>1</ele>
        <time>2026-05-21T14:59:34.577Z</time>
      </trkpt>
      <trkpt lat="49.35689" lon="0.97969">
        <ele>1</ele>
        <time>2026-05-21T14:59:39.577Z</time>
      </trkpt>
      <trkpt lat="49.35691" lon="0.97977">
        <ele>1</ele>
        <time>2026-05-21T14:59:44.074Z</time>
      </trkpt>
      <trkpt lat="49.35693" lon="0.97984">
        <ele>1</ele>
        <time>2026-05-21T14:59:48.499Z</time>
      </trkpt>
      <trkpt lat="49.35696" lon="0.9799">
        <ele>1</ele>
        <time>2026-05-21T14:59:52.933Z</time>
      </trkpt>
      <trkpt lat="49.35698" lon="0.97997">
        <ele>1</ele>
        <time>2026-05-21T14:59:57.551Z</time>
      </trkpt>
      <trkpt lat="49.357" lon="0.98003">
        <ele>1</ele>
        <time>2026-05-21T15:00:01.932Z</time>
      </trkpt>
      <trkpt lat="49.35702" lon="0.9801">
        <ele>1</ele>
        <time>2026-05-21T15:00:05.953Z</time>
      </trkpt>
      <trkpt lat="49.35704" lon="0.98017">
        <ele>1</ele>
        <time>2026-05-21T15:00:10.491Z</time>
      </trkpt>
      <trkpt lat="49.35706" lon="0.98024">
        <ele>1</ele>
        <time>2026-05-21T15:00:14.952Z</time>
      </trkpt>
      <trkpt lat="49.35708" lon="0.98031">
        <ele>1</ele>
        <time>2026-05-21T15:00:19.416Z</time>
      </trkpt>
      <trkpt lat="49.3571" lon="0.98039">
        <ele>4</ele>
        <time>2026-05-21T15:00:23.899Z</time>
      </trkpt>
      <trkpt lat="49.35712" lon="0.98046">
        <ele>4</ele>
        <time>2026-05-21T15:00:28.358Z</time>
      </trkpt>
      <trkpt lat="49.35713" lon="0.98053">
        <ele>4</ele>
        <time>2026-05-21T15:00:32.791Z</time>
      </trkpt>
      <trkpt lat="49.35715" lon="0.98061">
        <ele>4</ele>
        <time>2026-05-21T15:00:37.251Z</time>
      </trkpt>
      <trkpt lat="49.35717" lon="0.98068">
        <ele>4</ele>
        <time>2026-05-21T15:00:41.711Z</time>
      </trkpt>
      <trkpt lat="49.35718" lon="0.98076">
        <ele>1</ele>
        <time>2026-05-21T15:00:46.198Z</time>
      </trkpt>
      <trkpt lat="49.3572" lon="0.98082">
        <ele>1</ele>
        <time>2026-05-21T15:00:50.378Z</time>
      </trkpt>
      <trkpt lat="49.35722" lon="0.98088">
        <ele>1</ele>
        <time>2026-05-21T15:00:54.951Z</time>
      </trkpt>
      <trkpt lat="49.35723" lon="0.98096">
        <ele>1</ele>
        <time>2026-05-21T15:00:59.472Z</time>
      </trkpt>
      <trkpt lat="49.35724" lon="0.98103">
        <ele>2</ele>
        <time>2026-05-21T15:01:03.575Z</time>
      </trkpt>
      <trkpt lat="49.35724" lon="0.98109">
        <ele>2</ele>
        <time>2026-05-21T15:01:07.577Z</time>
      </trkpt>
      <trkpt lat="49.35726" lon="0.98116">
        <ele>2</ele>
        <time>2026-05-21T15:01:11.738Z</time>
      </trkpt>
      <trkpt lat="49.35727" lon="0.98123">
        <ele>2</ele>
        <time>2026-05-21T15:01:15.873Z</time>
      </trkpt>
      <trkpt lat="49.35727" lon="0.98131">
        <ele>3</ele>
        <time>2026-05-21T15:01:20.438Z</time>
      </trkpt>
      <trkpt lat="49.35726" lon="0.98137">
        <ele>3</ele>
        <time>2026-05-21T15:01:24.459Z</time>
      </trkpt>
      <trkpt lat="49.35726" lon="0.98144">
        <ele>3</ele>
        <time>2026-05-21T15:01:28.573Z</time>
      </trkpt>
      <trkpt lat="49.35725" lon="0.9815">
        <ele>3</ele>
        <time>2026-05-21T15:01:32.576Z</time>
      </trkpt>
      <trkpt lat="49.35724" lon="0.98157">
        <ele>3</ele>
        <time>2026-05-21T15:01:36.576Z</time>
      </trkpt>
      <trkpt lat="49.35723" lon="0.98164">
        <ele>3</ele>
        <time>2026-05-21T15:01:41.196Z</time>
      </trkpt>
      <trkpt lat="49.35722" lon="0.98171">
        <ele>3</ele>
        <time>2026-05-21T15:01:45.197Z</time>
      </trkpt>
      <trkpt lat="49.35721" lon="0.98178">
        <ele>3</ele>
        <time>2026-05-21T15:01:49.296Z</time>
      </trkpt>
      <trkpt lat="49.3572" lon="0.98185">
        <ele>2</ele>
        <time>2026-05-21T15:01:53.852Z</time>
      </trkpt>
      <trkpt lat="49.35722" lon="0.98192">
        <ele>2</ele>
        <time>2026-05-21T15:01:58.418Z</time>
      </trkpt>
      <trkpt lat="49.35728" lon="0.98191">
        <ele>2</ele>
        <time>2026-05-21T15:02:03.054Z</time>
      </trkpt>
      <trkpt lat="49.35731" lon="0.98185">
        <ele>2</ele>
        <time>2026-05-21T15:02:07.532Z</time>
      </trkpt>
      <trkpt lat="49.35735" lon="0.98178">
        <ele>3</ele>
        <time>2026-05-21T15:02:12.053Z</time>
      </trkpt>
      <trkpt lat="49.35738" lon="0.98173">
        <ele>3</ele>
        <time>2026-05-21T15:02:16.512Z</time>
      </trkpt>
      <trkpt lat="49.3574" lon="0.98167">
        <ele>3</ele>
        <time>2026-05-21T15:02:20.576Z</time>
      </trkpt>
      <trkpt lat="49.3574" lon="0.98167">
        <ele>3</ele>
        <time>2026-05-21T15:02:25.577Z</time>
      </trkpt>
    </trkseg>
  </trk>
</gpx>